GFSSGP_2pvu_pres_000.txt.gz
Presure
131 112 133 170 168 108 148 154 149 155 145 143 115 119 130 144 84 142 89 98 106 94 124 138 93 125 125 118 140 148 119 168 138 178 142 150 146 143 162 160 126 156 96 105 157 162 159 159 159
123 147 165 138 173 153 103 131 117 163 159 145 162 129 117 92 123 87 98 95 114 141 90 131 141 138 130 112 131 143 140 143 163 132 168 148 150 143 83 165 157 163 166 91 158 156 158 146 159
148 150 169 163 168 171 149 174 94 137 138 135 112 127 106 96 102 132 117 97 85 113 102 122 107 140 114 130 135 132 152 136 142 130 96 83 120 132 157 114 89 86 89 162 142 142 156 139 146
75 162 167 125 165 176 137 173 143 75 157 116 125 140 113 152 127 89 91 94 91 94 105 116 135 142 120 141 126 127 158 151 138 134 137 135 148 153 156 169 169 151 191 183 94 153 163 144 157
167 144 189 182 172 171 195 196 166 78 158 118 149 108 158 89 154 166 87 88 91 96 101 157 106 150 153 120 109 141 134 166 139 138 144 116 106 130 170 185 182 151 178 161 113 102 117 116 124
216 176 172 221 220 208 221 230 222 220 122 119 106 111 138 142 154 97 154 87 87 95 94 90 99 110 112 94 95 153 137 116 144 110 123 132 139 190 155 139 177 161 151 186 146 170 164 174 193
219 215 205 201 200 201 213 214 211 212 213 100 109 94 114 182 117 95 150 133 92 96 86 88 100 98 90 104 170 103 120 168 97 143 129 152 140 159 172 134 159 161 161 193 150 139 144 163 180
202 197 191 185 201 200 197 190 209 197 192 205 224 112 100 127 205 129 128 164 96 97 85 90 94 88 136 115 83 93 135 96 94 101 91 91 90 158 162 155 152 101 82 88 150 130 181 126 215
169 173 187 193 191 126 201 199 200 205 209 133 168 135 101 101 93 188 109 212 98 129 83 175 96 141 108 182 91 88 89 100 87 85 89 90 89 86 88 95 110 100 114 90 104 198 84 115 120
179 179 183 183 187 183 195 163 188 197 206 197 190 157 88 140 101 90 96 106 94 96 88 79 82 98 90 95 124 82 84 90 93 83 85 86 83 86 93 105 127 138 171 93 87 97 191 199 209
192 166 122 202 183 182 189 181 99 121 198 202 198 205 192 106 95 95 92 107 135 99 86 95 78 91 90 87 96 86 103 83 88 77 85 87 97 82 92 96 182 114 185 95 181 84 179 200 226
204 190 192 150 186 208 225 224 219 188 204 210 188 145 122 192 200 210 119 102 97 201 96 83 85 86 95 81 78 84 86 90 89 81 84 88 87 80 171 130 78 172 195 185 84 169 107 231 220
224 218 220 219 202 195 223 218 218 211 221 170 176 209 192 143 198 97 215 101 94 89 85 79 98 95 98 113 147 166 150 85 108 82 78 83 89 90 102 83 99 79 95 99 126 187 198 250 208
221 216 229 222 223 231 228 228 213 211 225 205 85 222 211 187 194 84 105 113 96 116 88 101 131 100 112 200 163 96 100 89 90 84 84 84 84 97 110 94 89 106 84 176 125 127 116 220 234
219 232 230 223 236 223 236 226 213 210 221 245 200 78 165 200 192 197 199 103 86 85 103 109 132 138 171 128 203 88 118 131 180 108 85 86 102 182 79 83 94 85 108 186 193 205 226 230 222
225 233 219 228 232 240 227 142 213 221 235 240 251 244 116 74 199 193 198 123 148 151 81 121 128 129 95 125 123 118 121 133 189 132 109 110 105 136 171 84 93 103 109 142 196 197 215 221 205
227 159 231 218 226 229 240 154 220 209 224 230 250 250 246 253 251 131 192 151 195 171 147 107 99 105 127 125 120 110 103 208 94 105 178 93 113 103 99 111 123 105 108 125 205 203 180 206 196
221 214 227 242 234 230 228 241 229 222 212 222 237 297 242 248 203 252 123 93 104 108 100 116 111 121 132 126 119 111 100 109 173 77 190 103 82 117 117 179 107 107 110 110 194 192 114 190 191
224 229 241 236 216 237 218 235 240 231 226 215 286 280 282 240 234 182 188 87 92 96 186 117 104 101 182 187 96 109 119 120 117 111 112 117 81 89 111 104 191 106 110 111 190 187 184 192 191
221 227 230 242 235 227 202 205 243 240 230 228 228 276 271 276 249 227 251 136 193 193 122 124 109 117 100 117 119 119 121 112 85 87 106 110 112 107 99 99 109 109 140 192 199 177 193 173 185
239 230 234 236 234 239 226 217 229 235 231 224 226 273 269 268 270 236 235 250 214 121 191 178 105 77 125 117 113 103 115 78 87 101 95 110 107 109 221 110 108 112 193 187 180 180 190 176 181
224 226 229 223 230 237 240 242 231 225 226 211 214 264 268 125 262 266 226 240 252 202 198 191 118 170 171 105 92 86 84 112 115 106 112 106 180 136 111 195 149 161 193 180 181 190 182 184 182
254 253 249 244 245 247 243 243 226 226 221 209 221 257 207 97 258 259 231 220 125 242 203 207 191 189 182 180 126 113 112 111 108 110 108 109 124 208 213 198 191 193 180 190 187 190 186 182 188
242 246 258 258 265 269 247 252 225 246 145 205 227 245 251 245 248 212 258 222 226 245 222 204 193 191 186 184 173 148 107 113 110 110 110 145 208 204 198 196 183 184 181 192 188 192 177 178 183
277 282 290 296 298 283 271 242 169 243 209 106 139 241 247 247 239 241 257 221 213 229 235 210 206 191 172 179 179 175 176 173 210 220 104 204 207 196 197 184 191 184 155 186 192 185 189 175 179
312 314 312 301 303 292 274 144 274 242 208 219 226 240 222 213 219 170 247 265 214 105 143 224 212 192 167 182 171 172 185 185 210 207 210 207 202 195 190 187 193 193 200 196 189 176 190 192 190
301 274 281 300 300 304 291 95 280 229 203 216 220 237 235 233 217 228 88 256 218 202 230 228 209 201 183 181 172 168 188 180 198 196 208 194 200 188 182 184 195 191 181 186 175 189 187 182 173
384 386 292 277 163 274 75 299 99 266 207 137 219 202 246 230 233 221 248 253 265 215 212 228 216 204 190 180 170 167 168 134 182 207 207 206 202 193 189 192 189 172 171 186 189 180 176 177 184
278 264 120 345 304 285 249 188 273 249 230 123 211 224 243 234 188 236 207 249 264 217 207 229 188 206 191 181 174 169 172 173 176 212 207 204 201 196 192 188 181 188 192 188 178 176 182 169 185
351 350 360 358 373 383 398 437 289 250 247 78 224 228 243 118 228 226 238 240 100 158 209 228 223 205 194 187 178 181 162 173 180 205 210 208 205 196 196 181 186 184 177 177 172 189 189 155 202

GFSSGP_2pvu_pres_003.txt.gz
Presure
134 163 142 126 160 156 153 165 172 166 150 150 127 133 160 150 104 141 131 151 152 131 134 135 120 117 102 140 124 128 133 138 138 148 125 143 126 157 166 152 134 143 98 155 155 155 169 163 163
128 137 137 158 163 159 151 164 103 153 159 144 142 152 139 121 100 90 156 92 129 107 100 100 105 102 124 123 134 123 123 126 134 137 151 145 141 92 158 83 127 153 127 131 137 118 89 131 158
170 161 160 175 160 161 152 107 130 170 145 159 149 142 137 132 113 140 89 144 137 90 122 133 133 114 123 131 133 135 140 130 111 134 143 134 131 140 134 140 119 113 141 110 153 139 108 153 178
157 167 168 171 154 110 143 149 107 163 169 153 175 136 111 119 115 94 102 94 99 87 136 113 120 146 144 142 133 141 129 134 124 135 137 123 149 134 141 137 142 139 113 161 135 137 179 169 129
171 173 157 153 166 166 130 143 147 106 152 181 170 106 128 158 94 112 126 140 122 88 96 104 108 127 128 107 139 116 98 130 159 150 137 154 156 137 140 124 149 166 140 190 159 183 129 159 147
168 168 146 87 113 180 177 182 168 165 160 97 192 119 204 101 113 149 154 93 93 89 90 99 101 94 97 110 120 101 147 128 121 153 150 105 143 160 169 156 130 150 165 151 167 131 128 171 182
191 187 177 180 73 136 193 226 196 134 172 169 235 229 243 129 250 92 105 96 89 86 91 94 89 89 100 112 83 97 99 123 94 93 123 102 91 90 112 124 162 177 100 84 177 171 159 150 169
172 190 227 219 227 209 234 122 229 233 230 231 94 229 176 235 101 161 147 95 89 88 131 90 88 91 95 97 89 79 94 97 96 134 92 125 91 93 89 88 90 164 101 104 183 101 183 121 116
177 182 142 125 215 139 206 157 172 213 207 211 211 211 133 214 111 102 116 138 99 94 92 89 88 93 87 160 93 164 85 90 88 88 106 86 87 93 100 85 139 102 175 150 117 176 86 85 83
174 196 194 192 175 173 169 168 169 80 178 184 199 199 204 143 144 98 112 115 100 189 90 94 87 135 126 85 117 117 86 81 88 87 147 93 83 84 143 160 78 143 166 182 166 172 110 166 92
169 167 185 178 190 175 189 175 182 178 186 91 187 173 183 115 201 203 131 113 212 227 138 113 84 82 78 90 94 95 168 89 179 83 88 82 185 109 94 91 87 120 99 124 90 181 170 97 91
176 180 177 200 215 200 76 185 187 176 127 180 182 181 182 189 107 167 145 111 216 96 112 95 89 80 81 99 91 90 76 84 86 91 185 80 91 87 79 155 90 89 102 92 87 88 83 178 193
183 186 210 201 194 201 199 214 204 181 181 198 186 221 194 186 185 197 206 135 90 130 97 236 89 95 83 97 85 74 83 86 136 149 86 84 82 80 84 84 100 140 138 95 93 84 100 107 183
208 208 203 230 209 208 230 199 217 223 229 219 215 84 227 205 192 187 143 128 179 166 95 88 89 147 84 84 92 89 127 95 104 114 179 106 83 86 91 88 94 103 181 84 89 93 111 108 111
207 198 187 181 188 221 227 233 215 89 175 224 207 223 221 220 210 192 199 98 190 132 171 214 192 85 78 100 102 103 138 206 156 89 103 111 113 185 79 84 152 107 103 84 108 111 97 105 136
208 212 204 212 215 223 222 230 97 238 231 226 230 219 222 218 208 228 199 196 205 200 189 187 181 158 98 101 102 122 149 129 122 136 103 118 125 107 87 115 120 129 92 83 115 115 105 134 109
201 211 212 215 214 228 218 209 238 163 236 227 220 228 225 202 93 91 147 191 191 214 161 89 128 125 152 160 111 114 134 134 122 122 120 115 97 107 98 195 133 80 109 89 107 94 104 109 111
203 196 207 209 217 208 217 231 226 238 228 228 240 226 224 218 204 226 248 192 228 195 231 105 185 118 188 137 121 125 119 130 127 88 107 115 111 120 82 106 109 84 105 106 102 96 104 109 111
198 206 211 212 215 221 223 231 216 234 232 229 225 236 230 227 211 225 229 248 229 237 201 236 194 190 189 191 132 185 125 125 127 128 110 117 118 116 101 101 108 106 100 101 124 110 147 215 210
222 218 216 212 214 218 212 218 228 223 241 227 229 227 235 232 225 215 222 230 131 238 236 209 97 93 106 108 117 108 107 120 132 116 114 119 120 90 87 91 89 107 112 112 133 218 218 200 205
217 220 223 226 226 227 226 224 227 221 231 230 224 217 227 243 230 226 219 248 261 238 185 237 151 192 155 98 137 110 109 96 111 139 104 97 86 90 101 115 108 108 114 110 117 207 206 205 184
216 220 223 226 231 227 232 240 229 240 227 230 224 217 205 234 189 221 253 274 271 270 234 227 239 242 225 195 186 176 159 108 144 106 108 95 124 108 121 108 110 109 109 112 213 204 201 194 192
233 238 245 253 259 259 252 255 250 232 234 219 226 179 190 221 214 230 262 274 270 265 246 232 225 242 233 203 196 187 191 177 127 121 184 103 188 132 109 112 204 129 185 204 209 196 195 186 189
248 254 268 279 288 295 313 313 258 232 226 220 221 227 225 220 225 230 223 267 267 264 263 229 224 232 238 225 203 151 157 86 147 181 177 176 178 131 179 200 212 211 201 205 197 200 191 189 195
235 236 236 220 227 154 234 244 177 199 256 244 234 238 222 223 223 227 220 261 256 243 261 209 226 219 238 230 217 201 199 191 187 184 182 181 178 191 198 216 210 199 204 203 199 197 187 190 192
239 290 310 167 185 297 230 229 246 244 234 238 246 199 224 227 228 223 212 256 251 251 261 252 234 217 224 236 189 205 197 195 187 175 179 173 173 173 176 186 192 203 194 201 196 193 189 192 198
347 396 441 285 385 399 402 91 110 103 251 246 252 240 238 212 243 232 214 257 250 223 248 258 248 221 214 236 230 223 197 201 189 163 177 165 165 169 174 188 174 203 210 198 202 200 193 190 184
348 360 371 386 349 360 390 423 89 317 191 168 190 244 242 251 235 216 227 260 150 244 241 254 249 178 213 218 143 226 214 204 194 184 177 172 166 185 173 185 210 208 204 198 198 198 198 182 182
336 329 336 348 370 348 284 82 381 286 305 303 270 251 240 125 121 84 232 244 242 245 245 245 257 224 216 210 235 230 214 206 200 187 186 179 172 167 172 175 196 204 210 206 197 186 189 185 185
83 320 337 332 328 148 367 393 374 227 305 305 278 259 228 227 212 219 225 241 233 234 241 249 93 96 221 213 222 233 216 201 203 189 182 178 173 183 167 178 202 205 204 196 183 186 183 184 176

GFSSGP_2pvu_pres_006.txt.gz
Presure
94 151 161 136 146 151 152 156 143 152 151 131 162 130 143 143 130 139 138 149 124 151 125 139 124 110 117 126 128 134 124 135 109 104 120 136 140 139 132 142 137 141 127 117 152 157 169 81 89
166 143 159 162 160 163 148 107 150 167 155 169 157 124 125 120 153 167 139 146 149 156 159 135 110 102 91 123 128 121 142 131 137 131 146 140 139 124 152 126 83 115 117 154 89 87 128 95 132
166 163 149 156 163 155 161 170 123 152 140 158 164 141 155 124 110 122 135 114 104 153 145 141 106 137 136 122 104 118 132 143 139 116 117 124 102 151 142 154 145 133 134 156 115 142 133 158 145
167 155 159 138 168 99 130 172 165 152 172 165 158 167 119 132 176 98 120 155 99 150 95 172 95 97 137 146 125 129 135 141 148 142 143 139 134 134 139 119 150 119 155 144 164 138 162 139 162
178 156 161 165 167 172 167 164 142 169 156 159 172 178 166 161 163 172 154 104 92 142 95 92 121 118 114 128 147 111 128 115 144 125 126 135 139 128 118 105 159 164 136 145 164 152 125 168 139
178 168 152 161 165 172 180 177 167 180 152 88 180 166 151 158 174 137 126 95 89 124 128 130 112 140 117 124 93 101 99 121 153 136 117 148 154 150 129 117 97 153 145 148 124 85 96 129 171
176 180 173 118 179 155 136 172 175 166 160 179 149 180 145 178 187 179 182 85 115 182 97 90 96 101 98 155 100 157 137 152 126 99 96 123 125 94 94 140 124 130 177 113 96 127 145 177 174
166 184 154 165 141 178 174 172 107 197 166 179 186 171 157 173 192 138 195 117 163 129 160 93 99 102 88 91 139 84 90 100 97 95 99 96 116 114 94 94 88 91 150 161 156 147 137 146 168
161 161 172 184 163 182 195 186 183 124 194 201 247 215 231 179 239 151 152 243 162 101 186 88 112 99 93 82 99 88 86 88 119 96 95 90 114 90 88 88 90 106 108 161 123 86 151 170 169
190 193 207 176 207 182 233 227 194 138 228 228 229 224 123 232 202 237 238 180 234 192 97 87 90 100 92 100 87 99 129 201 115 85 88 88 85 85 117 84 93 99 186 124 184 105 104 95 87
200 219 213 200 227 227 214 169 150 201 180 166 170 170 176 186 194 192 120 207 105 164 122 99 92 97 88 115 112 202 190 87 94 87 85 84 87 83 83 82 89 83 90 93 94 100 94 95 88
174 190 179 209 175 177 180 187 174 182 172 162 169 144 169 182 186 184 183 178 207 204 122 105 101 164 90 95 92 88 91 94 76 156 87 97 90 82 81 185 83 87 84 83 101 111 181 94 88
220 211 211 217 186 185 205 184 182 175 188 209 201 179 179 164 178 178 175 131 106 192 192 213 145 202 218 233 83 78 90 212 103 179 99 88 85 106 154 83 83 83 86 95 95 131 184 144 111
214 212 214 210 209 225 199 200 217 198 201 202 203 185 191 163 180 185 177 210 104 190 190 190 204 211 97 97 91 86 91 156 87 84 91 116 151 91 124 157 130 95 84 133 167 200 97 82 111
157 206 199 215 212 210 211 216 196 197 208 91 214 211 225 206 101 200 198 202 219 195 97 192 166 114 97 101 96 87 97 91 90 98 107 216 224 87 94 102 95 126 201 86 109 105 90 83 103
212 220 207 207 211 209 210 208 220 227 228 219 238 213 238 225 231 224 193 195 219 224 209 208 115 195 87 166 106 100 86 89 92 96 102 113 213 130 119 164 110 121 107 96 111 121 83 82 108
204 219 217 203 206 205 207 204 210 208 220 216 217 95 204 227 227 222 220 88 220 218 226 214 207 198 200 101 117 103 86 101 97 125 97 182 134 133 123 121 118 114 111 121 123 112 89 108 106
151 214 216 222 205 204 205 212 203 211 216 192 223 213 235 229 233 210 201 221 188 217 222 225 215 203 222 200 120 167 83 197 111 115 115 124 214 132 125 125 116 113 111 106 96 101 107 97 99
198 203 212 217 218 204 205 197 208 212 211 213 213 209 232 232 230 230 232 224 85 147 210 219 231 219 194 91 123 84 111 120 144 198 185 124 121 127 129 94 110 118 118 119 87 90 93 95 103
208 207 211 217 221 224 206 209 208 205 209 216 214 214 218 225 244 224 229 235 230 225 215 210 236 227 245 85 195 215 203 114 114 195 130 185 185 124 115 126 163 117 123 100 88 98 91 103 111
207 217 215 220 218 222 225 202 197 207 202 209 216 213 212 226 240 231 233 229 240 232 225 212 223 239 238 174 219 212 220 200 166 149 153 114 121 99 109 111 118 110 97 90 132 115 107 112 154
221 223 79 138 216 225 222 230 216 214 219 212 215 209 213 221 222 232 227 230 232 236 239 227 215 229 241 209 91 96 206 202 102 129 107 107 101 108 108 136 150 101 94 103 117 110 210 185 162
227 228 227 225 231 196 225 232 233 217 219 217 220 220 221 221 226 230 241 227 227 240 239 237 248 254 236 246 243 231 121 236 228 218 204 174 174 172 178 185 124 187 175 192 188 178 209 210 209
237 234 228 229 232 238 236 249 196 188 222 215 217 222 232 233 185 245 238 225 226 225 243 236 254 270 277 244 237 233 253 242 236 221 220 197 173 194 179 187 192 181 179 174 196 182 202 208 201
233 231 237 244 251 245 262 267 151 251 226 248 235 238 243 241 242 244 240 235 230 206 226 241 231 276 273 276 245 233 227 243 233 223 222 134 162 189 196 180 187 181 174 173 190 174 188 194 203
232 219 220 225 229 238 184 271 254 125 152 233 250 268 302 249 248 183 245 227 180 187 221 231 236 229 273 266 269 221 228 222 235 230 225 211 195 200 198 185 179 175 168 170 169 174 174 189 210
220 225 345 340 340 338 343 87 138 99 104 204 222 200 248 277 257 238 231 224 234 226 228 226 235 222 267 261 164 207 224 217 227 238 237 219 206 201 200 199 165 165 177 172 167 175 172 177 185
257 294 345 346 312 367 370 362 87 257 258 114 110 201 232 264 258 250 239 230 232 232 206 230 225 239 258 255 248 200 226 217 214 234 225 211 215 198 194 203 190 175 176 182 173 185 184 174 207
282 372 368 319 303 341 349 352 370 89 371 381 371 244 237 222 250 257 258 248 247 225 225 235 223 261 249 248 249 246 227 217 214 216 228 226 216 212 192 201 197 183 187 178 178 179 183 181 196
251 247 231 279 351 356 350 108 103 95 355 362 365 362 243 235 240 237 242 243 126 169 213 227 95 252 244 240 246 238 242 218 214 208 228 229 218 214 212 202 199 185 181 180 179 181 181 194 197

GFSSGP_2pvu_pres_009.txt.gz
Presure
104 143 119 125 110 138 133 164 86 138 136 165 146 162 164 133 164 133 152 109 168 123 111 137 141 134 134 134 101 139 144 132 129 138 120 121 133 114 115 122 142 139 135 134 139 142 136 124 84
123 117 97 166 116 116 125 126 164 148 90 152 166 135 166 154 154 127 132 137 167 142 151 123 163 118 98 110 140 132 141 133 135 114 120 120 139 117 141 142 143 127 148 133 134 142 84 94 147
141 150 145 102 165 159 130 130 148 164 153 144 116 137 156 131 134 152 115 149 106 143 172 172 135 141 113 90 102 98 145 141 136 122 147 135 133 133 132 101 81 98 116 128 97 129 140 131 157
175 105 164 158 170 159 127 165 163 171 166 149 153 159 159 152 139 129 149 159 133 128 108 146 126 134 149 145 113 108 106 123 137 135 158 149 147 90 120 148 133 132 142 137 133 154 146 146 161
166 165 168 158 159 158 168 141 131 156 160 155 167 163 146 160 157 129 134 157 159 105 103 123 131 139 102 97 99 132 109 89 109 127 114 147 117 155 145 142 141 113 121 136 151 151 155 148 81
161 164 154 129 165 167 122 152 152 96 157 159 156 129 164 155 145 162 158 157 166 129 98 96 165 136 94 131 104 125 121 108 133 134 141 122 126 143 126 144 119 141 117 140 120 135 83 89 106
135 149 152 163 167 178 165 164 147 174 173 164 167 160 175 162 167 170 155 155 159 165 92 158 95 98 163 132 152 122 168 150 94 133 132 147 93 124 130 106 96 141 98 156 110 99 102 158 110
166 166 170 163 175 172 169 181 165 172 157 174 173 169 170 164 173 178 169 175 164 195 114 101 160 97 111 134 136 90 103 110 103 140 159 98 99 103 105 108 94 87 88 89 83 95 123 86 93
169 171 165 169 172 162 169 169 171 166 178 180 179 169 174 159 152 164 168 185 166 147 113 94 114 98 129 169 97 104 97 93 97 106 102 96 101 96 99 92 87 89 111 83 109 159 140 161 158
176 162 144 169 168 167 163 171 169 132 126 166 159 153 174 189 185 157 225 183 232 236 206 100 163 138 102 105 92 97 93 156 119 96 102 96 162 93 89 87 84 109 152 96 85 90 95 107 89
171 198 175 207 168 174 164 169 176 161 175 175 182 182 169 124 153 129 236 152 213 243 143 245 97 100 96 104 93 91 98 83 89 93 138 158 104 92 93 85 84 79 81 78 87 136 78 100 98
214 181 211 196 190 175 175 210 193 177 137 179 219 182 218 222 205 182 180 183 215 226 218 208 97 108 94 103 90 94 128 90 238 92 97 139 93 95 84 85 82 85 81 81 85 79 94 83 97
207 199 206 212 204 184 213 219 214 211 239 212 191 220 169 185 192 182 173 173 179 191 186 192 119 162 137 101 101 96 81 218 109 96 234 100 96 89 94 99 158 131 84 83 103 196 100 100 132
203 207 205 201 207 204 201 211 212 224 221 204 175 203 173 181 183 165 140 181 181 180 106 184 186 183 93 95 98 106 90 83 91 83 96 113 92 99 87 88 140 210 89 122 94 205 110 134 181
138 209 209 214 215 210 215 224 223 184 219 170 170 189 181 184 177 168 164 219 180 188 172 178 185 188 198 189 155 192 116 91 89 88 95 95 95 89 90 105 96 113 94 96 106 100 122 129 102
143 199 198 207 204 200 213 210 217 214 219 218 223 225 201 181 229 198 166 171 173 185 175 197 190 183 217 216 194 184 217 96 200 94 84 100 94 95 93 102 80 129 132 118 119 109 120 113 114
208 169 167 210 196 188 219 218 213 201 211 200 212 214 216 216 204 173 209 222 207 84 229 208 203 204 147 169 218 192 193 105 101 83 96 90 80 99 93 113 168 241 244 152 126 120 115 114 111
203 210 207 217 210 210 213 208 212 110 208 207 207 217 212 215 222 222 123 202 224 217 231 224 237 240 216 204 160 233 200 119 89 172 101 84 92 93 96 109 113 117 97 154 121 120 120 115 100
206 204 207 203 208 209 197 199 214 222 208 205 205 205 210 195 205 213 215 223 225 229 240 245 235 235 229 205 230 218 247 212 195 101 104 82 95 168 196 175 116 120 118 123 126 126 139 204 115
205 208 207 206 195 203 190 185 205 210 215 222 205 207 206 208 217 210 197 223 220 227 257 241 78 209 236 232 224 217 213 244 248 204 90 117 203 199 197 126 200 190 143 197 123 124 123 124 103
203 209 210 208 210 209 212 211 212 205 209 214 222 206 195 204 209 216 192 219 209 211 229 251 239 123 139 238 233 181 208 221 179 195 227 208 224 195 198 151 158 190 121 98 82 108 109 110 91
213 206 206 205 208 212 210 212 162 202 209 211 220 221 205 205 208 211 215 220 222 223 231 244 239 233 243 241 238 232 191 228 248 183 239 233 216 225 217 124 155 109 112 98 105 105 117 194 188
211 210 212 214 206 76 209 215 211 207 207 217 217 220 226 212 208 209 214 214 222 220 210 227 237 236 236 238 250 241 219 216 106 92 218 97 235 218 223 223 206 115 114 186 180 177 179 183 181
209 208 213 217 220 221 208 223 76 213 218 200 226 231 231 234 237 223 223 226 227 226 223 219 232 240 235 231 244 243 234 230 220 171 94 230 231 232 222 180 177 216 210 189 184 125 176 181 186
213 211 214 218 219 225 206 244 86 199 155 251 247 241 243 241 233 232 230 224 231 226 222 223 226 238 231 231 236 243 238 260 260 251 228 232 137 239 234 227 223 218 220 212 189 189 183 175 180
218 222 236 269 264 259 240 249 101 231 116 131 266 235 241 233 235 235 232 229 216 220 222 226 229 241 234 224 219 242 235 227 249 257 254 204 226 242 242 233 169 118 220 215 195 200 198 188 161
256 233 231 227 225 227 225 143 251 109 178 245 278 210 192 266 252 253 237 227 227 224 222 237 233 238 234 230 210 217 239 236 251 255 247 244 219 99 232 224 229 221 223 218 213 209 196 200 189
216 214 220 217 239 309 352 362 255 288 98 108 107 122 251 348 165 256 263 264 169 228 236 232 190 235 233 209 184 168 223 253 260 258 251 244 232 218 226 230 234 230 220 222 217 212 198 197 200
210 234 251 266 265 301 264 333 87 331 362 284 372 305 380 129 260 256 238 252 269 251 247 246 96 191 221 232 223 226 225 247 258 254 254 238 230 224 218 225 230 234 234 228 219 213 206 196 196
231 246 244 242 268 292 310 352 376 381 360 367 375 372 138 352 403 432 253 237 250 264 302 256 237 223 217 217 224 229 225 249 244 253 246 238 232 231 220 221 222 234 234 229 221 215 212 210 207

GFSSGP_2pvu_pres_012.txt.gz
Presure
145 147 149 106 113 137 146 100 144 161 123 129 111 160 128 166 147 125 147 145 134 134 125 125 145 96 132 99 103 137 143 138 136 135 136 135 135 136 135 128 119 130 120 139 114 139 147 136 87
156 145 128 137 153 128 115 123 142 159 145 155 107 162 118 161 127 129 160 134 117 132 132 111 93 136 109 133 133 114 114 119 139 137 139 135 140 114 117 110 141 125 136 135 142 136 137 121 146
123 83 114 126 150 130 149 139 108 103 161 147 131 169 138 159 145 170 133 166 148 138 109 165 121 131 125 134 132 127 113 110 121 146 142 114 139 128 146 135 140 133 137 146 133 142 98 86 123
156 82 138 125 150 89 121 154 121 113 146 167 179 90 129 132 162 148 170 141 167 159 160 99 126 140 127 174 160 134 125 92 131 103 147 142 122 157 136 135 116 121 80 137 140 124 138 142 141
101 147 96 129 150 102 132 130 95 147 153 132 89 149 158 163 129 140 155 152 163 159 146 159 174 140 152 135 176 90 91 108 150 152 136 156 138 132 133 151 138 92 78 144 118 138 143 149 142
166 163 163 162 166 100 114 143 136 152 154 140 154 124 141 164 172 147 143 166 142 161 158 138 114 138 141 124 158 88 133 164 134 149 136 102 142 139 148 132 127 115 126 136 114 125 150 109 86
154 166 164 149 151 170 159 156 170 170 149 166 164 168 159 146 159 156 159 156 161 151 159 153 159 162 137 177 106 100 107 107 163 102 102 123 128 109 114 134 143 110 117 102 117 105 153 107 98
176 173 158 167 168 172 160 153 170 167 86 153 152 175 168 152 151 159 159 151 170 156 107 159 160 165 97 101 178 154 161 107 159 151 154 100 116 187 139 94 103 103 96 94 84 88 82 93 97
170 167 167 168 170 167 165 170 134 167 142 166 158 165 173 145 164 170 163 168 150 175 165 166 183 170 98 156 110 145 173 166 121 174 98 142 166 133 97 104 104 100 90 88 89 86 151 95 86
173 173 168 175 165 174 171 140 173 131 167 147 172 160 165 173 153 174 152 170 169 156 173 153 172 156 99 96 98 141 160 120 97 105 101 183 170 101 98 104 98 92 88 88 87 96 113 88 90
172 168 178 176 171 173 176 162 170 167 168 171 166 153 177 167 175 180 174 179 177 172 171 186 191 190 96 108 110 234 133 104 110 103 107 88 159 104 102 101 101 87 86 84 85 74 84 87 81
185 180 180 170 174 166 160 168 165 168 172 78 172 146 168 173 177 153 181 181 174 169 186 174 213 239 143 217 109 102 125 100 102 87 90 214 94 91 104 197 93 85 85 78 86 83 84 127 79
195 197 196 184 187 176 175 178 176 171 160 173 167 167 170 176 172 175 164 177 189 174 181 227 239 169 151 229 100 96 102 102 93 90 90 89 84 98 86 98 91 91 92 92 129 85 85 87 90
189 189 186 182 178 184 184 184 173 168 164 207 211 178 167 181 123 184 239 217 217 216 204 220 198 200 226 184 186 125 94 142 100 89 101 91 129 97 151 83 88 88 90 86 88 89 132 123 179
200 198 200 196 198 188 182 181 202 212 212 206 206 208 189 176 222 234 220 216 224 228 190 194 190 183 171 173 190 103 190 105 102 99 100 87 107 118 206 101 89 92 93 90 112 95 95 82 217
201 204 205 207 206 208 214 211 209 204 206 211 224 220 224 224 229 224 226 242 211 202 170 189 190 184 173 177 90 189 98 94 98 94 172 94 93 93 86 98 91 88 93 181 99 99 101 231 226
204 194 201 199 196 204 210 215 205 204 211 205 208 212 211 215 218 221 189 230 218 199 178 187 211 194 171 170 173 179 182 96 98 101 106 105 194 100 97 93 83 89 94 91 94 153 217 221 221
203 206 205 201 180 175 132 210 212 211 210 210 209 204 220 220 211 209 216 217 219 227 222 228 203 182 187 231 221 234 157 195 197 195 215 125 111 160 168 136 94 91 82 95 95 104 109 115 110
218 218 210 206 205 205 176 211 138 153 214 151 199 152 209 207 215 212 210 214 213 228 221 224 230 240 238 229 239 236 233 236 235 219 201 214 219 194 94 176 154 187 93 100 96 198 201 117 115
231 219 218 218 217 214 201 201 204 209 210 211 207 208 217 208 203 224 212 209 205 211 211 215 217 232 211 225 229 242 253 240 235 228 135 211 218 235 103 119 202 104 96 92 121 195 192 166 193
223 235 228 222 217 213 215 213 208 206 206 203 202 209 212 206 191 215 222 219 207 210 216 222 224 216 223 220 219 84 216 241 226 232 230 211 213 209 246 247 96 167 217 185 206 196 199 177 111
256 225 242 216 218 219 214 209 203 203 203 202 205 215 210 217 213 216 210 219 231 214 214 211 216 228 191 206 234 236 241 229 239 243 233 226 218 208 211 218 233 232 224 210 206 216 208 199 192
257 221 233 235 219 220 214 219 206 201 204 104 201 211 213 215 214 219 221 221 217 231 216 212 214 222 219 220 218 222 228 243 229 97 250 234 223 201 221 245 235 230 236 97 222 223 215 219 211
241 253 236 229 223 113 163 221 95 201 201 157 218 218 218 217 221 225 222 223 224 224 231 221 208 213 216 213 224 211 220 228 235 231 233 146 211 176 205 227 210 93 95 93 116 226 220 219 195
248 243 240 244 230 214 219 214 206 98 79 168 226 225 225 233 237 157 230 232 231 227 230 227 225 214 208 212 222 222 226 215 236 239 221 235 238 233 200 213 225 156 238 230 231 236 227 226 222
242 242 240 232 225 220 219 217 214 99 148 95 237 206 230 242 241 242 212 235 234 236 239 236 228 227 222 220 225 226 223 220 227 243 226 239 242 249 233 274 269 244 232 234 231 230 238 225 227
233 230 228 226 224 218 216 209 227 115 126 114 133 169 176 127 137 275 275 260 247 244 243 242 239 229 229 227 225 218 212 218 229 236 228 217 226 249 272 262 260 241 116 229 224 222 236 236 232
203 213 211 214 227 226 238 240 246 266 284 89 204 148 337 395 348 176 191 274 205 269 253 248 244 233 227 224 218 213 219 226 196 168 228 230 213 229 228 160 265 252 252 246 237 222 221 232 228
247 238 234 229 227 231 249 267 240 247 310 311 323 103 112 97 121 307 362 181 291 206 263 257 243 237 219 218 222 224 213 226 227 224 233 227 210 218 225 267 256 263 253 242 235 228 225 218 228
224 222 231 238 251 242 248 252 254 287 309 100 94 166 334 351 387 385 396 409 415 253 248 254 261 252 234 201 225 227 213 228 230 222 221 230 228 225 259 243 253 242 245 247 239 234 228 222 221

GFSSGP_2pvu_pres_015.txt.gz
Presure
147 143 158 140 138 148 144 155 140 94 118 163 139 155 132 121 111 119 147 152 136 148 136 139 130 118 106 112 137 137 139 136 138 140 157 126 140 142 141 142 148 141 141 140 140 142 126 126 131
162 142 122 146 110 130 143 138 124 128 120 109 139 131 132 89 102 114 128 89 162 143 129 131 136 126 123 88 119 138 130 143 148 139 118 138 137 150 113 132 132 113 142 135 125 131 140 145 144
151 161 155 143 154 101 149 151 141 149 92 102 89 115 148 128 137 137 148 120 160 164 149 135 150 132 100 128 139 118 109 130 97 121 135 137 143 143 116 138 141 136 135 147 147 137 146 132 87
167 146 154 153 160 100 132 119 138 139 158 144 84 86 126 88 120 110 126 168 163 153 128 142 128 149 104 135 159 141 117 101 99 115 104 123 146 136 142 143 132 129 131 119 83 123 110 143 150
158 165 159 139 86 134 155 132 139 108 145 152 161 150 142 78 147 133 134 160 155 164 157 172 140 153 126 134 154 162 135 134 155 144 150 144 145 144 133 147 149 140 116 133 124 140 109 120 158
186 181 135 135 174 149 112 141 158 130 141 155 132 123 146 152 142 94 172 180 147 167 129 153 171 152 160 165 124 161 168 130 158 175 138 141 143 143 158 143 141 113 129 76 135 142 141 138 131
178 179 151 151 92 101 165 146 141 141 86 155 100 154 152 135 87 105 132 147 176 163 171 125 167 147 164 96 166 155 164 139 98 99 128 126 151 138 144 153 148 126 121 115 125 106 109 114 112
177 171 175 168 172 108 161 159 169 165 126 97 142 124 143 156 159 164 160 153 140 133 168 174 131 117 168 160 152 130 171 107 98 117 137 115 147 100 151 119 112 145 180 129 144 99 96 85 82
188 183 169 166 172 175 175 172 163 158 161 169 175 160 121 144 178 170 170 169 164 163 148 160 161 159 152 166 161 121 163 148 100 183 105 149 108 107 139 110 138 149 126 130 98 87 86 88 84
165 183 179 175 176 174 170 175 110 152 169 133 126 169 172 175 171 157 165 161 168 145 168 147 157 161 155 153 161 148 129 130 139 114 163 113 146 155 126 113 109 97 103 100 90 86 89 79 88
169 166 167 187 179 177 179 161 161 174 144 177 170 176 167 160 171 172 161 158 167 162 169 154 166 160 174 169 183 156 165 147 99 158 174 198 182 111 101 122 160 97 101 97 87 87 85 87 82
172 175 173 168 188 186 173 173 178 173 164 174 176 165 166 167 167 178 149 178 177 175 171 165 172 168 182 184 182 168 170 173 137 118 253 249 104 102 102 94 96 95 101 92 85 86 82 78 84
185 176 187 185 174 187 182 178 181 174 177 173 177 183 168 167 171 151 175 176 176 166 184 181 176 176 176 174 179 177 170 155 100 144 234 184 110 102 82 98 101 103 103 96 88 84 81 94 91
185 191 190 180 183 190 184 196 187 175 174 174 175 177 175 175 169 171 172 180 171 176 177 147 162 183 175 180 212 182 155 170 148 101 102 105 106 100 75 96 92 87 89 90 90 91 95 87 87
199 199 186 200 189 182 186 176 180 183 187 182 182 181 170 172 170 172 180 174 174 171 162 232 168 180 89 236 236 222 217 203 190 102 95 185 99 92 93 97 93 181 194 100 93 96 101 95 87
203 200 196 192 186 186 189 186 189 193 191 207 201 198 190 191 195 184 171 173 236 231 209 211 219 237 223 222 209 272 196 191 191 183 163 101 185 101 96 104 90 102 104 102 201 89 92 92 100
211 206 203 203 199 192 199 190 187 188 188 190 189 186 187 187 187 184 212 222 221 229 225 236 228 228 230 225 211 201 179 182 191 180 173 172 105 102 187 140 95 92 97 88 89 92 89 93 94
214 207 214 206 206 205 208 207 204 203 205 208 210 213 210 207 211 203 210 215 223 217 227 225 223 223 224 228 243 194 175 174 179 197 187 187 96 96 119 101 103 104 107 93 96 100 82 93 91
217 228 218 214 207 213 211 202 202 206 204 205 206 201 204 208 208 209 212 212 219 217 220 222 224 210 221 228 191 222 224 232 235 199 212 173 161 163 235 198 98 110 198 110 90 104 173 99 103
214 231 219 227 215 214 211 206 203 207 206 201 134 199 196 207 217 211 205 218 204 203 215 216 216 220 216 214 207 229 216 229 236 228 230 247 251 202 233 225 231 225 215 216 226 218 102 98 154
240 235 229 223 226 224 211 205 202 202 203 205 134 202 170 169 210 169 153 209 217 213 204 216 214 211 215 219 206 202 217 218 209 210 215 222 236 237 243 235 230 228 218 204 221 221 155 189 97
238 235 227 258 236 245 224 225 216 209 207 206 205 209 218 217 162 207 214 213 214 201 207 221 216 197 217 231 219 213 228 215 229 209 207 115 234 251 229 239 238 226 228 225 219 214 213 223 243
232 235 247 254 258 251 223 222 228 231 216 214 206 214 216 215 218 219 213 212 215 220 217 219 217 199 209 210 211 218 211 216 211 225 232 225 211 84 238 242 233 247 245 229 221 113 208 232 233
233 238 239 246 251 247 216 235 264 206 221 233 210 220 219 220 223 224 219 210 217 220 220 217 219 217 217 211 208 208 220 215 217 213 211 189 213 219 233 219 192 218 250 240 237 227 208 190 96
241 246 251 256 291 283 264 260 176 197 153 226 223 179 220 223 226 228 213 222 223 225 215 215 216 217 217 215 214 216 214 223 218 218 211 203 223 223 216 232 244 231 242 240 239 145 204 198 221
243 252 270 276 258 247 248 247 218 187 78 129 243 230 165 218 232 236 237 234 229 225 226 227 228 229 229 229 217 211 208 216 223 218 216 204 219 231 220 227 240 237 225 239 249 228 262 269 268
279 260 255 251 241 234 235 238 239 233 233 231 119 105 117 227 221 234 221 240 237 231 235 232 237 239 235 229 229 219 214 224 224 221 228 220 220 225 214 226 238 230 226 226 237 229 246 261 213
254 246 243 241 233 233 230 230 223 228 228 229 140 242 244 252 255 200 112 116 146 181 247 268 239 223 246 239 238 235 150 222 219 221 222 222 224 215 216 222 232 230 228 227 208 191 267 261 259
235 233 234 229 222 216 216 213 230 241 245 159 251 266 320 172 329 310 324 331 296 316 199 216 290 271 227 252 248 239 230 226 228 224 222 216 212 222 211 217 239 225 228 220 182 226 254 227 249
227 219 211 212 235 241 237 235 90 243 203 254 261 223 240 98 351 108 276 399 126 131 136 371 378 252 271 272 264 251 246 242 230 225 222 217 215 220 214 225 234 222 218 226 221 247 247 241 242

GFSSGP_2pvu_pres_018.txt.gz
Presure
136 156 151 131 136 133 119 118 145 130 125 133 94 148 119 152 147 138 137 149 153 129 142 124 137 138 129 135 129 137 125 114 131 127 129 144 126 143 145 154 127 136 152 153 152 144 115 123 150
134 161 145 150 138 102 110 129 123 114 136 150 118 127 116 128 147 119 123 131 147 157 136 133 113 133 122 127 130 137 129 122 127 131 135 137 142 158 134 135 139 147 144 143 131 130 130 132 145
158 159 144 140 159 127 152 145 94 138 135 151 142 122 117 106 99 104 122 121 108 111 141 143 136 121 147 123 134 122 92 115 129 109 140 127 127 138 128 159 145 141 144 142 141 142 145 144 129
178 168 144 158 140 145 156 159 64 149 142 153 100 83 147 117 128 157 102 101 113 166 140 131 138 162 166 147 153 134 97 128 112 132 123 101 135 125 124 128 134 134 133 137 116 137 125 124 142
185 169 168 148 144 159 150 147 96 98 134 134 112 91 147 130 98 81 112 145 149 126 150 147 151 132 160 145 153 132 91 141 124 125 138 128 139 117 148 144 152 145 112 142 143 85 105 144 129
169 170 172 148 164 163 153 125 138 112 148 105 150 151 120 98 93 131 109 83 99 127 129 131 129 161 165 161 159 122 154 129 136 135 136 128 143 131 148 148 147 152 153 151 154 78 132 118 148
196 168 149 183 168 161 167 172 160 159 137 152 143 157 146 140 148 125 132 142 129 125 143 121 116 134 158 164 151 168 157 141 165 144 123 145 115 95 156 134 139 124 158 152 153 96 149 130 126
187 199 150 148 183 185 190 169 165 161 158 159 141 147 160 151 156 152 153 154 99 114 138 134 169 159 177 144 164 146 156 172 158 149 148 167 134 100 166 109 132 138 118 149 157 130 117 158 117
175 176 189 168 172 185 195 194 162 134 137 101 158 97 149 150 126 144 150 139 138 118 163 114 165 124 129 154 163 166 163 145 171 140 157 157 97 95 103 141 165 127 184 162 123 162 123 138 89
168 165 170 183 181 176 176 183 188 178 117 147 183 139 148 140 139 116 146 150 161 151 156 89 149 161 153 159 166 145 170 174 170 158 155 156 158 163 171 171 179 165 148 184 117 109 174 89 88
163 165 166 168 186 184 181 171 185 180 173 167 158 176 157 154 114 167 143 158 171 158 155 154 177 157 169 171 169 170 158 153 162 165 155 165 160 143 190 110 156 164 111 178 109 106 113 89 88
187 163 160 164 163 169 132 180 174 171 170 176 184 162 169 171 161 115 171 172 112 161 167 171 172 164 162 169 158 177 171 175 153 156 159 175 167 101 179 136 189 181 255 251 249 104 103 89 90
196 190 171 173 176 172 158 165 182 187 176 170 179 176 168 172 173 171 164 163 172 173 172 166 175 167 175 151 150 176 159 179 172 164 166 165 162 160 102 175 203 190 102 95 191 99 99 187 90
215 206 203 190 184 183 166 169 173 165 172 183 185 179 174 176 167 166 176 177 176 177 159 107 179 178 176 159 182 179 183 166 188 181 175 179 175 210 102 179 191 233 226 107 103 108 105 100 95
206 207 200 197 203 184 178 171 170 175 177 171 171 179 189 184 170 174 174 171 180 185 178 170 166 177 178 180 185 179 173 182 178 194 184 174 168 108 98 125 203 111 202 83 113 121 89 104 96
217 217 207 190 191 188 187 181 179 178 175 157 179 178 182 185 186 186 184 179 180 177 176 184 164 167 170 183 177 181 174 230 200 212 222 222 217 232 126 97 184 180 96 95 95 93 100 110 106
214 210 206 200 195 193 193 179 180 184 184 182 190 181 178 180 174 179 184 185 184 186 182 182 153 195 202 203 167 180 220 224 232 217 174 229 215 220 235 191 101 187 103 99 97 97 84 108 168
188 180 212 213 214 213 213 211 178 183 184 181 186 191 198 181 186 192 187 191 190 190 193 189 181 195 206 185 210 212 217 225 215 222 221 232 238 124 228 180 168 113 98 188 128 98 107 102 99
239 210 156 213 209 204 209 200 192 196 197 196 196 199 193 192 187 197 198 197 205 209 216 214 210 212 216 212 214 212 201 200 207 204 213 216 221 242 97 186 179 189 211 210 96 178 121 172 108
195 232 184 178 178 209 204 205 201 207 203 203 197 198 200 202 202 208 209 210 213 211 212 210 209 212 213 221 225 227 222 221 224 221 216 207 214 214 159 236 180 227 202 147 236 240 136 133 207
214 207 217 226 217 201 199 203 207 206 207 207 207 209 207 208 210 207 206 210 208 209 212 215 210 211 214 210 217 216 195 215 210 213 212 215 218 216 217 216 220 220 227 223 159 242 244 241 225
244 236 226 206 231 224 225 214 217 206 200 214 216 211 208 209 211 212 211 149 151 179 172 212 212 211 216 207 210 204 216 198 198 207 201 203 196 201 204 202 202 206 210 226 230 239 248 245 245
232 237 233 220 219 225 227 236 227 223 225 221 215 213 213 210 211 211 211 210 138 172 149 212 154 221 225 203 213 210 217 218 206 199 199 200 209 203 208 214 208 223 226 212 211 224 260 248 237
226 243 226 228 231 233 239 244 219 214 223 221 232 227 231 224 218 218 219 220 221 222 222 225 225 224 221 220 218 211 193 198 217 188 195 143 203 165 216 217 217 207 206 206 227 232 223 254 237
234 240 222 229 232 222 228 169 180 225 239 238 249 258 257 183 232 226 226 229 232 234 236 233 230 229 228 225 225 218 213 210 213 215 212 206 203 206 205 207 220 215 211 211 215 226 223 242 240
230 236 238 230 228 227 233 235 233 216 244 283 289 283 97 264 222 259 261 257 252 236 239 240 232 228 231 231 232 230 218 215 216 231 218 208 213 205 211 209 219 214 220 207 224 229 223 241 238
230 234 230 228 231 232 243 246 239 273 258 131 264 261 254 251 250 250 233 123 229 181 238 240 241 241 234 230 229 229 223 216 212 213 214 212 204 216 214 203 216 212 219 223 222 219 220 228 238
238 229 241 239 238 240 248 271 260 255 216 117 151 244 244 186 244 245 190 242 97 208 117 196 199 253 254 254 253 249 187 228 221 216 212 219 210 212 207 213 215 219 219 222 218 221 212 221 238
228 231 236 246 270 268 249 238 236 231 230 233 242 243 219 104 266 272 153 106 265 124 225 281 268 128 173 262 249 241 249 234 159 214 212 211 228 222 218 217 217 220 217 218 207 222 209 230 232
257 264 267 254 249 237 229 228 227 229 222 222 247 245 164 246 96 94 312 310 304 310 312 304 315 129 125 130 299 290 296 268 249 243 148 226 212 212 213 217 218 218 216 210 211 98 230 230 230

GFSSGP_2pvu_pres_021.txt.gz
Presure
146 123 145 150 129 137 120 115 116 138 133 129 148 128 142 122 144 122 140 141 102 137 121 151 131 131 137 148 137 130 137 131 147 141 142 145 137 148 151 158 156 119 132 135 136 136 134 127 136
137 157 121 131 123 101 139 128 146 112 128 147 123 136 111 148 123 139 132 108 99 140 144 151 121 126 128 133 153 136 121 143 138 134 135 141 142 144 155 156 138 140 144 137 143 146 141 141 154
148 158 158 142 129 138 119 129 133 142 119 143 138 130 119 89 144 112 127 147 143 143 131 142 140 143 143 136 132 120 129 125 131 134 135 125 118 113 122 127 125 139 154 139 149 156 147 145 139
164 147 157 141 141 140 155 148 135 157 154 146 96 111 112 120 123 132 141 140 159 153 123 110 116 114 157 154 135 136 136 140 117 132 131 129 126 126 136 109 135 114 137 131 138 138 152 137 140
161 159 160 133 155 149 144 125 148 147 157 86 138 129 150 138 132 127 126 105 115 111 149 102 128 110 131 130 152 118 144 149 143 108 153 129 116 136 136 105 128 136 138 141 135 130 143 96 142
165 166 163 152 142 166 159 117 154 151 121 140 93 150 144 133 135 134 152 134 128 125 106 151 143 144 143 149 156 144 146 144 146 163 94 144 143 141 121 157 142 143 132 133 150 108 159 78 140
172 160 165 169 172 132 109 140 158 138 136 110 144 155 85 97 139 107 149 153 89 118 131 131 126 149 149 149 140 149 132 133 166 152 170 109 147 132 142 159 154 148 151 126 147 155 124 149 138
193 174 176 159 162 175 176 169 164 155 159 145 141 105 142 115 142 152 96 98 108 123 158 142 151 151 138 132 119 115 137 128 133 136 159 119 160 143 166 163 169 102 106 168 177 151 113 147 128
189 182 171 176 181 180 176 169 169 168 161 152 153 88 116 114 111 151 121 143 150 133 137 150 166 115 159 151 143 141 144 125 155 134 143 162 169 154 170 159 163 99 162 170 164 160 157 146 151
185 182 173 183 186 188 186 179 174 146 164 164 164 113 86 163 157 139 145 161 150 160 148 167 155 156 102 154 115 131 167 150 157 161 159 125 174 156 171 163 159 99 128 155 167 168 170 149 170
188 159 174 181 187 194 188 174 174 149 136 174 170 168 168 154 158 159 162 109 145 145 165 142 127 144 145 166 156 162 154 163 142 150 163 148 159 178 172 180 176 169 173 166 167 165 170 181 170
194 180 165 168 181 180 185 190 195 180 147 152 181 188 190 188 184 131 115 102 177 162 175 147 146 153 152 153 154 155 151 152 157 180 178 177 175 169 175 180 177 160 167 114 190 108 172 153 186
204 186 179 171 178 177 182 126 182 178 185 190 174 176 183 184 187 188 163 178 178 169 139 156 154 163 173 153 164 165 173 173 142 177 178 174 176 159 162 180 171 180 182 103 157 169 174 189 175
218 183 188 186 176 169 172 182 169 167 182 186 187 178 168 161 179 180 179 180 172 180 176 164 170 170 169 176 177 163 169 179 185 171 174 177 155 159 185 179 178 95 94 102 157 190 184 126 188
217 201 193 175 180 181 187 173 165 173 177 172 168 171 180 178 175 168 168 171 172 171 177 172 167 172 176 168 179 180 174 183 172 178 185 181 164 176 200 185 181 226 240 224 103 218 118 123 107
218 217 206 196 199 189 193 186 184 167 168 161 160 166 162 158 172 176 181 186 189 186 182 177 175 171 170 172 179 171 177 175 179 184 185 180 191 225 250 185 230 241 240 224 108 108 225 182 149
159 222 218 216 206 194 192 184 190 192 187 182 111 144 182 163 166 166 165 170 168 173 176 179 185 184 187 186 188 190 179 189 186 200 226 201 212 208 227 212 228 230 236 229 138 118 101 113 110
208 169 172 222 220 217 214 204 203 209 205 203 200 189 190 179 178 178 176 172 174 178 184 196 179 181 185 182 185 185 183 200 187 205 211 214 214 214 218 223 220 200 223 226 215 215 226 101 102
188 171 171 225 166 184 213 214 198 201 202 203 189 186 184 181 182 190 187 187 184 187 188 193 191 201 192 197 192 184 193 204 221 215 213 207 211 207 212 204 201 205 204 171 189 239 242 214 160
208 187 168 171 216 222 215 210 205 209 206 206 198 191 197 187 183 188 197 188 185 192 201 199 197 198 199 199 203 207 211 212 213 204 204 220 218 218 209 220 227 226 217 221 222 221 143 225 226
213 203 191 208 176 176 218 214 210 203 209 208 206 206 206 209 211 211 210 205 198 200 201 208 204 205 212 212 214 210 208 209 212 207 201 205 218 212 216 209 213 212 215 213 212 209 205 208 216
198 211 197 180 227 188 187 184 181 189 207 210 211 211 210 201 203 205 208 210 211 209 211 209 70 216 215 216 212 208 214 202 209 202 209 203 206 194 203 201 198 198 202 205 202 227 217 214 212
230 194 199 204 197 229 205 193 209 199 201 203 189 196 202 200 196 198 208 211 212 208 208 218 219 213 151 211 220 212 200 203 220 221 219 206 219 214 203 201 214 213 184 197 192 202 213 226 228
246 233 234 237 200 195 208 194 183 192 226 209 205 200 202 205 207 210 211 213 214 211 214 217 216 216 219 219 218 215 214 209 212 204 210 215 205 215 198 124 191 200 207 187 193 206 216 213 210
234 229 233 239 220 211 226 238 128 213 224 226 227 231 233 234 236 229 227 234 229 232 237 224 226 225 224 221 219 220 220 223 222 224 226 205 217 202 210 202 194 206 211 205 207 205 211 214 213
240 231 229 232 238 209 210 229 89 239 229 226 239 238 240 242 241 242 239 249 258 255 227 232 259 258 255 237 240 237 232 225 226 232 222 231 213 204 103 197 207 206 210 216 213 207 211 212 214
247 244 231 227 241 227 238 234 235 197 232 118 235 231 222 225 220 254 275 289 285 283 277 250 274 271 261 253 246 239 240 259 254 245 233 240 224 215 218 206 207 205 193 198 207 208 214 208 207
232 235 233 239 233 229 227 232 241 249 235 233 236 237 189 184 205 265 260 258 256 258 260 108 244 259 261 264 264 265 264 263 259 247 243 233 237 222 222 212 213 106 206 207 199 212 209 215 215
253 239 229 238 241 239 231 229 236 239 233 237 233 216 153 205 253 252 252 253 199 258 96 117 156 234 238 117 123 128 165 170 253 249 242 238 237 234 231 222 220 213 210 205 214 219 221 218 216
253 255 254 250 252 251 233 231 230 181 222 260 256 97 245 252 255 192 251 254 260 270 105 286 273 276 274 135 263 202 142 126 129 215 255 132 229 231 236 236 230 211 221 204 202 205 199 208 214

GFSSGP_2pvu_pres_024.txt.gz
Presure
156 146 129 163 101 128 95 135 131 144 143 149 136 111 103 116 144 122 137 136 130 138 149 138 125 137 135 135 135 139 144 126 123 137 148 147 141 142 143 109 100 150 151 127 124 160 153 150 122
156 162 145 146 121 145 118 133 145 136 136 140 127 140 125 115 121 126 123 133 135 136 143 134 117 144 130 123 133 134 136 138 139 142 125 123 131 155 144 147 150 145 149 144 147 151 144 157 163
154 137 159 138 149 155 143 104 141 137 145 130 137 141 134 147 143 127 125 143 138 127 98 101 143 144 143 131 147 142 135 129 131 144 126 139 132 118 141 112 129 131 135 141 129 136 119 113 150
154 158 154 100 143 130 130 109 144 143 144 136 135 131 134 119 142 130 100 119 116 141 148 130 159 147 131 154 137 144 149 151 143 134 136 136 135 137 133 132 139 135 133 118 132 147 133 153 137
169 161 150 153 133 139 140 72 143 156 148 137 142 136 129 134 124 138 124 127 134 134 133 142 145 136 150 150 119 114 118 123 143 158 152 148 138 138 140 130 126 138 106 128 136 139 136 137 137
159 169 161 155 146 139 150 150 90 131 109 151 76 141 139 131 141 143 142 146 120 124 129 116 116 100 105 103 99 147 123 132 121 137 142 150 150 98 143 126 154 159 124 115 147 131 149 144 157
179 168 161 157 165 175 162 140 148 124 109 134 143 150 144 101 106 156 145 147 94 113 139 126 124 137 132 131 111 138 154 127 134 149 146 141 153 152 126 117 137 163 159 153 128 143 147 127 150
174 182 184 176 163 169 111 139 157 154 109 113 140 134 147 99 160 158 148 138 140 157 135 144 123 151 150 144 138 136 134 117 147 133 122 120 133 139 133 141 122 143 160 167 168 103 164 156 156
189 171 177 171 192 165 174 173 164 157 139 164 150 144 87 140 141 120 102 141 142 88 144 146 145 96 143 149 123 154 142 162 160 133 150 160 144 143 158 165 140 181 179 162 143 167 153 167 165
192 183 164 169 175 188 167 178 159 153 153 143 154 158 141 123 116 115 90 144 144 120 129 128 141 103 137 151 150 127 121 99 144 156 147 128 126 150 144 154 141 167 162 143 168 158 162 130 160
189 183 182 169 184 180 198 179 173 166 167 170 165 163 155 151 148 152 139 94 136 142 147 146 116 158 122 155 140 157 152 145 146 162 159 162 152 154 152 176 166 154 172 168 175 164 174 155 178
171 184 189 191 177 179 179 193 180 171 159 158 158 156 170 171 166 167 165 165 114 112 150 161 168 166 160 169 164 143 157 159 161 172 150 138 166 156 157 168 160 166 189 188 189 178 178 164 180
167 192 188 188 193 189 188 173 191 181 173 183 180 180 179 179 150 181 168 167 168 169 166 163 166 164 169 168 162 155 155 178 163 149 150 159 179 160 172 166 171 177 168 176 188 193 182 169 190
178 163 193 200 200 196 192 187 187 180 179 181 187 179 180 175 171 164 145 159 160 180 186 190 191 187 188 172 148 163 127 152 181 167 126 177 169 182 182 177 190 187 195 171 197 196 181 138 171
193 183 175 196 212 205 203 201 171 178 185 185 187 188 139 181 183 179 170 152 158 157 161 187 186 181 181 182 184 184 171 188 184 176 164 179 183 168 181 181 179 191 193 192 221 213 244 254 243
195 194 179 199 187 191 209 204 191 179 166 169 178 174 171 167 181 182 181 180 187 189 177 173 173 171 175 171 172 174 174 169 176 175 171 187 188 193 196 202 201 202 200 204 222 229 226 237 235
205 188 177 176 172 199 217 216 199 190 185 177 169 166 165 174 171 170 170 175 176 177 178 179 182 183 180 182 185 186 187 178 173 184 185 188 135 190 185 194 191 184 211 198 220 226 218 218 218
189 198 180 158 154 163 201 63 206 198 188 185 186 177 173 173 178 163 164 167 167 161 163 168 174 176 178 171 167 174 170 178 180 191 193 193 188 178 194 192 198 213 220 216 214 211 211 209 202
217 189 197 170 185 200 155 166 217 212 191 188 184 180 178 177 180 184 188 172 172 186 174 179 188 174 173 172 179 186 185 190 188 183 184 187 190 195 196 211 218 206 232 209 225 221 215 223 226
236 202 188 186 150 180 194 206 207 207 204 201 199 201 199 196 191 184 190 194 198 199 202 205 202 202 196 190 194 191 192 183 195 201 199 202 198 212 220 212 214 206 209 206 204 210 216 219 218
236 217 196 213 190 167 222 167 165 205 196 218 217 216 212 208 208 211 213 215 213 208 203 191 192 193 203 133 204 211 215 204 197 206 215 206 209 204 209 198 206 217 207 207 206 209 205 201 203
235 220 213 201 185 185 202 203 156 171 187 210 207 206 193 209 217 217 214 209 211 213 205 201 200 202 207 215 210 205 205 208 211 212 214 210 208 213 209 211 210 198 222 205 215 217 216 212 216
239 220 223 200 195 180 216 173 178 190 176 169 174 216 214 218 215 213 214 213 215 215 211 213 214 215 215 211 207 210 212 212 210 206 214 212 211 211 209 193 204 192 206 194 207 207 203 214 200
250 234 216 187 197 183 191 222 203 203 187 206 199 192 202 207 215 201 196 193 196 207 208 202 201 202 204 207 212 215 218 212 210 211 215 129 215 216 204 204 203 197 205 180 215 211 196 198 211
245 245 241 219 202 196 195 187 204 199 201 211 188 204 212 202 194 183 201 201 199 198 202 209 208 206 209 211 217 216 217 218 218 216 219 219 219 215 213 209 206 203 213 217 215 204 210 202 223
251 249 238 237 236 234 215 233 185 118 197 198 200 202 236 228 223 223 204 228 232 231 232 239 243 244 242 242 245 249 241 256 254 247 236 229 251 248 231 226 225 223 211 207 212 214 214 215 200
246 226 227 228 240 242 235 230 230 229 233 238 236 222 231 240 243 247 246 253 249 240 243 248 251 250 249 248 251 263 264 263 253 262 253 243 241 244 248 245 234 236 230 233 232 227 227 208 207
237 234 240 249 249 227 218 240 238 217 190 237 232 229 227 214 217 237 249 247 245 242 246 251 269 268 295 286 103 133 216 125 279 289 279 260 254 248 244 229 229 230 234 235 225 220 219 209 205
239 238 228 231 235 236 242 241 236 231 231 244 246 239 234 236 241 119 101 205 263 276 278 270 264 267 269 270 256 163 262 263 213 261 256 137 217 144 245 245 245 243 241 238 227 229 221 219 213
242 237 235 231 235 243 242 246 249 242 239 238 240 259 237 246 243 249 107 93 252 257 267 276 302 300 307 284 276 216 269 267 261 264 117 228 194 243 243 240 242 240 233 232 231 230 224 225 219

GFSSGP_2pvu_pres_027.txt.gz
Presure
142 158 135 150 116 145 139 132 148 135 127 115 130 121 130 135 146 128 149 124 120 116 110 121 129 146 134 126 151 140 139 143 133 148 144 147 141 129 128 149 147 150 152 153 155 125 151 157 129
149 146 147 141 85 148 136 138 143 132 138 130 107 130 141 128 128 136 143 115 134 154 111 143 150 141 135 141 137 145 132 126 131 138 143 142 137 142 144 142 146 148 158 154 150 149 126 148 140
156 150 161 146 141 144 136 130 147 141 139 140 126 86 100 95 141 134 121 143 93 145 126 130 125 107 111 156 143 134 131 133 138 138 138 128 135 137 147 140 137 137 135 133 140 131 133 148 143
159 153 143 142 134 131 148 136 90 89 140 127 141 132 148 141 149 143 84 125 127 129 128 127 126 134 151 105 139 147 148 148 141 135 158 139 133 126 125 130 145 160 159 141 110 123 142 142 147
161 160 151 140 131 134 148 144 93 113 105 142 138 144 137 135 132 136 128 134 138 133 125 140 134 117 138 146 123 128 136 143 146 134 121 149 118 147 152 127 136 133 150 96 147 134 148 156 150
175 158 154 147 136 138 147 150 135 86 126 152 119 135 139 144 139 136 133 110 78 134 129 133 122 131 139 116 125 128 146 121 136 148 161 158 149 119 141 140 114 104 151 155 156 146 142 103 152
158 175 154 160 152 65 147 144 166 145 85 92 126 143 145 145 133 145 146 140 134 131 148 130 112 136 124 126 132 109 131 109 135 134 113 120 123 134 136 154 151 124 128 139 120 140 151 144 142
174 181 172 153 162 162 61 145 141 140 151 84 93 127 137 129 144 142 142 144 143 140 135 137 142 154 132 91 131 136 144 131 142 136 144 143 147 144 157 145 151 148 145 141 144 139 136 149 178
189 178 172 162 159 172 165 110 153 156 148 148 141 124 136 148 136 138 149 151 147 148 145 142 158 152 147 146 142 157 139 137 132 145 151 163 156 141 169 159 159 155 144 147 124 143 132 148 162
163 186 169 175 171 175 172 175 163 163 141 142 135 135 138 152 137 123 117 93 135 142 144 144 143 159 155 138 143 150 104 109 142 147 135 153 151 164 147 153 155 168 163 162 154 156 153 164 132
164 180 180 168 184 181 173 162 157 157 166 165 162 157 147 95 143 141 149 138 95 91 93 98 83 163 161 140 95 105 145 134 158 148 148 143 152 103 106 157 102 117 166 148 147 151 171 156 177
191 143 178 190 187 184 185 172 168 168 163 167 160 159 161 144 139 152 144 141 150 144 103 144 94 148 146 140 144 145 145 149 137 142 154 142 171 159 156 151 163 154 133 168 154 177 185 174 186
203 168 157 182 179 182 180 179 176 167 177 179 179 175 161 161 171 165 157 155 142 156 159 150 147 132 170 147 98 145 152 155 168 168 168 145 181 182 185 161 176 151 188 185 176 182 189 185 174
189 186 170 186 189 189 193 178 177 159 177 175 171 190 180 179 177 170 167 167 166 169 173 163 170 172 153 165 129 168 169 168 171 185 196 193 145 176 150 176 177 180 186 186 178 180 188 182 199
211 215 180 175 181 174 185 192 185 104 168 170 172 178 178 191 178 170 173 167 165 167 171 174 173 180 144 88 180 156 185 179 159 180 184 175 187 192 186 185 184 178 188 186 194 194 204 194 204
191 202 202 180 176 180 162 177 187 188 184 181 170 170 171 154 86 190 180 176 177 181 186 182 182 178 176 172 162 160 160 168 167 169 173 181 185 158 183 191 194 185 178 187 202 203 197 200 195
201 190 208 187 177 208 193 191 183 186 186 191 189 190 180 180 170 177 190 186 181 184 192 190 190 190 193 193 191 190 189 186 185 185 188 187 183 184 187 177 172 177 183 188 198 196 196 211 216
202 176 187 190 186 181 205 222 161 191 186 190 193 197 196 187 170 178 184 181 182 184 186 184 180 181 181 180 176 177 175 179 165 164 165 179 174 172 173 173 178 185 187 201 195 206 212 208 208
201 210 210 203 146 197 148 172 215 211 199 180 194 207 206 202 201 188 178 172 169 171 178 179 169 168 179 178 173 174 171 170 172 182 178 189 197 183 189 191 192 214 194 205 206 198 206 214 219
213 202 203 213 188 199 184 172 186 212 169 161 177 188 188 204 217 211 187 183 183 184 181 180 180 182 186 188 193 194 193 195 204 208 210 203 199 191 199 208 213 207 202 204 207 208 209 211 217
187 209 203 212 219 244 200 171 180 187 170 193 162 199 191 189 210 214 210 194 190 190 187 183 182 186 179 197 151 143 211 214 211 206 209 204 202 203 210 212 206 204 204 209 197 204 211 215 213
237 226 224 211 207 205 212 196 189 181 187 176 182 205 188 217 219 225 224 221 203 201 200 199 198 195 200 209 213 214 211 202 203 210 206 208 211 210 211 202 200 198 204 206 207 209 216 213 210
219 236 214 213 217 201 199 199 202 191 180 172 175 153 191 181 204 160 163 162 166 193 219 219 216 220 211 219 216 216 99 219 217 211 214 216 209 204 205 206 205 212 208 203 181 203 202 201 200
247 241 242 212 207 206 201 199 200 175 195 188 151 175 215 176 168 171 167 168 169 165 206 227 225 221 222 223 222 222 214 210 209 206 205 209 211 211 211 210 204 203 203 209 203 202 202 207 204
254 241 235 240 237 219 212 193 230 217 216 190 185 184 215 218 202 198 214 199 194 212 206 209 211 208 208 213 206 205 212 213 213 211 213 212 210 205 212 215 213 210 212 211 210 216 215 212 220
252 253 244 240 236 231 237 231 229 215 203 203 202 188 188 195 202 216 219 206 201 206 215 216 218 220 218 221 226 222 207 207 208 212 219 224 226 217 223 230 231 231 227 230 233 228 243 226 235
253 261 231 234 238 236 242 243 232 225 210 222 199 194 193 188 186 186 189 212 206 196 239 229 226 221 212 257 259 255 254 254 252 250 228 245 242 237 236 235 239 237 233 230 230 228 227 219 221
250 253 251 235 244 247 250 242 236 224 183 203 86 206 211 213 217 241 245 247 246 247 247 243 237 243 256 261 278 279 280 277 236 264 263 268 259 254 184 208 263 259 254 250 243 227 233 228 227
256 249 254 257 221 244 247 244 240 243 236 189 230 238 238 233 236 237 240 241 253 266 265 148 232 274 274 270 268 269 273 280 282 278 273 270 220 199 216 256 177 121 227 173 254 133 234 237 235
253 262 250 246 250 247 250 241 239 232 226 224 241 239 233 217 236 254 252 107 274 272 150 264 148 267 113 298 108 279 349 344 333 315 305 313 277 267 260 253 125 133 238 240 127 253 246 140 229

GFSSGP_2pvu_pres_030.txt.gz
Presure
77 76 76 81 82 79 126 140 146 135 88 85 127 134 126 122 115 104 144 110 118 106 118 135 119 140 134 140 139 142 132 144 155 139 144 151 142 140 137 150 147 136 147 143 147 144 132 144 149
160 132 159 143 151 115 135 149 138 127 139 135 108 92 129 130 137 138 141 140 147 140 141 143 128 122 124 135 134 138 141 148 137 134 143 141 133 138 144 151 140 149 142 140 149 138 141 137 141
168 153 148 147 144 139 105 140 151 129 144 140 128 133 135 139 135 137 123 129 133 128 143 140 132 133 122 139 141 143 136 142 135 134 137 131 130 133 132 133 129 121 117 134 126 142 131 134 130
150 171 151 140 146 152 144 129 138 128 122 141 146 121 106 131 129 121 126 123 125 93 136 106 117 120 123 133 122 146 137 143 139 157 143 135 131 134 139 139 114 148 131 142 125 155 117 161 157
166 159 167 153 140 139 157 147 128 148 131 126 122 142 141 142 115 128 139 134 145 133 139 104 150 139 133 143 132 122 132 143 133 125 121 144 142 150 151 146 149 146 139 125 144 139 129 151 126
165 167 153 156 152 146 145 155 140 137 147 125 127 129 129 140 137 138 99 137 111 126 123 149 129 134 125 135 134 132 135 131 135 124 126 125 131 137 131 132 136 144 142 145 130 149 123 123 128
179 159 154 153 159 167 147 147 164 143 145 139 148 142 141 131 135 140 135 140 141 147 146 103 102 122 92 145 140 141 137 129 119 129 133 135 141 139 129 139 137 144 140 143 145 152 144 120 157
180 173 166 154 162 149 160 151 150 161 138 109 137 145 151 152 141 119 134 133 135 140 143 141 143 142 142 126 131 102 96 96 94 141 96 134 140 146 147 133 141 151 145 158 166 153 144 149 159
175 143 163 160 159 162 157 157 148 146 135 140 135 139 84 111 142 143 143 132 143 137 140 142 145 146 145 144 129 141 134 143 148 151 148 148 141 149 145 144 133 147 144 144 146 149 164 143 152
180 193 148 164 166 164 161 159 152 152 147 141 102 139 135 141 118 134 148 151 134 136 132 140 151 150 145 140 145 149 147 141 145 157 156 144 139 152 149 146 148 154 149 151 142 146 152 150 157
184 155 164 143 172 174 169 168 158 153 150 151 146 141 80 157 161 100 147 139 96 146 128 145 139 116 97 140 140 135 153 154 143 146 163 157 127 140 141 162 153 149 146 138 145 161 152 159 151
198 185 191 178 154 153 177 170 168 165 157 157 153 148 151 143 142 143 144 108 91 142 137 90 96 138 95 145 141 148 142 157 137 97 150 102 103 148 150 143 150 150 154 171 194 189 193 190 181
195 193 179 191 145 162 152 182 170 166 173 163 158 160 159 151 152 152 147 152 140 122 132 139 143 146 139 84 114 99 95 99 127 136 101 167 159 148 149 151 164 173 174 152 191 192 145 170 187
186 198 172 183 178 185 178 180 179 178 177 175 170 163 165 170 167 165 161 158 166 150 143 143 145 139 139 146 148 139 149 150 88 157 161 172 172 172 186 187 150 170 164 179 172 170 185 173 178
179 189 196 174 193 182 169 139 140 181 176 178 174 169 168 160 164 170 163 161 164 166 169 164 163 162 168 168 159 163 167 84 162 164 171 145 183 165 162 157 158 165 206 190 184 189 185 188 187
181 177 193 190 175 196 187 145 182 155 181 175 174 178 178 171 169 170 171 172 172 179 180 181 180 181 180 179 171 167 166 171 177 182 185 183 181 178 193 192 189 187 184 186 176 171 173 170 174
190 186 172 175 183 190 183 150 134 154 179 180 175 181 180 179 177 175 176 174 183 173 171 172 172 188 186 182 180 180 179 177 192 192 190 189 189 188 183 178 175 168 173 168 168 178 190 184 192
182 182 186 175 176 178 191 174 174 188 189 190 186 184 175 175 180 179 177 172 170 173 172 173 177 174 173 180 192 194 189 184 190 191 187 180 178 174 164 171 172 165 166 204 204 210 194 193 203
212 212 207 190 185 187 217 203 187 176 180 192 186 189 189 187 187 187 186 181 180 183 183 183 182 183 186 181 187 189 162 190 186 179 187 174 178 186 184 187 192 195 216 208 208 196 196 198 194
229 214 212 217 196 179 198 185 194 195 193 192 176 184 186 189 181 182 186 181 179 188 192 193 197 199 197 199 186 183 183 183 183 181 183 186 185 190 203 195 206 217 210 203 210 202 202 201 211
216 221 212 217 213 211 171 189 211 196 188 179 174 178 196 166 158 179 187 186 183 187 188 190 202 199 204 213 204 192 194 197 193 189 191 198 200 198 211 216 216 207 205 213 211 208 213 206 200
252 214 210 212 217 207 212 175 183 185 206 206 186 180 179 207 228 189 205 168 194 187 181 184 183 193 207 215 216 210 192 195 202 204 202 215 220 222 216 218 214 211 217 214 213 208 201 205 196
269 246 213 210 209 213 211 207 177 178 186 201 188 186 188 179 177 173 166 220 216 195 161 207 188 227 221 220 163 166 216 213 216 224 226 222 221 222 220 214 214 211 209 203 196 204 203 212 200
262 255 234 213 209 202 208 211 211 208 187 191 187 188 193 199 176 164 188 163 180 183 195 220 210 153 177 180 204 167 163 162 217 224 223 216 215 213 211 195 200 206 202 201 201 199 197 194 191
265 270 260 227 215 208 201 212 209 215 208 244 220 202 189 224 189 198 189 162 144 150 196 221 169 224 222 175 223 219 209 215 214 214 214 211 200 200 206 206 207 210 211 207 204 204 207 209 213
268 258 273 224 241 218 206 201 204 200 205 203 203 208 210 211 211 173 189 153 152 171 186 188 221 223 210 219 220 222 220 214 211 220 223 224 219 208 208 229 123 215 223 232 232 222 220 214 218
262 259 266 262 230 237 223 209 207 204 189 214 216 215 208 204 207 206 208 208 215 217 203 201 192 191 211 209 214 217 228 230 249 258 253 250 250 243 237 229 169 240 247 248 243 238 236 233 170
263 262 264 265 261 245 232 229 221 218 217 211 211 209 208 207 202 200 203 212 229 210 202 211 208 219 227 220 233 249 252 270 290 288 290 290 290 205 261 253 257 253 197 244 238 230 225 224 183
267 262 259 256 251 250 238 219 242 225 213 212 212 212 132 167 219 229 233 238 228 222 215 233 248 259 256 261 278 279 282 176 292 297 303 165 307 293 280 271 267 263 262 257 233 239 156 148 187
272 270 246 254 258 247 252 245 238 238 240 240 241 183 184 243 243 241 237 229 227 229 250 256 246 273 134 276 272 180 277 265 278 247 265 360 380 351 344 344 304 282 253 244 249 249 248 250 250

GFSSGP_2pvu_pres_033.txt.gz
Presure
94 163 121 109 84 81 79 95 93 128 112 140 127 149 125 139 125 124 143 142 109 132 124 103 135 112 133 146 142 121 148 141 155 142 142 133 122 122 125 143 150 152 145 138 147 134 146 136 137
162 141 110 92 82 115 141 88 80 143 142 138 107 133 145 141 135 137 133 133 131 135 138 132 105 132 150 130 114 143 140 135 134 136 136 142 140 146 132 144 132 130 138 136 140 127 141 137 132
171 168 143 146 146 87 85 76 84 96 98 137 137 140 128 112 128 141 134 131 122 105 135 129 143 132 140 135 141 141 139 130 131 120 145 142 138 134 138 143 146 136 128 90 124 130 131 109 127
152 167 168 160 145 100 112 69 154 146 140 129 133 143 126 126 140 134 122 137 130 139 128 98 150 121 142 147 147 112 120 123 142 121 110 118 133 133 118 158 126 123 148 150 119 151 143 160 159
159 158 166 164 141 143 152 149 137 137 140 137 139 109 131 125 133 121 142 140 138 111 125 134 138 120 109 148 125 147 132 127 104 144 126 121 135 136 155 139 114 126 137 145 130 146 138 139 131
158 172 159 161 156 154 147 143 149 143 155 127 117 133 140 144 142 148 131 131 134 138 126 129 102 129 134 129 137 130 138 140 115 138 117 132 136 125 113 135 132 119 146 140 130 136 145 142 150
134 166 162 154 169 163 156 138 139 135 145 150 130 135 142 124 132 141 141 144 132 106 134 133 119 97 128 105 130 138 134 125 125 137 137 144 123 133 135 142 144 121 143 141 147 150 146 134 142
192 140 169 158 156 167 153 150 149 154 133 155 140 122 131 141 148 130 134 132 133 107 142 128 133 137 149 143 136 151 152 135 131 129 118 132 136 135 142 104 111 155 158 138 147 144 139 137 145
173 181 140 165 157 166 162 165 149 152 165 144 142 142 111 126 151 134 115 132 135 137 134 133 139 133 134 132 139 142 113 143 141 118 143 148 117 144 145 101 140 152 160 149 137 138 140 160 160
197 182 174 157 165 159 168 157 163 152 142 148 145 147 140 138 138 118 125 119 147 147 146 150 140 146 132 137 139 139 149 150 150 145 145 150 148 146 118 151 147 142 149 159 133 149 152 87 149
146 186 165 185 167 166 161 162 162 158 164 141 144 145 154 146 159 139 140 140 146 142 112 142 139 144 149 148 135 136 137 148 137 140 109 139 139 150 150 146 157 155 137 143 152 152 146 149 147
198 179 189 151 176 174 166 144 156 157 158 152 160 158 103 149 156 137 139 136 140 138 141 84 141 136 136 143 96 154 143 134 100 146 143 146 149 143 148 143 122 155 148 119 152 150 136 149 179
176 174 184 183 160 169 185 167 165 158 154 157 160 147 156 145 143 89 142 144 144 146 147 73 112 142 136 147 120 149 145 138 94 144 146 97 152 98 120 119 95 119 125 169 169 171 138 175 173
180 159 169 185 192 193 159 185 173 163 160 156 156 158 156 156 151 149 130 142 142 88 141 157 142 160 159 144 154 142 143 122 140 144 142 141 133 154 149 144 143 167 161 173 176 183 183 169 196
200 173 171 169 198 194 173 156 180 150 167 166 162 155 155 158 159 154 153 154 157 149 145 145 144 146 146 150 145 152 153 150 149 154 162 168 144 170 176 174 169 170 177 177 194 189 196 193 187
207 204 177 184 199 195 192 186 160 180 156 164 166 162 163 162 161 167 164 165 159 157 157 159 161 163 170 169 167 164 163 170 175 181 183 96 183 182 181 181 182 183 180 195 192 190 180 177 174
219 203 187 171 181 193 182 184 196 170 185 181 141 152 169 177 175 169 167 165 172 174 168 164 164 163 164 170 169 171 175 176 131 174 174 177 189 181 186 191 198 192 187 193 186 174 172 172 177
228 209 198 193 168 170 197 173 168 195 195 189 180 157 171 177 180 181 179 175 175 173 174 173 172 174 174 173 171 176 175 176 174 171 172 178 177 179 186 185 191 183 189 172 177 178 180 183 196
232 221 206 200 195 175 171 185 174 171 177 192 190 184 184 181 169 172 179 179 179 178 173 174 177 175 175 172 172 179 181 176 178 181 184 188 190 192 190 189 182 184 187 190 187 185 193 201 214
237 230 207 210 198 202 184 180 168 191 169 178 182 178 150 175 175 177 176 179 180 180 178 178 181 185 182 181 182 186 186 187 190 197 199 200 211 210 216 216 206 194 195 191 199 202 214 216 207
257 233 225 209 203 199 186 176 173 192 192 188 178 174 177 175 172 178 179 176 186 186 183 177 173 173 189 193 186 194 189 183 186 197 198 199 208 211 223 228 223 221 219 211 214 223 223 221 214
253 248 232 220 209 213 199 207 206 174 166 166 169 179 190 190 177 165 158 179 187 189 188 186 189 190 177 192 196 193 197 195 206 181 202 231 232 229 183 221 219 220 223 217 226 229 225 221 216
254 256 244 230 214 106 213 196 178 175 179 205 206 199 177 182 186 187 180 184 175 176 191 187 187 195 189 165 163 194 226 173 212 207 228 158 178 180 183 175 172 167 197 202 219 205 210 214 210
296 239 243 237 223 216 215 212 192 188 185 178 178 183 183 215 193 174 193 182 186 176 184 177 182 174 177 163 203 163 207 180 181 188 179 221 234 228 203 212 222 226 223 212 210 210 202 196 201
298 279 243 246 231 221 215 213 211 152 160 196 193 184 181 170 179 200 215 210 208 206 199 193 191 180 163 173 194 178 154 176 189 190 168 211 207 199 199 193 192 204 205 208 215 222 214 150 219
288 285 266 259 249 222 213 212 214 219 221 220 216 206 214 214 189 174 174 178 180 187 187 187 192 192 194 186 154 167 177 180 163 190 212 181 198 218 223 222 234 263 255 253 252 251 248 244 238
289 281 276 279 256 243 217 211 215 214 215 211 215 219 217 200 204 235 200 203 199 188 190 183 188 239 152 226 213 211 221 216 232 227 226 222 242 257 256 262 254 256 260 259 157 126 251 243 235
306 282 279 278 271 247 260 225 217 211 210 213 212 214 209 209 211 210 230 215 207 206 206 201 231 218 213 219 213 222 204 236 247 242 266 257 277 292 290 294 292 293 285 272 274 271 252 250 250
305 300 299 271 267 261 259 236 240 225 220 212 213 211 212 207 208 223 202 213 218 213 225 219 190 205 198 220 225 215 201 244 257 284 293 312 326 306 283 278 269 340 283 309 275 314 279 262 253
295 286 276 276 272 262 267 265 242 234 227 225 216 209 206 203 219 209 211 210 214 204 214 221 208 221 222 259 252 260 256 298 272 268 269 253 259 240 255 355 401 250 343 335 285 311 295 321 270

GFSSGP_2pvu_pres_036.txt.gz
Presure
75 79 80 73 91 82 79 144 81 128 87 120 120 142 135 145 133 133 140 142 134 132 129 129 111 143 131 131 138 136 138 156 148 129 136 144 145 124 139 133 143 150 135 145 129 141 145 134 125
130 142 83 112 82 83 88 85 78 90 113 80 95 138 140 122 137 143 142 134 138 139 131 114 131 129 121 127 126 145 141 134 140 133 135 132 133 137 135 141 141 134 145 138 141 139 132 125 133
165 171 139 83 88 88 92 128 86 127 76 79 105 103 131 80 135 128 130 136 138 129 129 136 107 116 131 131 114 124 145 137 128 139 137 136 126 141 149 132 143 129 127 131 130 124 135 134 131
136 171 164 157 138 146 83 126 84 76 81 81 86 146 104 133 84 131 140 127 133 141 135 125 141 135 141 103 132 141 125 130 134 143 141 139 116 130 140 137 112 120 131 132 135 148 132 130 140
178 153 172 161 162 146 133 113 84 78 100 79 129 134 142 137 124 86 115 149 134 137 138 128 133 122 137 148 143 149 125 117 142 143 134 149 145 142 131 123 136 125 122 105 144 152 108 126 121
184 128 167 167 162 154 139 148 142 144 110 89 90 135 137 148 145 134 78 92 131 144 140 131 128 125 124 124 130 137 127 119 147 136 135 136 115 116 122 122 137 135 148 125 142 137 146 154 156
181 160 151 157 168 169 166 144 143 147 150 140 140 125 105 143 139 135 144 141 131 91 125 133 142 114 120 133 104 105 140 131 129 140 128 115 110 109 118 150 136 131 133 133 139 143 141 143 150
171 187 142 159 154 169 168 149 142 150 142 149 140 115 108 135 139 141 143 130 137 109 140 147 155 127 124 124 132 130 132 97 106 139 107 140 122 150 122 123 131 146 144 139 153 153 155 149 144
180 194 177 145 174 159 172 158 146 140 147 146 143 149 140 137 135 134 117 147 131 128 141 78 78 123 142 137 139 136 138 101 134 132 133 139 140 135 100 151 148 151 155 146 147 149 147 143 151
177 197 167 178 128 155 165 171 166 151 145 142 155 149 143 133 147 149 136 132 129 136 144 146 134 122 131 139 125 127 131 136 138 142 135 140 142 139 141 154 151 147 142 145 144 145 143 152 145
157 177 176 170 168 150 172 160 168 167 155 147 144 140 132 146 146 145 150 138 138 140 135 83 148 104 145 142 147 151 149 151 156 145 150 143 141 142 152 143 135 140 150 151 151 150 148 149 156
174 164 181 173 195 173 147 158 158 158 170 158 164 151 115 141 142 143 143 149 141 119 143 123 142 145 151 136 136 148 89 140 135 111 140 134 158 87 150 148 140 144 145 140 139 103 97 99 139
186 190 161 191 181 187 171 135 170 160 155 167 167 144 145 152 153 154 101 144 144 145 141 142 141 141 140 134 116 80 97 142 129 109 147 145 143 124 154 111 147 151 146 122 100 159 156 174 182
176 196 186 164 189 114 182 163 144 165 164 157 161 165 160 143 151 149 163 151 150 148 154 148 147 156 143 143 143 147 142 142 142 143 156 157 145 146 151 155 152 155 170 177 186 192 187 187 189
225 180 194 160 166 197 182 184 173 149 155 170 160 162 163 162 160 151 151 144 142 78 143 141 142 165 76 157 143 143 145 158 148 84 145 150 153 154 169 172 168 167 176 179 175 179 177 172 177
231 219 201 196 169 61 163 177 192 172 160 158 164 167 162 161 163 163 163 163 160 159 161 151 143 144 150 149 145 145 148 151 153 159 162 167 167 175 172 177 174 178 183 174 174 181 185 189 187
228 220 208 187 189 195 172 67 128 191 161 162 162 160 161 163 163 160 160 159 159 159 160 160 161 158 155 153 154 159 163 164 166 170 168 171 173 175 178 178 172 174 182 183 185 187 195 202 205
227 225 214 216 183 187 184 144 189 167 180 174 166 143 140 162 163 163 162 157 156 155 152 155 156 155 161 161 142 163 169 170 178 181 181 182 183 183 181 184 185 188 188 183 188 194 199 195 211
237 226 230 201 209 189 191 209 161 193 188 176 174 187 176 139 168 143 158 161 159 155 160 165 163 161 167 170 172 173 179 180 173 178 166 173 187 187 181 192 183 182 186 184 192 227 200 217 229
281 237 231 229 216 204 194 180 177 172 157 189 188 177 182 178 157 187 179 175 173 171 168 168 168 170 172 180 182 183 182 185 187 189 181 175 177 192 182 192 183 197 188 201 212 234 222 215 204
278 274 236 235 224 215 200 200 179 168 206 180 161 188 185 190 186 172 163 167 177 187 186 183 179 181 179 182 177 182 180 160 183 187 160 181 195 197 183 191 179 219 229 196 189 202 180 169 230
352 269 266 241 224 224 207 200 208 193 169 163 159 158 196 176 185 186 184 189 187 175 144 151 181 187 189 181 180 182 179 185 193 150 192 202 172 166 174 176 173 192 181 189 173 185 204 170 212
362 280 254 255 236 229 226 211 201 202 194 184 170 166 157 154 185 180 177 167 191 191 194 191 195 185 176 179 184 183 182 171 192 157 180 192 178 193 151 209 227 196 192 159 186 181 190 192 191
356 361 269 265 254 232 226 225 212 205 200 196 196 181 172 170 169 164 164 173 183 187 185 168 172 186 187 189 193 190 192 186 191 194 189 194 164 191 180 150 177 206 180 181 194 220 211 194 222
349 348 342 264 263 251 229 226 220 220 190 200 195 195 196 186 169 158 159 158 160 188 179 187 188 182 181 180 183 196 198 192 158 196 217 194 193 173 222 217 214 196 199 225 236 238 250 266 257
325 327 330 296 270 260 253 232 226 215 219 216 198 189 192 197 195 179 196 184 170 171 182 184 195 194 175 174 201 175 177 229 210 182 190 239 221 227 220 223 214 223 242 258 257 270 292 283 276
325 334 331 318 281 266 259 251 233 219 221 222 219 204 200 193 191 190 199 182 181 178 178 174 178 171 169 183 190 196 190 198 204 201 190 189 213 217 182 223 238 239 288 283 286 317 313 321 306
316 309 329 318 310 285 263 245 255 237 222 220 222 223 220 210 209 200 193 194 195 192 189 186 195 204 206 209 209 207 216 205 207 225 218 219 212 181 271 101 287 276 267 269 273 258 263 273 265
295 303 321 321 305 287 269 260 243 247 239 225 205 221 223 221 217 215 205 201 206 211 214 218 218 230 232 211 203 203 230 221 220 215 214 234 270 259 270 268 265 268 254 271 280 276 262 271 301
297 303 307 314 296 297 269 266 254 250 221 236 233 221 214 215 218 218 221 222 220 217 215 218 220 211 216 242 224 218 213 223 220 225 253 269 247 266 253 265 277 252 242 268 355 273 212 358 236

GFSSGP_2pvu_pres_042.txt.gz
Presure
78 160 168 135 152 79 69 89 73 141 134 96 131 144 148 144 95 136 96 126 141 130 116 97 123 83 165 171 119 132 134 134 124 149 135 165 128 138 139 133 138 131 142 137 135 131 142 108 133
133 83 186 79 73 147 130 146 140 119 104 109 131 120 143 143 147 140 133 148 139 137 116 98 122 126 116 117 157 138 107 108 134 127 125 159 122 136 129 136 134 136 148 129 137 129 148 125 130
182 127 84 176 87 83 155 150 149 98 147 158 147 123 133 141 145 137 141 145 159 139 143 149 128 122 116 124 145 104 106 140 142 134 115 119 136 136 149 129 143 138 141 130 145 128 139 126 126
153 138 186 91 150 80 111 80 76 81 146 142 129 145 133 84 82 106 145 81 86 91 126 147 127 142 101 99 133 134 134 103 127 134 110 113 150 141 118 135 128 124 140 148 133 132 122 119 131
152 202 146 176 167 102 83 84 84 83 95 76 75 81 91 82 81 88 74 141 95 155 140 141 144 146 146 145 138 134 133 133 122 110 126 134 132 123 128 128 125 124 130 132 136 137 133 136 141
182 157 142 174 176 139 87 87 116 110 81 87 79 83 107 78 79 130 129 106 139 144 109 90 133 137 140 135 140 142 117 145 135 121 128 128 140 135 124 139 128 134 132 131 128 121 105 121 113
148 159 172 182 139 177 148 91 102 88 87 83 83 78 79 76 76 76 94 127 135 148 94 133 141 106 135 135 133 135 142 138 142 143 135 119 127 125 96 132 147 132 138 138 138 136 136 143 143
184 144 158 174 179 183 151 161 160 114 148 148 76 65 81 82 81 83 119 123 92 127 125 132 132 106 134 83 140 135 134 143 120 123 106 124 123 144 144 133 113 117 131 133 145 125 110 127 154
145 152 146 164 182 92 140 152 159 148 157 144 149 116 143 101 87 88 114 123 129 135 122 137 125 137 134 138 120 119 138 137 142 134 142 140 141 142 135 133 131 134 100 136 144 152 152 142 149
170 185 174 194 160 152 172 167 160 172 155 153 150 141 160 144 138 125 105 134 132 93 139 78 139 138 131 117 111 113 147 134 133 130 136 145 140 144 139 144 146 146 152 146 149 142 141 145 130
174 112 181 112 206 188 179 173 135 161 154 156 137 163 148 144 142 140 132 145 153 143 136 138 140 117 133 136 147 140 131 145 140 138 135 139 135 139 129 144 139 139 134 142 145 154 146 150 150
187 176 160 179 139 180 187 167 140 174 140 158 147 137 149 140 134 145 144 141 145 125 117 127 122 127 131 145 133 134 134 131 132 130 134 136 136 131 140 130 141 135 133 151 168 85 168 154 116
179 194 176 189 171 192 149 186 170 139 175 160 159 140 145 144 145 137 145 142 121 149 141 144 146 129 127 130 89 137 140 143 131 144 143 143 147 86 120 145 105 151 160 107 153 150 154 155 117
195 169 184 178 210 164 194 149 178 138 164 160 166 150 147 145 148 160 138 152 142 145 145 146 151 148 146 149 139 141 142 140 140 142 143 141 146 143 83 145 146 147 75 152 150 154 160 172 162
204 228 177 190 185 206 164 191 181 175 172 171 169 131 152 166 139 150 150 161 159 141 135 136 141 139 140 142 139 135 137 142 141 142 142 147 150 145 150 142 151 154 160 165 164 158 172 164 167
212 195 200 193 185 182 205 154 196 191 171 163 142 171 165 161 154 150 155 148 156 139 151 147 149 142 142 141 143 147 151 141 143 145 145 145 157 159 154 149 160 159 164 161 167 170 170 175 180
225 219 199 187 195 179 201 193 178 206 184 174 160 169 168 166 148 159 160 152 152 158 150 143 142 145 147 148 145 144 150 150 144 147 152 153 152 150 156 159 158 165 157 162 165 157 174 172 191
232 215 208 197 190 153 184 209 174 211 191 182 170 160 166 170 161 158 114 161 159 153 151 149 143 148 150 151 151 153 146 159 158 149 151 154 157 156 160 159 159 163 171 165 171 176 151 198 156
265 226 212 196 205 87 194 183 194 168 189 181 175 168 171 165 173 167 163 170 166 162 163 159 154 153 159 159 160 159 153 155 159 156 157 160 161 160 162 155 171 168 167 154 176 190 191 197 158
306 229 220 214 199 224 198 190 186 167 166 119 189 183 184 178 162 153 170 159 166 155 165 170 168 164 167 166 165 165 164 166 167 166 162 160 160 160 170 167 163 167 169 178 189 156 155 151 170
296 287 250 219 215 216 207 194 189 182 181 169 170 175 187 171 173 175 161 167 170 166 165 168 165 160 160 160 158 158 158 161 163 161 145 169 172 149 159 168 152 150 167 172 161 185 197 181 182
340 308 277 243 222 222 222 204 197 193 187 171 160 109 154 158 180 180 171 178 162 167 177 165 164 161 155 142 146 157 162 159 161 135 149 145 162 172 179 140 181 159 185 174 173 195 185 166 174
323 342 310 260 235 237 232 238 213 173 199 198 180 177 165 154 153 149 176 176 174 179 179 170 164 164 170 169 166 153 164 173 167 157 158 169 166 158 155 167 199 160 173 161 162 177 196 209 199
304 328 273 307 247 246 243 241 240 235 209 194 188 188 178 185 176 166 153 155 184 173 160 155 187 178 173 172 172 172 174 172 158 160 154 173 180 181 161 199 161 195 191 202 178 193 191 211 222
282 305 316 326 329 245 249 250 229 235 239 243 205 188 188 194 161 168 193 178 155 154 153 153 151 163 179 173 176 153 159 178 183 182 186 153 153 151 161 173 185 188 198 200 196 211 218 240 239
276 289 308 321 346 315 235 237 222 239 238 238 241 238 194 192 183 187 166 166 169 183 186 181 175 175 153 149 148 147 178 182 161 152 152 154 168 191 156 191 180 192 199 189 211 203 241 239 230
289 276 311 324 317 321 356 311 257 234 234 242 240 234 238 245 198 189 187 189 185 180 178 181 176 174 178 185 182 160 154 159 157 166 182 183 179 191 193 197 198 197 207 205 211 246 230 161 233
275 280 298 303 315 315 320 401 292 254 254 263 258 248 247 234 235 227 210 205 182 181 185 188 187 181 180 170 187 188 188 185 184 185 188 172 189 193 195 197 205 204 210 231 249 228 232 237 285
272 301 221 297 308 306 289 308 341 335 261 249 252 262 259 259 257 247 239 234 227 215 195 193 192 192 191 189 189 189 193 186 201 194 199 194 198 198 199 206 167 228 252 242 240 227 242 281 261
334 320 245 344 300 321 336 279 294 357 305 273 257 258 252 256 257 257 257 255 235 225 220 217 213 203 202 199 200 198 198 195 191 197 198 203 197 207 248 259 250 253 234 240 229 251 279 263 252

GFSSGP_2pvu_pres_045.txt.gz
Presure
80 79 176 108 166 139 78 140 122 160 104 76 76 150 143 147 155 144 110 138 126 138 138 131 118 124 105 125 122 146 116 111 143 115 144 107 144 128 127 135 144 133 150 137 144 136 126 144 142
184 111 77 166 171 142 100 144 117 153 150 124 140 109 121 153 126 121 110 120 136 125 125 101 101 118 106 119 159 152 100 117 104 146 111 120 122 133 168 133 126 137 117 131 125 139 135 130 136
189 170 154 97 182 74 109 79 105 90 73 90 137 148 130 117 139 114 144 110 144 113 124 131 151 120 142 114 146 149 126 118 100 132 102 116 134 118 128 131 136 141 131 115 136 122 137 136 125
188 189 159 129 174 153 158 101 163 74 147 150 141 125 156 139 145 80 142 142 132 143 107 121 150 113 113 98 133 142 117 131 141 103 111 142 133 119 139 134 140 128 133 136 131 120 121 130 129
194 175 163 148 166 100 112 78 154 97 143 154 90 136 75 117 78 100 112 77 99 123 142 143 154 148 141 102 117 141 115 113 134 133 134 105 139 136 131 109 126 139 122 133 139 143 142 138 136
161 153 173 153 146 150 177 97 178 116 150 88 81 82 132 77 80 74 78 114 116 124 137 142 114 151 111 155 134 149 146 143 131 146 141 138 104 130 117 144 133 119 140 133 144 126 123 123 138
184 209 149 170 166 145 194 160 144 80 79 80 83 79 71 82 91 77 75 77 102 99 125 143 147 149 142 124 134 136 142 137 132 133 141 139 143 118 126 132 116 141 130 126 148 133 125 132 135
140 189 180 199 168 157 136 186 92 91 82 99 82 84 81 133 74 77 82 83 125 82 147 137 138 145 144 82 141 80 137 138 142 140 136 140 135 138 130 146 107 122 152 134 134 133 123 154 150
214 183 162 166 204 154 151 188 174 188 159 84 87 96 88 73 76 94 117 78 82 82 134 138 113 134 144 115 129 131 132 131 139 149 150 137 137 128 141 138 131 124 134 145 136 143 141 145 140
213 218 172 206 133 158 172 140 184 130 170 135 114 146 115 88 83 79 82 83 86 143 135 124 128 129 136 78 134 135 143 139 125 131 137 123 135 107 109 143 139 141 135 138 131 143 140 148 148
224 212 162 192 172 158 184 163 193 159 130 160 157 148 146 151 149 144 117 129 106 113 87 96 143 85 141 126 138 92 143 139 87 141 139 149 136 135 134 133 134 133 138 142 123 146 144 142 148
233 216 145 169 179 175 169 211 189 173 135 158 160 155 141 146 152 159 151 98 135 118 139 139 140 134 130 138 140 132 131 138 145 139 133 129 134 134 136 145 136 83 88 107 118 74 98 147 150
253 217 211 199 172 138 141 213 184 185 140 167 158 123 155 146 149 150 154 144 149 141 132 127 132 146 144 136 137 144 147 127 122 125 133 137 120 139 141 139 139 144 137 143 153 152 165 160 159
275 227 215 197 167 168 184 181 162 186 178 175 133 159 152 135 150 147 150 153 166 149 143 142 140 135 139 133 128 136 140 141 142 140 140 144 125 142 143 101 143 143 150 150 148 158 155 161 165
308 229 218 208 191 171 150 191 117 150 183 171 174 164 141 163 149 144 152 137 138 156 128 135 137 143 141 144 143 140 138 141 152 152 148 142 137 135 142 150 143 145 150 153 155 154 162 161 152
291 244 228 210 198 187 172 184 177 164 187 176 177 143 166 165 161 153 119 149 144 157 136 139 151 134 140 137 142 142 142 141 140 139 137 138 137 138 150 152 150 158 157 153 156 161 161 149 174
323 313 230 205 209 187 191 185 192 167 179 169 180 179 171 167 130 147 150 142 147 140 141 143 144 155 144 146 149 141 143 141 141 145 148 144 150 150 143 149 160 153 158 162 162 170 161 171 162
319 299 224 208 190 192 185 167 189 212 165 152 151 184 178 171 165 150 154 162 153 149 148 150 151 146 147 149 159 148 139 141 141 150 153 150 150 148 156 159 166 162 166 171 167 163 167 144 174
379 326 294 210 210 217 188 187 182 174 215 168 159 150 182 164 171 171 164 160 158 161 151 149 151 151 150 153 153 155 153 162 165 143 145 150 155 160 161 162 172 163 162 159 165 176 142 167 157
359 287 305 237 209 209 208 179 183 185 147 200 181 159 176 188 168 174 166 170 161 166 142 137 133 143 151 153 159 157 153 152 152 153 154 159 161 160 162 157 157 152 136 164 142 142 158 155 171
340 350 286 273 217 209 203 204 184 190 195 183 203 196 166 178 177 174 166 168 169 171 163 161 164 163 161 163 161 161 162 160 161 163 165 167 164 158 163 136 149 153 170 146 150 170 170 176 177
316 348 280 313 246 215 213 197 189 191 190 166 197 189 202 162 186 177 177 164 164 161 158 158 164 168 166 157 155 150 158 160 160 152 153 160 161 142 163 165 166 165 166 172 175 182 183 157 159
298 334 343 284 265 235 226 215 201 194 195 169 151 188 176 156 159 192 183 181 171 167 165 166 168 166 154 159 163 164 167 168 164 160 167 159 159 167 167 166 176 175 168 177 152 150 152 177 171
285 308 338 281 342 247 240 232 219 212 197 206 202 191 180 176 178 156 156 194 187 179 176 172 173 171 173 166 163 166 169 175 167 167 170 172 175 179 174 167 166 177 179 181 153 158 164 173 179
309 286 321 343 320 326 248 244 222 225 215 209 198 200 194 186 168 185 197 187 153 166 160 174 177 170 178 176 170 175 177 168 159 170 160 158 160 153 181 182 161 176 188 157 160 196 188 191 198
277 288 283 326 262 300 287 246 228 237 231 223 214 207 192 192 182 174 170 168 166 151 151 149 149 149 149 151 151 149 156 151 150 150 150 146 171 153 152 179 155 193 159 197 189 204 201 206 202
278 308 310 308 331 286 304 263 248 238 236 237 230 220 214 204 188 184 180 173 172 171 170 168 172 178 181 178 175 177 179 177 154 157 180 179 178 177 175 172 165 191 188 189 200 199 200 198 217
279 273 291 301 296 318 327 296 290 263 248 239 240 241 243 231 220 204 186 183 180 181 181 180 182 180 170 161 161 161 163 163 164 167 176 174 175 164 190 182 183 192 188 200 203 202 208 253 245
284 277 283 283 299 313 309 317 343 264 262 261 260 255 247 246 247 253 256 192 187 184 180 186 184 180 180 176 183 187 185 187 190 187 183 188 190 188 190 195 195 206 206 203 203 241 253 240 243
284 278 285 273 299 287 307 292 307 338 266 259 253 270 265 255 258 258 257 257 256 255 253 251 190 186 186 189 187 189 189 188 183 181 183 191 200 205 196 206 213 207 208 251 258 255 243 239 245

GFSSGP_2pvu_pres_048.txt.gz
Presure
197 74 160 83 169 160 113 76 124 128 143 146 82 72 141 149 136 104 131 93 97 155 122 99 141 134 131 131 113 141 116 119 123 125 126 122 129 125 105 164 120 119 133 137 132 128 124 134 144
191 119 184 114 100 155 161 157 146 115 150 94 112 143 146 149 152 153 122 122 116 138 128 132 124 114 104 101 103 105 140 124 145 158 116 126 116 125 127 112 132 138 132 129 147 123 127 119 121
179 196 197 133 157 165 126 139 164 161 92 79 80 96 136 149 156 118 123 119 149 118 126 141 128 124 138 109 119 139 119 107 146 160 118 103 134 105 142 139 124 118 146 103 122 142 127 114 127
190 196 196 194 169 125 132 106 66 172 143 75 73 157 140 149 141 109 144 121 152 151 143 136 148 90 137 133 136 110 97 120 147 142 99 140 125 156 149 103 113 137 137 107 132 138 125 128 148
135 199 184 185 184 148 93 179 66 90 135 153 76 88 144 140 128 112 104 151 150 138 121 90 100 126 125 134 137 127 108 111 110 152 129 99 139 131 108 139 116 137 137 141 135 128 114 137 144
213 168 198 170 179 186 176 93 150 177 167 88 122 125 144 149 102 98 108 151 80 99 78 129 142 124 118 124 124 134 120 112 100 132 135 100 114 133 141 143 116 146 138 117 118 125 126 139 108
227 188 213 177 181 169 179 94 177 151 160 80 78 101 139 146 74 75 86 76 77 77 150 144 84 94 131 144 142 143 139 153 132 122 146 144 144 140 147 143 135 141 146 126 146 102 137 118 149
222 180 182 205 188 182 169 169 80 173 174 162 151 82 81 70 147 72 99 75 72 79 78 145 149 146 146 83 148 150 138 142 142 135 140 129 149 138 149 148 133 135 126 139 140 137 117 136 136
226 209 183 199 190 193 179 176 158 125 144 177 108 131 82 78 82 80 105 78 78 120 81 83 83 148 146 142 93 140 149 137 135 142 136 136 135 139 134 129 123 131 137 129 140 136 143 139 132
213 201 173 214 190 164 157 178 184 148 162 137 179 173 133 81 80 83 135 75 78 78 82 84 88 142 143 110 137 143 144 147 133 136 132 121 143 134 140 141 140 127 136 134 133 139 143 145 147
175 197 207 164 195 214 195 134 173 157 152 173 175 173 175 82 83 70 80 76 95 85 83 84 109 94 130 134 140 127 86 135 138 106 136 140 136 120 131 139 134 128 131 126 142 144 82 152 80
227 245 198 183 204 182 184 194 170 181 151 133 169 185 185 149 145 90 124 141 83 86 89 140 131 148 148 144 124 135 140 145 142 143 143 134 133 135 132 113 126 133 136 140 85 132 141 125 144
219 225 235 206 217 212 167 187 186 169 162 148 170 167 185 140 151 148 150 150 149 146 147 137 135 137 140 148 150 149 151 136 131 139 135 128 129 131 132 136 141 143 145 146 138 140 151 150 147
260 268 250 130 213 240 213 179 237 129 161 165 185 179 153 129 174 157 155 150 153 150 144 152 143 139 129 124 123 121 122 142 145 126 130 134 137 143 143 142 149 152 141 142 137 148 144 149 161
269 271 255 223 257 248 229 208 183 115 193 159 165 182 186 147 143 157 148 159 148 139 152 151 151 154 152 146 142 142 147 140 140 137 145 148 137 141 148 144 142 141 141 152 154 153 151 158 163
271 272 258 148 228 245 246 211 190 188 165 160 161 155 141 193 143 164 137 151 148 155 136 137 152 152 150 140 140 139 139 143 143 142 142 142 142 141 146 147 150 153 154 144 151 151 152 161 160
275 270 261 307 311 253 247 220 187 187 178 110 169 165 187 184 179 172 143 163 160 159 156 143 135 135 145 140 160 151 134 137 141 142 142 146 146 144 144 149 146 143 144 156 149 153 163 149 167
271 266 306 292 300 265 247 225 207 198 180 185 161 170 149 150 185 175 154 158 144 160 161 154 142 144 144 145 148 149 149 142 153 143 148 148 147 145 153 150 159 161 162 167 157 164 160 165 162
290 364 350 289 302 268 254 234 207 217 185 175 167 169 179 151 191 181 170 173 165 127 142 157 160 151 142 142 147 144 152 149 147 152 156 161 157 157 159 152 150 152 159 163 162 140 149 139 164
295 325 357 322 279 278 282 239 209 188 199 193 169 156 175 204 155 114 153 172 173 165 159 133 129 151 159 153 155 149 154 149 150 144 151 155 151 154 160 160 161 163 163 167 136 163 158 165 171
293 296 372 334 293 288 272 246 217 217 209 198 178 178 168 202 194 177 181 169 179 169 163 167 163 161 165 141 148 149 148 140 140 151 149 157 158 145 141 141 152 158 157 136 162 170 172 168 173
310 303 324 373 325 285 289 245 226 212 212 208 197 154 164 175 158 163 178 174 176 173 177 168 164 158 169 169 159 161 158 159 165 161 163 161 162 157 164 162 153 149 152 168 170 163 172 161 172
318 279 313 365 289 304 300 262 229 215 207 211 204 191 175 169 178 216 160 158 180 175 177 171 169 159 166 154 155 166 158 161 161 156 157 156 151 157 161 168 158 165 170 167 165 176 177 172 153
315 302 269 332 354 314 305 308 244 219 216 201 191 202 189 185 164 165 216 176 157 153 156 184 179 170 164 161 164 159 158 156 158 160 161 161 164 167 167 165 173 160 172 165 154 154 178 162 179
283 306 296 319 348 349 289 311 279 233 219 210 200 210 205 200 156 187 166 185 195 189 153 167 172 179 177 170 169 169 166 166 163 163 167 168 168 168 173 178 155 154 155 152 164 178 169 177 187
266 300 285 288 304 317 361 294 280 272 235 213 209 205 212 205 203 179 179 174 168 165 172 152 161 164 168 176 177 173 170 174 175 171 175 172 150 151 154 154 154 177 184 174 174 189 188 177 186
281 277 286 316 288 306 333 342 328 283 283 237 221 214 214 209 207 203 190 184 181 173 182 168 163 155 184 153 150 150 150 156 183 145 149 149 153 157 179 180 177 178 174 164 179 175 189 186 196
267 284 272 285 295 284 313 333 333 265 308 284 240 240 229 213 214 212 204 176 188 186 180 172 174 171 167 166 167 181 150 165 163 150 184 179 173 167 165 162 165 174 175 191 183 194 183 192 208
281 288 282 268 266 301 291 304 326 302 304 284 270 243 249 249 237 225 223 222 208 195 181 186 182 180 177 177 170 163 158 164 165 163 171 179 177 166 172 182 183 191 183 193 188 198 198 268 232
285 288 281 279 286 270 284 261 286 316 293 257 281 270 249 245 246 249 249 247 239 232 204 197 174 179 181 180 145 175 174 173 173 179 179 172 172 189 184 186 188 191 195 193 195 215 283 247 252

GFSSGP_2pvu_pres_051.txt.gz
Presure
98 172 130 139 88 183 111 160 160 146 144 141 98 112 94 141 94 154 96 105 122 112 90 95 126 118 102 97 145 124 130 112 116 116 117 115 122 139 120 135 126 141 169 158 119 135 133 147 131
178 132 150 70 143 158 77 82 141 129 142 129 133 143 156 148 101 137 149 123 141 119 121 92 114 136 91 86 105 107 100 95 113 93 105 119 152 107 118 111 121 114 118 103 115 133 135 114 108
190 187 199 188 184 179 117 158 146 159 73 120 132 135 133 147 151 154 131 150 143 125 136 126 124 149 103 136 138 90 98 97 104 108 151 102 140 103 114 106 99 103 100 134 111 119 145 96 121
191 186 182 206 189 155 73 189 170 145 155 145 80 79 82 156 150 153 150 157 146 130 90 121 125 146 148 130 140 116 135 111 111 105 103 151 160 180 159 141 158 101 101 105 129 140 146 126 137
190 173 174 189 175 181 125 102 168 170 120 161 74 117 124 85 147 115 137 152 152 119 119 125 126 126 93 146 131 125 139 131 93 136 109 111 104 135 121 116 138 132 131 140 141 135 128 140 136
176 191 149 200 186 195 186 111 178 69 92 96 117 101 76 153 142 147 148 149 153 127 130 123 121 130 142 139 118 140 140 135 137 110 93 115 103 145 123 125 125 115 132 143 136 139 126 134 137
188 169 179 199 177 182 156 165 152 125 166 107 143 70 81 86 142 73 74 89 101 91 145 143 126 150 103 95 140 136 123 118 139 119 135 132 140 144 150 142 141 136 146 146 129 133 143 141 135
205 188 169 172 197 198 179 170 199 168 100 165 86 76 75 130 141 150 146 75 78 71 76 75 137 78 113 145 128 140 147 130 127 151 141 153 135 137 140 135 146 140 141 133 139 133 143 146 141
175 127 186 152 186 184 190 182 177 193 160 130 163 159 143 107 78 156 126 77 75 74 77 81 81 107 88 130 144 117 143 110 150 143 140 140 141 137 138 135 135 130 136 134 143 141 104 134 128
218 189 181 191 204 182 186 141 172 181 186 158 174 168 133 81 116 94 143 85 106 80 83 81 77 77 77 80 92 80 83 78 145 144 81 150 139 134 139 116 138 140 134 139 140 134 129 131 142
185 199 208 145 153 215 185 194 173 178 171 186 127 168 169 155 91 146 156 86 83 144 144 77 81 106 83 83 117 87 137 144 77 106 82 144 143 132 140 137 138 135 86 137 130 132 139 150 102
219 186 197 190 242 159 223 196 134 179 173 187 179 158 157 169 166 156 148 69 78 83 78 78 84 84 86 88 140 111 144 141 147 140 140 136 134 144 141 142 138 133 134 138 138 144 142 148 138
218 204 194 220 183 197 182 212 209 197 151 173 157 181 133 170 176 120 149 149 83 97 108 148 147 151 140 143 112 112 113 126 121 121 134 139 147 148 129 141 136 132 139 145 144 143 148 147 151
247 200 192 201 194 173 178 203 227 209 190 175 173 160 175 126 176 169 155 151 153 153 101 90 123 147 132 91 148 147 145 140 145 147 144 139 138 140 143 133 122 140 145 143 144 143 152 143 138
261 208 205 194 198 197 190 204 237 202 221 208 128 178 169 157 126 169 167 165 174 159 149 146 158 153 147 144 157 153 144 138 135 127 138 143 144 149 143 146 148 141 144 149 148 152 141 146 161
241 252 205 206 196 197 186 157 180 192 195 209 189 148 189 162 177 135 135 163 125 171 175 152 151 149 149 150 152 155 154 151 145 147 143 144 143 141 142 136 142 148 147 149 151 143 159 159 153
244 241 233 214 203 199 212 203 189 214 177 199 216 185 188 178 178 168 164 169 137 177 149 151 141 147 152 153 143 138 142 144 143 152 151 149 154 153 148 148 143 142 153 142 153 159 152 152 157
253 237 236 222 202 196 199 196 214 200 211 210 196 183 143 186 180 174 161 164 166 166 165 117 141 160 156 157 143 142 135 137 135 135 140 143 144 150 140 151 150 155 158 153 150 152 153 151 155
265 253 239 236 221 200 205 207 229 228 212 200 211 190 204 181 170 162 166 174 166 160 174 136 165 151 147 150 160 150 153 151 143 143 143 142 138 153 145 145 139 140 150 140 157 147 140 164 160
267 264 257 252 236 226 212 207 213 217 234 217 207 214 192 179 184 183 155 163 167 184 177 184 155 171 153 156 156 149 148 152 154 151 151 150 151 155 151 150 146 153 158 149 142 163 157 151 154
265 267 263 256 258 245 235 222 234 239 240 236 210 208 217 192 182 135 138 159 127 141 184 179 160 157 171 158 142 151 155 145 148 145 130 149 125 133 142 152 157 157 160 160 157 149 167 168 166
268 265 266 263 262 261 269 278 312 272 262 262 220 213 237 212 192 180 163 156 127 158 161 158 185 189 171 168 160 161 162 161 159 161 161 160 161 162 160 149 152 160 155 161 153 164 165 168 165
278 302 273 296 274 270 269 269 256 245 272 257 225 252 245 217 207 191 141 158 194 158 154 159 152 127 187 173 164 169 166 164 161 156 155 151 152 167 168 169 160 162 160 154 159 168 168 166 165
257 311 272 322 275 269 269 273 253 290 270 254 257 246 246 236 207 169 181 176 179 171 166 166 188 185 191 145 179 167 168 170 167 164 165 165 158 158 160 158 165 168 165 168 174 170 170 154 152
274 270 287 326 288 271 333 353 271 290 290 301 248 249 242 241 228 199 208 146 146 165 194 176 169 175 175 192 178 179 167 169 171 169 168 168 167 156 164 165 161 162 170 169 175 175 152 177 166
284 269 293 324 313 284 298 387 258 289 284 284 293 245 243 251 243 208 207 200 192 188 158 172 176 174 199 157 153 149 144 179 178 177 166 176 175 173 171 172 179 160 146 152 150 154 164 188 192
292 287 261 276 314 298 280 350 385 312 294 288 289 288 246 243 237 228 201 211 199 189 150 169 157 176 170 194 198 185 167 154 177 179 173 150 162 156 152 149 152 150 153 156 164 187 174 168 182
279 275 292 278 276 301 284 277 335 366 301 293 289 287 289 252 242 236 223 220 211 192 196 192 172 162 179 163 157 162 178 177 160 157 159 149 165 179 178 153 171 163 164 163 172 184 173 186 174
282 283 286 285 261 280 282 267 281 332 339 301 286 287 286 290 268 235 230 223 217 224 206 192 193 183 164 167 168 162 162 195 201 172 175 188 185 174 161 164 186 164 163 173 167 173 184 176 183
291 288 288 286 273 276 271 275 291 266 300 326 331 262 298 286 285 287 238 234 224 226 219 215 219 189 186 147 147 179 147 160 167 166 165 167 159 168 172 171 180 163 176 179 179 183 188 188 174

GFSSGP_2pvu_pres_054.txt.gz
Presure
225 154 104 165 184 182 102 156 102 99 96 142 108 95 96 100 96 89 104 96 101 122 125 89 89 84 99 103 139 100 136 110 121 117 118 109 114 125 114 122 117 139 106 103 110 101 148 105 122
207 182 167 152 190 134 92 175 150 104 108 119 109 157 113 97 145 117 122 148 102 111 142 116 118 90 90 103 97 126 113 99 111 122 141 115 112 114 115 113 120 111 154 103 98 102 108 113 127
191 214 168 192 200 132 136 95 79 119 141 135 106 134 145 138 147 157 153 131 119 114 83 136 110 116 99 119 140 106 149 103 100 103 117 111 114 125 104 107 135 160 89 144 131 118 118 132 122
159 211 191 181 191 177 73 152 76 175 78 138 147 134 139 110 86 89 112 147 153 152 152 125 124 96 119 135 153 135 135 103 136 132 111 110 105 143 108 118 134 154 153 142 148 142 139 137 130
223 158 218 180 189 151 186 170 135 168 82 140 78 122 86 110 153 149 138 150 151 105 142 78 146 129 122 143 122 142 132 128 136 102 99 113 125 102 88 117 111 105 131 110 131 117 115 129 139
247 168 205 197 193 112 156 126 187 173 158 158 143 148 126 71 89 92 135 116 150 149 105 146 148 144 149 122 118 125 147 141 133 135 126 143 138 112 142 123 120 147 123 110 139 126 142 140 137
181 229 163 211 151 190 173 178 182 155 144 151 157 73 67 119 72 124 141 149 158 150 78 134 144 141 125 124 88 125 123 139 141 138 137 142 135 138 103 139 133 137 156 142 139 139 138 140 130
233 249 194 156 178 193 196 180 187 182 125 127 153 150 162 137 148 121 120 140 89 113 78 139 75 149 79 77 122 124 92 130 126 151 124 125 82 137 141 137 137 129 128 140 135 137 127 140 131
188 250 245 165 155 168 201 177 192 190 107 134 163 89 75 79 76 98 141 81 81 88 76 96 75 107 80 78 77 158 134 80 98 143 140 138 112 126 113 145 134 141 141 134 134 133 139 135 134
216 234 168 202 159 187 164 205 152 184 191 170 133 138 151 84 72 151 98 141 139 140 72 72 74 79 78 78 78 71 108 87 122 133 148 87 129 143 139 148 145 135 126 133 136 126 129 139 141
216 197 217 187 183 166 182 152 159 189 179 187 183 131 94 90 157 109 87 150 88 90 81 79 157 104 72 78 92 81 83 91 88 95 137 135 91 144 135 139 139 139 143 125 140 140 141 142 134
215 199 224 194 167 208 167 177 195 199 195 188 187 168 167 135 85 158 163 86 143 83 119 87 82 79 116 146 84 82 140 90 149 148 135 141 148 142 139 140 141 139 133 145 139 144 142 137 148
225 208 191 196 155 215 195 164 178 205 197 187 166 186 187 171 142 163 105 166 148 128 108 77 77 102 83 84 102 85 86 108 135 111 89 149 144 139 142 120 127 131 145 136 145 139 133 147 143
255 216 192 186 164 179 199 197 160 215 205 200 186 168 169 183 176 144 164 161 159 164 162 151 160 81 135 125 152 150 140 128 125 148 151 148 144 146 149 150 145 136 149 146 139 147 142 147 152
242 225 206 188 228 186 177 192 188 154 216 197 183 199 168 174 190 174 153 128 165 164 164 96 164 96 147 147 152 145 148 152 155 156 141 141 124 132 121 123 123 144 142 145 142 137 150 140 144
247 231 216 199 190 188 185 70 178 204 151 192 192 160 177 158 169 184 181 165 127 160 165 161 153 162 152 152 153 152 153 148 148 145 134 156 150 151 151 145 150 142 139 148 148 142 145 144 137
250 239 228 211 231 224 180 173 160 218 190 153 184 187 188 170 168 167 172 179 175 143 149 168 166 167 168 155 162 154 152 158 151 145 146 141 141 144 147 142 144 140 142 146 137 146 154 147 161
253 246 231 223 206 219 223 206 186 193 172 188 177 208 198 189 185 175 170 160 161 173 150 160 146 170 171 152 163 143 146 139 135 144 138 140 142 139 141 135 144 144 143 135 150 152 146 161 142
266 249 242 228 221 240 194 205 192 189 198 148 180 183 221 210 201 190 164 177 161 157 169 173 163 176 123 166 167 165 165 175 151 148 150 149 145 146 147 151 144 149 152 143 141 158 138 134 153
261 257 246 239 232 227 231 212 227 187 190 214 182 229 187 157 174 211 200 191 148 182 161 160 171 147 131 139 130 120 170 172 158 145 153 144 155 155 151 150 150 154 127 159 145 154 153 161 157
273 260 253 244 238 237 252 231 211 200 204 193 196 200 207 176 191 196 203 200 200 140 198 158 152 165 173 162 172 171 120 174 160 143 158 158 139 152 146 160 137 126 148 161 161 162 151 153 159
270 270 261 252 246 242 235 256 224 197 194 206 188 195 184 188 173 198 200 192 180 166 138 188 172 163 161 159 184 144 174 176 139 151 166 157 158 124 157 132 163 164 158 152 152 154 154 163 155
267 264 270 261 253 249 247 249 246 220 196 193 196 199 199 198 193 189 218 206 198 188 205 203 164 177 162 175 160 163 168 181 187 187 162 169 170 162 160 157 155 154 157 161 168 166 162 165 158
262 274 269 274 263 257 255 248 231 232 221 207 194 201 200 199 201 208 199 192 190 201 196 186 184 181 121 126 177 166 161 174 180 180 192 175 163 164 165 163 167 169 166 161 160 159 159 162 170
263 278 271 273 271 264 264 265 255 245 234 229 219 202 198 201 200 200 209 207 194 191 200 184 181 182 166 171 133 132 134 154 169 163 170 190 182 170 167 167 148 155 160 159 157 167 166 164 152
272 260 261 271 262 259 261 266 257 259 260 255 242 220 215 208 203 207 203 208 217 201 199 200 206 206 193 166 139 169 169 194 173 159 156 161 180 191 128 136 175 174 171 162 171 167 174 173 181
278 265 252 291 290 289 270 327 326 262 264 265 252 259 254 242 265 255 248 245 227 243 207 198 205 218 213 198 182 173 173 169 197 172 167 148 145 147 147 146 155 150 150 157 164 150 154 152 166
285 287 276 272 264 263 283 302 314 315 311 271 301 277 262 257 249 247 244 248 254 249 259 216 229 223 216 131 145 142 136 150 163 177 179 170 156 170 187 197 192 138 188 153 177 153 176 161 178
270 274 294 271 260 262 276 305 296 297 277 283 285 263 304 295 294 245 233 244 258 252 249 267 246 230 227 207 205 203 195 180 165 145 148 190 156 154 152 135 133 194 167 184 181 161 164 167 160
278 274 272 280 276 259 247 264 283 298 284 298 283 352 298 263 293 291 250 272 245 244 245 247 253 246 240 227 194 193 195 195 182 180 179 150 171 162 165 150 146 154 164 155 169 169 153 174 175

GFSSGP_2pvu_pres_060.txt.gz
Presure
173 195 129 193 207 161 180 157 97 99 115 110 106 102 122 95 88 92 91 85 94 133 89 97 104 147 140 88 98 117 120 145 124 95 110 135 139 91 101 122 106 97 101 110 122 101 121 96 150
183 154 90 183 190 181 151 172 182 149 128 114 110 97 90 123 93 93 88 94 95 86 126 111 102 116 88 115 102 134 90 93 97 112 110 140 123 123 104 130 104 132 96 108 99 100 108 126 133
220 181 177 231 179 178 166 97 152 167 119 115 118 108 98 99 96 103 89 92 94 100 91 115 96 108 94 91 141 117 99 132 131 127 119 133 91 145 145 137 116 136 145 105 116 107 125 126 113
133 196 147 214 198 69 198 101 189 166 171 160 145 123 104 107 99 107 101 103 107 89 102 101 104 92 107 113 109 123 91 124 132 123 129 95 131 104 146 151 153 159 97 137 138 132 131 132 163
200 260 194 163 212 162 129 173 166 169 126 157 154 118 133 128 103 97 106 105 90 108 118 120 130 93 110 95 111 142 119 118 121 98 108 116 118 126 144 144 129 129 149 148 125 141 134 130 122
170 233 187 162 171 199 192 151 196 137 88 171 143 156 114 135 101 113 106 107 126 103 112 141 98 103 98 109 126 125 109 114 140 130 129 124 125 128 138 118 134 126 128 143 138 139 169 134 133
196 159 170 159 167 172 125 204 195 185 168 150 82 153 157 80 135 117 109 142 126 108 105 99 115 133 110 150 143 141 140 130 130 131 120 125 125 129 140 137 124 129 85 144 129 133 132 137 135
241 206 244 181 144 176 122 216 173 186 110 176 77 134 76 146 149 116 115 114 89 125 120 114 148 84 75 146 151 147 140 76 126 152 131 92 80 135 82 83 77 86 76 134 149 136 143 149 143
202 185 248 204 194 196 155 199 166 177 197 149 82 137 166 87 134 140 78 84 113 121 123 122 147 127 106 75 155 148 87 76 85 72 78 152 144 149 77 133 136 133 131 137 143 136 150 152 150
241 184 253 218 194 198 145 180 209 170 109 139 186 109 130 125 159 146 82 145 149 120 107 141 129 102 126 75 120 74 108 79 74 76 79 81 122 106 137 159 126 109 136 144 147 135 153 129 146
258 219 187 203 205 203 170 160 186 202 166 180 185 74 170 154 74 155 133 143 144 79 140 142 142 81 75 71 77 138 78 76 75 78 82 78 150 152 75 81 157 148 87 138 134 144 153 131 147
278 192 188 172 173 160 204 161 178 204 219 181 187 190 185 140 161 157 151 81 83 83 98 78 143 81 137 145 137 99 80 76 156 82 149 81 86 131 135 142 112 129 141 143 135 150 151 150 153
282 239 200 179 169 169 172 187 184 166 207 192 183 195 191 169 154 132 166 145 129 79 78 78 82 82 144 140 144 104 78 74 108 155 85 87 142 137 144 152 81 151 120 134 135 137 141 142 130
291 231 218 192 181 205 168 185 180 178 193 212 183 180 195 178 170 169 176 159 83 166 148 78 76 83 81 121 77 148 84 142 89 132 146 131 138 110 130 127 142 147 141 157 144 140 141 148 150
325 279 224 212 202 181 169 168 217 176 185 205 166 191 190 177 172 165 167 169 162 156 143 162 128 150 156 148 147 73 138 144 145 126 144 136 137 136 135 141 152 150 148 152 148 152 151 145 147
300 288 270 213 206 182 180 166 176 161 175 189 152 190 173 184 173 177 172 175 157 152 161 153 159 159 131 147 154 156 153 151 146 157 159 146 157 143 134 136 136 135 148 148 131 148 149 153 148
296 322 276 266 211 196 200 178 169 131 99 182 198 204 193 184 199 174 183 174 178 153 159 163 152 154 162 153 151 125 155 158 157 155 154 162 156 156 147 147 149 150 143 145 151 154 157 156 141
299 300 273 269 261 214 205 198 176 173 120 72 180 192 163 216 177 180 185 180 187 168 170 165 172 158 161 173 171 156 150 132 148 161 152 160 166 168 158 159 157 154 167 140 149 143 150 136 149
284 314 278 271 269 252 219 206 189 180 164 200 64 181 152 152 207 143 168 178 187 174 173 167 174 166 159 173 172 165 158 167 150 159 128 134 156 157 156 160 164 159 157 157 158 152 154 164 165
267 275 272 270 265 254 236 208 203 186 180 158 180 187 183 227 158 150 181 175 181 145 180 175 177 180 165 167 167 163 163 162 165 163 150 147 154 164 172 167 167 167 167 171 165 169 151 145 149
302 305 275 278 289 287 252 230 205 197 187 185 165 195 183 190 189 149 164 216 180 179 177 186 168 178 175 186 174 174 172 164 162 165 168 178 165 150 176 141 171 172 179 140 121 172 171 164 167
284 283 279 296 285 287 292 245 216 202 189 196 188 182 195 185 183 190 153 149 160 187 183 151 188 177 180 181 162 179 164 167 141 171 176 174 170 164 125 164 162 152 171 170 155 176 169 165 162
307 283 279 276 278 282 275 265 240 217 201 197 190 191 194 194 164 158 230 218 154 147 144 145 149 153 194 203 176 182 172 168 164 166 166 161 171 165 172 165 127 125 172 175 153 140 136 193 167
276 270 302 308 280 283 285 261 244 263 226 214 202 195 196 192 193 182 205 222 214 171 157 184 181 148 150 173 189 201 181 181 176 177 177 162 165 168 150 173 182 183 183 185 176 180 166 179 152
276 313 322 308 299 281 272 278 258 241 251 232 226 210 201 197 192 189 172 160 175 212 172 172 181 146 150 151 157 153 150 198 178 178 173 175 176 180 123 180 168 162 182 171 179 189 179 195 155
298 285 283 257 285 264 289 263 263 247 238 244 243 227 214 202 200 190 185 188 184 172 223 244 184 227 217 172 172 175 222 213 153 194 188 186 180 176 175 182 157 187 120 139 190 176 182 133 132
274 270 282 297 243 283 257 282 266 260 248 248 241 238 225 221 214 204 199 186 182 191 199 184 180 173 174 198 184 181 205 170 211 193 192 161 188 195 194 185 184 198 200 201 124 188 135 192 189
282 278 271 259 272 296 294 270 273 273 261 251 243 239 234 235 227 218 211 206 195 187 186 195 226 213 213 216 191 189 179 181 228 187 205 199 220 223 223 165 186 181 208 206 187 184 153 151 200
266 278 270 258 262 263 248 294 269 265 265 264 253 248 242 236 232 231 220 215 215 218 211 210 219 223 233 194 197 205 201 187 180 176 183 190 188 188 194 187 196 196 195 200 201 199 193 184 163
293 259 256 271 262 266 275 274 274 278 259 254 255 257 253 239 236 235 233 226 224 215 214 221 231 208 218 219 221 191 205 182 183 184 184 187 186 191 192 183 187 194 217 208 193 195 206 200 196

GFSSGP_2pvu_pres_063.txt.gz
Presure
121 189 195 174 120 237 173 179 155 152 134 69 117 92 97 95 90 95 79 89 101 94 133 103 149 122 156 132 130 109 116 144 115 92 115 124 132 127 134 138 132 104 125 125 97 136 108 92 107
184 130 153 167 170 148 181 185 133 159 157 169 84 103 106 99 95 97 87 130 87 142 147 162 138 108 127 121 97 113 116 110 115 129 134 113 107 102 147 140 142 135 124 138 152 153 116 140 131
255 158 209 194 181 193 169 149 188 152 168 174 170 124 102 131 118 96 93 88 92 89 99 90 160 98 102 133 94 88 94 109 103 111 121 132 137 130 127 117 93 126 138 153 134 152 141 145 120
182 207 198 159 173 161 128 102 178 182 148 89 156 160 108 109 135 87 100 92 99 95 93 91 88 97 104 137 95 106 110 111 86 123 137 125 90 126 122 117 102 124 91 123 124 133 126 132 135
236 196 204 201 171 167 148 186 183 188 156 173 158 157 156 146 116 110 103 104 102 98 102 101 106 143 108 117 114 105 105 113 139 125 140 115 121 128 127 130 124 131 131 130 121 129 139 141 141
258 189 211 199 164 158 169 163 178 125 194 136 117 160 158 108 156 116 113 107 91 95 103 97 106 105 110 105 112 110 103 100 128 117 138 122 101 120 126 126 128 128 103 131 111 110 132 124 134
260 245 246 201 195 166 179 161 195 197 172 110 145 174 151 152 153 96 139 88 110 110 94 108 103 109 111 111 104 103 118 113 137 135 130 123 137 123 145 122 113 87 120 81 129 140 139 131 142
286 246 236 206 194 214 148 158 169 194 205 185 169 181 167 160 152 154 82 139 140 111 110 144 106 138 104 102 79 139 145 143 149 101 140 124 79 131 87 127 141 145 135 135 134 88 139 136 109
315 237 206 211 192 212 137 84 158 157 183 180 192 168 142 138 128 135 154 146 129 140 147 109 107 104 127 111 99 120 138 129 145 148 78 143 80 132 138 149 138 149 145 141 97 128 136 143 142
300 260 224 234 205 202 211 183 131 227 183 187 188 185 176 179 71 147 153 152 146 142 109 117 105 127 139 92 121 72 115 146 125 135 75 79 78 108 84 79 104 113 135 125 148 143 153 143 151
296 277 221 225 214 190 203 195 174 177 169 161 193 162 188 157 172 150 149 82 153 77 146 144 132 81 82 117 68 112 79 114 80 137 82 80 80 85 151 72 148 81 154 142 146 143 147 146 120
301 287 263 206 202 200 209 246 191 169 175 189 71 173 191 178 171 78 177 75 137 80 78 148 142 147 78 143 128 78 82 81 88 78 121 77 134 134 155 150 148 149 135 135 123 164 156 155 139
311 278 293 182 231 193 188 234 201 179 156 203 190 188 181 189 145 171 176 153 131 154 75 77 82 79 76 146 107 77 100 134 141 147 143 132 129 131 122 125 156 151 140 132 146 150 143 143 142
300 277 295 294 242 186 196 232 219 185 178 165 195 194 185 196 168 170 167 180 119 156 154 78 117 79 80 75 76 79 78 140 148 116 74 127 99 115 142 142 142 134 142 137 137 137 139 143 149
312 274 280 274 193 192 178 236 226 184 184 173 157 200 169 170 179 190 172 182 166 107 124 155 79 88 128 82 81 83 84 80 80 77 146 83 133 93 153 144 147 152 150 151 154 132 132 144 136
286 280 281 265 186 193 180 203 235 189 180 179 164 177 196 166 166 166 171 172 179 164 150 149 146 99 161 149 148 146 129 146 159 148 144 147 152 152 158 153 152 146 148 154 151 157 143 147 147
294 300 278 270 273 254 202 175 239 206 190 178 184 157 183 193 195 166 175 174 175 186 184 148 155 157 161 159 155 149 158 148 151 150 147 156 150 152 153 153 156 160 164 161 156 161 164 156 163
299 294 292 277 282 212 278 187 203 230 162 82 101 182 161 185 189 201 184 178 184 186 185 164 181 171 164 166 153 161 164 150 150 160 136 134 146 142 150 134 131 143 160 144 144 151 151 159 154
292 290 287 280 267 252 270 197 189 204 196 162 198 183 171 158 179 197 200 174 181 183 192 190 175 174 163 171 160 166 162 162 155 151 151 150 157 157 158 153 153 122 162 160 157 161 162 168 170
285 283 285 282 277 273 266 215 203 177 173 171 161 195 187 171 174 182 193 203 179 171 187 189 176 170 180 171 173 153 147 142 149 155 151 150 149 157 168 168 153 163 166 169 165 125 172 141 156
293 281 295 278 280 282 266 270 214 196 182 176 170 161 196 192 166 177 178 201 162 179 163 183 184 180 173 168 179 180 153 169 167 164 164 160 159 162 168 160 161 161 162 161 168 171 164 146 137
353 293 277 287 287 286 289 261 258 205 199 180 179 169 198 210 186 176 177 179 189 156 161 189 188 179 174 171 161 183 179 177 166 168 170 171 173 165 165 160 160 136 143 173 177 155 165 171 170
287 333 304 298 264 278 284 287 264 253 203 198 187 189 168 167 168 187 180 169 173 201 144 144 159 163 187 188 167 173 152 185 162 155 170 167 177 175 177 182 189 178 181 177 159 172 173 174 175
295 274 304 287 278 296 303 296 275 262 260 198 197 195 191 182 169 170 171 183 173 168 201 217 158 153 149 170 177 175 169 178 161 175 177 185 179 178 177 181 175 182 181 173 175 165 153 173 185
302 320 307 275 270 292 301 299 281 268 263 255 228 207 197 193 185 172 168 158 163 180 169 201 200 156 153 151 149 148 157 168 148 157 148 150 177 152 154 167 167 143 185 182 165 144 124 156 130
293 288 304 275 293 278 275 297 301 275 268 257 246 236 212 201 199 184 178 170 166 172 190 166 192 192 202 209 161 161 155 177 151 151 154 146 148 152 153 161 176 194 207 172 194 188 184 95 155
309 281 276 298 292 286 289 289 285 298 289 282 249 245 232 219 205 202 189 190 176 173 170 194 191 180 175 218 231 223 216 214 192 165 195 167 165 157 136 171 171 181 156 206 211 195 159 193 181
277 286 272 264 282 267 278 277 271 274 272 295 279 296 267 237 227 204 198 188 191 190 184 179 179 182 187 182 173 208 189 178 206 170 173 184 232 223 219 172 157 176 210 221 176 222 200 185 163
330 316 297 277 264 261 262 280 304 299 300 300 277 280 267 258 243 256 245 226 227 200 204 199 194 195 192 179 182 179 170 177 182 213 191 174 173 173 238 238 216 204 173 176 175 188 177 182 185
309 304 291 278 293 290 279 271 263 273 274 274 270 300 270 268 250 241 265 244 233 224 224 210 209 207 202 203 201 199 186 182 181 188 199 184 233 197 185 187 189 228 216 184 182 176 182 181 182

GFSSGP_2pvu_pres_066.txt.gz
Presure
141 189 161 179 187 117 100 134 172 147 127 163 90 95 82 89 91 91 94 134 159 102 149 110 140 108 159 165 164 155 166 132 93 132 122 94 137 96 101 100 124 133 137 130 120 149 143 128 155
287 174 143 127 205 156 140 130 87 178 122 109 161 152 90 86 86 89 89 84 89 93 96 117 145 119 90 163 99 134 93 100 104 121 125 106 120 111 122 134 144 135 104 111 93 116 147 151 111
298 190 139 237 219 118 174 163 148 111 131 178 75 80 158 157 98 102 96 86 92 106 144 93 118 109 137 116 144 116 85 97 89 89 96 139 126 127 128 99 118 126 114 107 114 133 129 124 118
314 193 184 170 228 179 184 152 167 63 180 182 158 167 144 167 100 94 97 92 90 86 92 90 90 95 90 94 151 148 104 103 94 131 108 125 117 148 142 137 113 132 133 119 133 127 121 133 136
348 213 186 210 218 207 170 133 165 193 177 163 156 149 157 170 146 151 100 90 86 87 95 96 87 90 85 100 101 89 94 97 88 108 118 102 143 114 125 143 121 123 126 137 139 132 139 82 129
319 305 216 195 235 154 154 170 151 165 194 95 168 179 147 163 160 114 124 150 107 98 94 92 90 102 90 99 106 132 157 111 132 103 97 115 113 125 134 135 136 131 120 141 136 82 142 132 138
295 334 331 253 206 80 77 189 177 167 164 175 196 185 146 158 170 159 134 152 146 110 104 106 134 101 101 106 104 107 108 92 99 110 131 127 148 117 133 135 111 78 137 137 81 136 141 89 146
298 300 322 295 189 218 157 155 122 171 174 172 164 190 168 131 156 155 152 160 139 112 116 107 96 102 100 109 94 109 131 111 103 109 133 127 134 146 82 135 136 152 148 107 148 145 82 141 134
308 308 304 274 193 243 205 184 193 177 177 167 198 173 175 166 129 160 141 159 100 145 142 108 134 129 111 111 134 111 104 110 99 140 99 128 74 79 143 84 140 73 106 108 145 143 99 143 143
309 317 291 310 215 243 215 79 194 180 165 183 161 189 177 166 138 137 156 145 113 148 145 138 138 148 141 114 92 127 109 129 148 104 115 130 126 77 100 82 151 71 82 149 82 147 139 155 156
315 329 284 310 265 98 228 197 181 194 177 162 162 193 219 156 174 164 144 162 155 141 150 151 132 129 133 143 113 115 116 87 84 123 135 76 82 80 79 91 123 129 134 141 146 150 136 142 139
326 318 281 320 298 209 228 204 188 195 187 158 170 161 182 163 162 168 152 133 143 80 125 159 153 145 128 117 77 123 123 82 105 78 78 89 139 134 130 132 133 129 124 123 120 125 129 153 148
321 332 297 197 308 227 217 224 191 187 189 174 148 179 195 195 152 181 165 169 164 144 103 74 155 70 89 86 104 88 132 152 114 77 136 86 135 138 139 84 146 144 106 138 140 140 136 137 143
328 306 281 300 288 252 161 225 107 192 224 177 169 182 171 175 197 151 179 163 177 164 163 141 142 142 76 76 155 73 71 146 88 84 82 95 71 139 119 122 148 147 146 136 142 151 153 153 143
331 300 292 282 312 299 226 227 221 192 196 189 166 166 185 184 181 192 184 158 166 162 148 162 149 158 149 79 153 83 82 76 150 135 82 91 87 82 155 153 148 149 150 149 155 158 156 157 151
320 300 286 277 291 312 252 223 185 192 192 234 179 168 161 190 183 182 181 200 156 166 154 138 172 85 156 152 159 121 82 83 129 147 147 143 160 152 148 147 144 157 150 151 150 149 142 151 150
281 330 280 276 281 281 273 230 204 205 185 197 192 175 170 183 168 138 164 186 171 185 186 161 167 146 159 169 135 158 157 154 153 153 142 147 140 140 146 148 151 150 149 150 122 163 152 159 130
294 289 306 269 277 281 306 210 191 222 188 193 210 184 173 165 203 200 181 136 165 181 158 179 180 162 164 172 153 156 142 149 149 146 159 153 153 150 150 150 155 133 150 161 167 150 159 160 143
286 304 264 301 259 265 281 261 218 216 208 186 195 225 179 161 163 196 204 182 179 172 179 178 171 188 178 160 179 175 161 160 166 157 147 145 153 157 152 155 161 161 151 161 160 149 160 160 149
297 274 266 267 273 286 295 261 218 207 211 180 193 195 202 100 146 164 196 148 178 197 161 186 177 181 181 189 165 182 174 165 179 163 161 161 159 143 145 155 137 146 150 142 160 164 155 159 159
290 281 270 263 256 256 274 287 261 191 216 194 183 190 227 181 180 176 172 164 180 186 181 167 160 163 162 169 178 172 176 192 176 185 150 163 162 156 163 162 164 159 162 161 153 167 173 175 139
284 274 277 271 255 257 261 256 276 289 233 196 194 166 221 227 191 181 177 164 160 166 167 194 198 189 165 168 167 172 181 175 186 192 186 170 177 167 165 166 173 173 173 170 149 165 154 155 169
289 273 273 273 276 260 262 268 275 273 175 267 203 178 226 229 177 185 178 170 156 177 166 162 172 187 195 200 227 161 167 165 176 189 191 192 188 156 171 172 178 178 169 171 171 150 189 172 180
295 291 279 273 265 274 264 264 264 281 296 253 217 185 202 230 237 198 147 180 170 163 164 160 168 164 180 183 160 139 146 170 174 161 172 177 185 220 152 189 173 155 177 187 195 172 183 148 143
293 315 286 289 267 264 280 277 267 274 269 275 288 202 187 192 231 219 181 159 174 180 172 162 158 155 154 174 171 188 191 131 186 180 174 181 141 160 197 196 164 200 197 178 148 145 145 178 151
283 292 294 288 275 288 286 290 303 282 277 279 272 276 200 188 184 223 227 165 190 192 190 181 174 168 165 157 167 168 183 187 199 199 154 155 164 186 161 182 183 159 154 161 152 189 137 166 184
311 349 278 272 268 280 281 280 280 284 272 284 280 278 263 202 192 179 178 190 203 231 187 199 191 168 176 174 166 165 162 162 185 194 202 196 186 165 157 191 192 193 171 193 190 174 202 204 202
314 292 338 274 272 275 276 285 266 290 268 296 295 297 285 265 199 192 192 192 180 169 195 213 187 166 183 187 179 180 174 167 169 168 180 206 221 188 184 168 191 202 204 211 195 182 180 174 190
320 313 302 293 268 266 303 299 291 275 297 301 311 306 245 234 268 254 238 194 190 194 197 185 200 219 182 168 171 178 187 183 177 177 175 179 201 203 207 208 207 214 217 217 225 198 163 230 188
327 343 291 286 298 320 296 292 283 282 283 289 289 281 288 299 303 271 251 254 241 204 206 207 201 201 209 180 175 173 221 229 197 180 181 185 185 173 173 172 171 171 170 167 165 184 101 215 174

GFSSGP_2pvu_pres_069.txt.gz
Presure
124 139 118 122 253 139 177 153 87 98 158 145 99 86 78 75 83 95 77 79 91 133 137 159 151 95 155 143 141 92 102 115 120 162 155 127 149 117 136 129 116 127 132 135 121 105 105 117 126
134 130 124 147 136 168 136 185 166 189 113 171 146 137 85 83 84 86 85 91 89 105 130 118 133 155 129 104 141 146 164 92 96 95 87 159 143 106 150 117 126 126 122 121 125 118 135 122 113
134 144 128 139 156 166 192 145 179 153 105 101 148 89 109 159 89 93 82 89 89 88 89 107 84 151 153 154 151 144 146 115 89 102 88 93 125 137 143 122 105 121 149 99 122 114 102 136 130
120 135 113 140 354 172 207 151 220 155 144 140 103 155 131 162 149 150 91 93 85 91 89 84 91 94 140 88 148 146 150 158 106 95 94 86 102 130 103 117 152 119 117 140 136 157 84 130 127
149 144 130 148 372 356 191 214 141 166 145 175 160 123 177 103 150 126 156 106 110 102 93 82 89 108 89 103 89 94 91 144 96 134 91 114 131 98 116 114 125 125 151 141 130 138 143 96 83
168 142 352 231 353 365 152 184 163 129 180 130 175 102 175 171 138 110 151 122 90 96 91 90 91 96 85 94 88 126 153 122 95 136 90 127 100 123 114 86 97 98 125 146 98 138 147 153 108
156 155 161 335 324 92 208 109 166 107 168 161 171 165 160 174 154 160 152 157 93 156 88 92 116 87 88 88 97 94 98 98 108 118 107 104 110 105 111 105 139 95 135 76 109 87 145 156 96
126 141 329 294 338 345 327 124 173 196 184 177 178 159 186 106 98 163 104 143 140 159 148 145 106 115 85 99 102 89 104 108 101 105 110 140 104 112 84 76 124 91 76 106 77 80 154 109 150
355 335 320 358 325 336 333 270 177 181 191 226 168 186 76 138 123 152 151 126 158 106 148 160 130 145 121 112 106 96 103 125 105 112 105 131 98 129 124 148 109 145 98 96 143 78 140 141 142
369 344 316 334 338 304 205 223 173 210 206 187 172 175 183 172 132 131 141 174 147 164 144 80 150 148 148 120 117 114 122 110 94 108 106 101 91 145 148 140 76 77 116 109 108 125 129 124 124
410 340 321 330 331 298 327 265 250 178 222 199 172 176 168 161 152 148 151 152 127 157 134 136 148 152 140 150 105 130 143 141 80 113 73 117 104 146 144 105 145 90 138 80 86 129 140 137 134
136 319 322 302 305 290 306 247 248 187 193 194 193 161 207 148 180 150 153 174 147 144 156 154 167 150 153 150 150 151 132 143 85 147 134 77 71 115 128 119 83 134 79 145 141 138 138 142 144
367 323 306 338 299 289 297 242 241 193 206 195 223 172 139 167 78 170 140 138 172 112 163 159 161 164 154 145 148 156 158 107 144 112 139 126 115 79 120 78 78 139 145 129 137 136 143 147 146
375 321 328 318 303 288 297 279 240 216 192 195 197 189 181 174 156 153 169 160 178 173 161 77 73 74 76 107 108 152 81 152 146 143 81 142 144 145 70 82 123 102 152 115 145 147 147 153 153
336 305 291 306 286 303 297 298 203 227 203 196 196 173 183 136 159 159 158 155 196 157 167 158 158 146 152 144 79 136 78 78 80 152 84 81 112 142 137 124 153 144 141 143 157 160 151 154 156
310 295 283 290 290 283 299 293 246 227 202 197 70 191 172 189 164 156 162 147 180 192 159 163 163 155 133 155 151 162 161 160 82 84 90 79 79 81 147 141 139 148 126 143 141 128 130 137 152
297 292 293 295 276 305 280 302 249 226 203 199 196 202 198 188 177 168 155 145 170 185 189 174 171 159 162 160 165 163 140 170 147 158 150 156 83 82 116 151 153 151 158 154 153 153 153 157 141
289 292 335 283 283 322 265 305 277 228 187 214 198 169 182 175 188 172 158 159 153 158 174 177 175 181 156 154 162 169 175 167 151 160 149 130 152 159 157 159 163 150 155 149 157 158 154 158 154
291 287 284 272 252 275 284 284 275 233 226 219 207 178 184 183 191 177 167 160 156 152 176 181 182 177 161 173 166 141 177 174 153 171 178 158 159 136 175 147 153 151 161 157 161 149 160 164 164
303 309 293 280 259 261 272 279 295 252 211 223 218 202 165 183 183 189 176 167 161 175 150 171 188 180 177 148 178 169 164 168 168 165 170 178 157 156 168 172 159 151 164 169 167 157 160 158 168
296 271 284 271 268 279 271 269 286 281 205 209 207 205 201 176 179 193 144 175 168 163 172 169 176 192 174 178 167 183 185 180 173 183 188 179 165 164 162 166 181 173 167 176 180 171 151 168 173
284 280 287 285 265 255 293 254 243 311 230 195 198 194 164 174 182 185 207 200 174 177 100 163 187 190 175 163 164 172 178 185 189 181 177 156 182 168 183 178 167 163 182 186 188 193 158 160 137
297 276 281 275 264 260 260 271 279 263 290 233 196 190 210 167 190 185 190 182 207 173 171 165 161 188 164 181 173 171 177 177 167 166 179 185 186 165 167 171 173 174 181 180 183 200 203 201 196
275 281 282 278 270 258 254 298 258 257 272 289 253 203 206 211 193 188 186 185 180 184 191 174 170 173 173 172 186 184 172 182 188 179 170 170 175 165 173 167 180 186 178 179 201 193 196 157 145
273 264 257 259 277 271 278 270 280 254 272 283 287 236 218 215 189 182 188 187 195 220 182 196 168 167 162 160 183 163 161 178 178 163 170 180 187 204 197 184 179 139 174 176 189 163 184 180 142
277 281 272 253 252 250 256 266 279 285 272 256 280 278 202 210 216 202 162 185 186 157 185 214 208 179 178 164 168 168 161 162 155 163 151 161 160 177 185 174 183 210 196 193 164 162 162 140 194
293 265 258 271 269 256 251 266 271 263 269 289 285 290 295 270 191 207 199 170 176 183 189 189 211 211 182 171 175 193 166 176 161 158 161 165 162 164 163 168 170 170 179 178 186 188 191 197 193
282 293 269 269 261 262 260 258 258 260 261 264 267 268 271 284 282 214 188 209 171 178 187 198 206 203 191 186 175 174 174 176 179 179 177 166 163 172 170 169 167 167 168 161 171 177 174 184 201
319 282 286 283 275 270 268 264 266 269 267 267 268 272 267 273 268 272 186 222 202 185 172 177 204 220 211 212 211 186 176 163 170 169 169 188 172 174 160 178 178 177 176 176 177 168 170 169 171
301 300 369 296 269 277 269 265 275 275 272 271 264 273 275 272 288 150 278 288 287 193 192 174 201 212 223 217 196 176 180 181 181 182 163 172 177 188 198 190 175 162 186 186 184 178 178 177 179

GFSSGP_2pvu_pres_072.txt.gz
Presure
135 140 124 127 125 126 135 145 119 153 166 184 158 148 155 112 104 118 91 94 137 141 89 136 85 101 151 126 84 156 145 149 119 109 153 107 134 159 166 95 130 111 115 127 124 124 124 130 123
136 123 140 110 132 121 116 129 182 96 141 174 171 113 156 109 134 82 94 81 85 115 119 130 132 133 171 89 86 127 159 155 135 115 126 96 87 136 97 137 104 125 131 107 118 108 149 141 126
138 102 144 118 130 118 114 123 185 146 187 130 173 179 144 101 145 82 84 112 87 89 131 102 128 132 131 99 91 155 94 153 152 129 95 152 90 142 108 109 120 109 114 116 150 139 146 139 133
151 112 125 123 126 125 133 136 148 203 168 162 141 167 132 128 137 88 81 91 82 128 88 96 90 127 85 136 138 136 149 155 155 96 86 96 124 89 89 168 99 114 85 131 123 119 163 144 157
160 117 98 117 128 115 125 111 141 121 203 211 215 103 170 127 133 158 126 90 94 84 90 93 93 89 84 91 89 85 143 155 149 148 153 94 161 94 136 103 142 99 86 126 111 119 134 78 150
98 132 151 148 141 133 123 115 145 133 169 202 224 151 138 156 154 133 124 84 163 144 96 90 95 94 81 94 101 85 137 88 94 127 122 92 95 90 150 100 99 77 111 121 104 76 86 119 154
186 94 136 130 97 139 110 146 150 159 185 213 204 215 153 150 161 158 149 141 167 161 150 93 149 149 86 91 94 89 94 89 97 99 95 119 119 100 116 99 103 134 143 111 100 147 136 96 115
120 152 143 165 141 140 138 99 91 269 160 222 214 160 180 172 119 153 180 147 131 154 79 84 94 142 93 98 92 89 86 95 98 98 96 109 104 103 96 102 80 104 114 137 77 149 134 144 135
141 128 124 127 140 84 151 142 141 174 276 240 210 152 179 178 161 152 110 139 152 161 160 151 142 88 143 154 139 107 92 97 100 129 97 102 111 104 109 105 117 118 148 74 105 75 71 78 91
143 148 112 136 136 147 159 356 357 325 304 249 230 236 211 153 157 169 158 148 146 144 134 171 152 151 163 124 155 155 127 118 128 116 99 114 109 118 113 83 81 118 129 126 135 106 68 135 101
138 128 144 143 155 316 330 348 345 317 328 247 210 231 209 198 196 155 155 157 157 145 161 201 147 155 137 139 144 158 157 144 144 125 110 113 134 149 75 72 105 111 126 121 97 72 145 139 140
150 161 175 164 328 331 199 338 335 314 303 242 226 224 205 173 162 139 164 166 157 159 141 130 161 159 155 139 133 148 155 156 140 153 153 141 126 146 143 75 107 74 77 115 74 71 143 143 151
124 384 365 330 350 342 321 327 341 324 298 256 212 220 215 161 229 178 144 145 156 144 185 154 85 146 163 140 148 168 164 155 158 152 143 149 129 151 150 116 82 96 79 145 71 80 146 145 147
159 322 355 320 313 307 304 313 328 345 308 242 229 206 215 163 149 159 152 167 152 148 159 161 151 162 147 142 172 149 110 166 135 143 136 136 142 156 142 95 136 115 145 136 142 137 141 150 142
119 342 337 324 305 291 307 290 325 330 281 245 230 211 224 167 168 167 157 155 74 130 160 157 144 148 165 159 159 80 166 138 77 157 149 152 118 145 151 83 79 74 149 154 152 144 150 150 133
323 135 325 311 287 295 319 296 305 329 273 231 221 201 218 156 208 176 196 181 163 178 144 154 90 151 140 82 93 81 129 141 81 124 161 156 122 78 98 147 126 142 83 114 151 147 158 145 157
321 360 319 294 291 288 302 280 313 328 275 241 212 217 194 177 188 154 180 161 155 131 179 135 169 136 167 165 117 152 168 160 169 176 157 141 151 141 118 164 95 148 142 146 143 148 154 152 150
336 360 312 286 276 298 299 289 289 292 284 230 218 217 207 184 177 232 180 151 163 169 159 138 155 157 139 144 158 170 183 169 170 162 153 161 163 156 163 150 160 163 149 156 150 159 168 156 162
343 305 290 285 262 300 272 296 284 269 267 236 216 190 226 199 224 199 172 167 165 180 176 165 141 144 133 140 165 168 152 164 164 152 170 172 177 162 162 158 165 162 150 168 169 180 150 155 175
318 290 289 280 281 275 269 299 287 258 258 238 223 203 219 202 186 195 197 217 160 158 176 159 162 149 150 166 152 166 140 180 169 163 180 158 158 176 161 140 164 171 170 162 169 166 187 177 166
301 278 280 273 267 275 281 276 315 281 254 230 225 212 206 200 205 197 206 194 163 153 164 168 166 183 149 187 156 160 150 176 176 147 187 186 186 174 173 180 182 175 173 184 177 185 187 178 157
297 287 295 278 269 265 278 262 288 316 245 239 225 212 216 209 196 196 194 203 198 161 146 165 160 174 162 164 153 163 165 172 153 145 188 193 192 186 187 187 176 174 186 180 182 195 168 187 178
267 297 304 291 284 283 276 265 277 293 242 235 229 208 215 204 199 209 201 203 200 193 162 166 164 168 160 158 164 176 160 173 160 172 178 184 164 175 152 153 195 190 178 158 175 176 185 170 182
278 281 264 280 269 271 270 248 256 273 277 235 233 228 200 212 207 188 180 198 200 151 140 173 171 167 167 160 162 147 149 156 168 166 161 172 169 169 181 171 175 170 179 186 184 197 182 178 155
280 273 268 265 258 268 267 261 256 257 281 247 229 231 212 205 209 209 206 189 200 193 160 188 185 177 169 167 165 180 158 164 163 149 168 162 178 174 177 175 153 172 171 165 187 170 172 172 167
283 272 260 272 262 262 270 249 254 276 282 279 235 230 228 225 209 208 194 208 205 212 195 180 176 174 177 169 203 205 159 187 188 168 161 159 161 157 184 193 185 195 201 199 188 166 190 144 177
283 277 246 276 286 258 262 256 279 270 281 277 272 236 232 227 219 218 214 213 210 207 205 206 192 195 171 189 177 169 170 167 163 168 164 169 163 165 153 167 169 182 167 178 161 158 162 162 168
281 268 276 270 262 273 259 261 261 263 275 262 278 281 237 226 225 197 205 218 208 194 207 208 198 184 169 186 192 195 213 209 170 170 176 171 172 168 165 160 169 164 161 160 166 173 166 177 171
288 292 298 271 267 270 274 275 276 263 284 274 264 269 284 234 231 218 219 195 202 196 188 187 201 201 186 183 181 183 171 190 178 180 176 191 205 193 156 168 173 177 174 167 168 173 170 178 190
269 264 274 291 261 273 280 282 275 277 277 294 267 266 268 276 284 232 227 232 211 214 215 209 207 196 201 198 168 169 167 165 167 180 187 148 189 198 197 178 155 174 198 187 187 192 181 190 181

GFSSGP_2pvu_pres_075.txt.gz
Presure
107 166 121 131 135 128 120 120 132 105 72 149 140 143 129 94 130 155 108 169 152 161 135 157 136 135 139 137 138 155 160 152 111 94 108 90 122 134 111 110 144 153 95 124 133 103 114 112 147
128 115 131 152 122 102 119 129 96 124 147 136 173 161 163 185 123 108 151 91 153 105 142 125 150 154 132 136 134 135 88 163 143 165 154 136 157 133 89 99 125 170 91 137 125 129 120 142 126
104 115 139 124 125 123 127 122 136 145 125 147 102 88 153 185 155 163 106 135 91 96 100 97 126 148 112 118 137 87 136 113 107 164 161 106 150 92 88 90 90 108 151 102 115 119 155 116 115
112 108 193 124 139 134 155 119 114 157 129 138 146 128 150 158 188 84 159 83 104 136 87 87 146 113 129 132 130 85 133 140 138 135 160 162 85 95 168 110 90 115 161 125 136 111 84 110 104
113 120 104 109 120 125 105 100 104 139 135 138 142 148 190 169 79 178 150 141 80 115 97 85 88 91 95 90 108 88 137 129 88 103 134 155 155 99 92 90 88 143 99 91 78 73 73 78 76
137 138 150 128 139 125 114 153 138 137 124 134 119 146 162 153 192 76 174 144 123 112 133 92 127 88 92 90 90 88 94 91 89 87 127 118 96 159 90 127 117 149 101 93 76 72 155 111 154
158 167 132 229 143 102 165 150 119 111 124 132 134 147 137 193 163 190 82 94 206 107 137 147 142 92 91 93 92 89 94 95 88 90 90 95 97 97 95 141 106 97 99 112 86 105 144 123 114
105 292 120 103 241 87 132 87 62 140 136 134 143 141 132 148 186 196 194 123 121 204 131 157 155 150 154 94 99 101 88 97 97 113 90 90 120 97 95 104 88 104 107 79 155 76 116 76 70
152 171 117 183 133 181 159 131 147 162 147 137 136 125 148 144 163 187 165 179 149 139 166 136 159 130 136 157 97 105 93 97 89 94 91 99 101 99 99 101 102 113 107 82 97 116 107 124 119
276 153 175 140 145 150 159 132 165 143 126 130 83 78 145 136 200 199 169 176 179 133 155 184 156 168 117 153 158 123 87 128 90 130 104 103 92 105 105 100 111 132 148 97 118 122 142 97 82
160 163 136 131 131 160 142 130 152 140 139 141 136 146 155 145 188 170 164 151 164 151 106 163 172 148 171 135 159 153 164 156 142 106 146 152 139 119 107 111 109 73 88 143 107 80 85 98 107
179 136 131 178 156 152 115 80 133 140 140 142 146 143 180 194 76 205 218 175 169 171 174 82 87 154 114 168 125 160 162 99 145 166 166 164 160 163 85 146 119 145 145 141 73 130 123 72 115
151 139 141 159 131 148 103 127 133 142 145 158 158 228 210 202 218 215 211 178 155 179 142 149 156 161 170 149 149 178 159 160 148 125 144 149 145 151 124 148 140 108 153 105 98 122 135 134 143
145 153 162 175 159 169 119 158 163 166 136 272 335 200 223 239 246 191 207 204 207 133 167 174 137 152 179 146 162 110 89 162 167 161 142 161 136 137 150 122 98 156 144 153 75 151 102 100 150
144 178 299 185 191 353 322 221 174 169 246 166 307 240 228 212 217 206 189 213 178 186 141 171 163 156 164 164 151 163 168 147 106 142 134 153 151 161 161 124 144 152 138 143 148 83 80 82 83
180 150 203 243 361 341 328 330 329 324 244 328 330 231 214 212 215 211 215 218 219 161 154 165 93 186 172 142 141 168 154 135 165 163 156 139 128 147 92 160 155 153 138 146 78 131 150 158 155
375 410 422 366 355 316 315 333 313 302 305 299 315 233 214 199 212 215 266 191 183 164 179 158 172 161 162 169 145 127 170 143 147 157 159 174 150 95 153 146 150 130 120 150 154 151 150 151 160
397 417 373 360 322 325 305 320 301 307 300 288 278 217 220 231 205 215 234 194 175 193 166 164 169 194 164 140 148 159 140 133 162 143 148 88 160 127 167 171 167 158 159 124 162 161 157 160 163
335 346 357 317 328 291 286 307 286 296 303 302 256 223 211 193 235 207 210 185 186 195 186 158 166 165 172 170 165 147 173 134 156 143 161 135 168 169 176 178 179 173 176 165 169 169 165 160 154
321 366 330 299 294 286 303 290 286 311 295 285 237 215 202 186 219 226 233 225 174 171 165 166 162 180 162 177 158 168 157 160 130 156 163 159 153 160 195 175 174 186 159 161 169 197 143 198 179
348 336 296 298 290 283 277 277 295 291 303 266 259 231 210 206 207 205 206 197 182 176 167 174 181 169 169 180 173 165 171 157 149 141 166 160 150 135 191 170 154 168 174 152 188 198 195 171 198
339 314 291 281 291 264 275 262 270 297 300 247 240 218 219 212 225 234 236 223 190 180 174 163 179 174 171 137 178 142 168 170 158 172 166 178 127 178 159 167 168 178 180 143 176 192 199 181 196
301 295 288 277 282 290 281 267 269 294 297 246 240 219 217 210 215 205 216 210 236 189 171 166 173 159 158 168 193 169 162 173 171 155 160 171 161 179 159 158 159 162 171 141 193 199 214 201 179
297 285 281 269 270 280 266 251 282 302 300 306 244 229 223 214 204 207 223 207 207 205 192 169 174 173 162 172 164 169 180 163 175 179 175 158 169 175 184 168 164 171 187 155 172 182 200 180 160
296 280 267 272 266 256 276 265 267 285 317 297 234 232 224 217 206 218 210 213 207 207 207 190 210 171 205 167 167 173 162 163 167 182 157 166 169 163 162 171 178 183 173 189 179 183 160 171 170
282 298 281 274 270 279 281 282 282 273 295 292 243 236 226 226 223 215 222 219 204 223 209 206 275 206 209 196 198 180 145 171 157 159 153 172 156 179 161 165 167 173 164 157 168 185 166 167 170
281 279 274 266 261 280 252 286 264 277 280 279 258 233 238 218 192 203 218 207 226 221 190 222 201 192 178 195 171 172 193 175 153 185 164 164 170 162 158 159 162 178 163 187 192 172 165 211 180
281 285 285 255 276 269 279 278 270 260 284 276 254 240 237 221 218 218 207 203 207 213 225 209 215 203 193 200 183 190 183 172 161 166 181 161 166 162 165 159 173 179 191 192 173 169 190 191 188
277 271 292 278 271 268 271 271 273 263 270 274 255 248 245 229 215 212 209 224 209 207 197 209 194 197 209 200 169 185 150 198 170 163 156 136 174 178 169 169 166 168 198 175 164 151 161 188 171
294 269 263 273 268 265 277 278 260 273 264 266 279 244 250 224 233 237 223 202 205 213 203 190 225 206 217 190 202 223 186 138 174 184 197 167 159 152 175 153 170 165 167 158 194 215 169 145 163

GFSSGP_2pvu_pres_078.txt.gz
Presure
130 121 154 130 137 115 128 133 94 80 141 115 125 144 119 178 87 158 132 160 152 162 167 154 154 127 152 141 143 139 139 102 99 92 92 92 91 102 84 139 107 92 148 113 162 83 123 124 142
129 111 102 135 137 121 129 90 125 140 99 142 149 101 157 89 133 134 99 150 98 161 167 161 142 157 159 155 133 116 109 135 141 132 135 140 160 153 158 149 88 157 133 113 121 76 131 101 129
156 122 134 123 141 118 135 125 133 123 144 116 138 132 149 173 151 111 101 89 130 118 162 159 158 144 159 141 146 135 120 137 137 92 133 142 160 95 110 152 98 89 95 115 157 95 102 92 109
126 117 124 121 104 113 128 139 94 136 133 154 124 145 133 124 105 161 122 163 177 126 120 95 143 90 102 150 128 88 146 84 102 135 133 134 135 97 161 155 91 90 89 159 128 95 85 110 150
90 118 110 112 115 116 121 148 126 121 143 102 118 121 133 140 97 144 137 174 168 128 78 103 85 82 153 156 146 149 128 125 131 132 88 148 134 122 159 147 95 137 95 144 98 152 71 89 102
130 109 108 104 113 114 123 114 145 97 150 108 117 132 129 135 139 139 141 129 149 86 101 91 136 88 83 88 96 96 100 80 116 135 135 90 88 129 147 96 96 91 95 133 98 97 81 71 77
121 116 93 101 93 108 110 113 121 113 89 115 126 101 140 131 139 138 138 171 160 155 79 118 137 121 89 118 87 87 96 89 88 93 93 88 115 89 141 98 142 94 147 124 99 103 87 77 79
156 150 114 95 116 97 87 139 151 140 209 138 136 131 126 138 128 137 141 143 148 80 156 77 82 166 95 89 94 92 96 88 86 86 93 90 90 91 94 91 97 92 97 98 86 105 107 92 97
233 151 159 167 238 161 184 149 80 89 112 158 129 144 133 134 115 117 135 135 149 155 182 177 198 130 171 102 109 156 147 97 93 149 94 92 96 88 96 93 94 95 106 102 98 111 98 108 154
138 112 160 211 181 92 266 224 140 147 201 140 136 132 133 133 135 121 134 146 144 152 197 222 173 157 145 172 139 117 124 122 132 91 150 119 85 94 94 98 87 107 105 117 81 109 82 116 102
160 152 90 209 255 292 159 252 141 131 189 147 130 137 111 130 119 131 124 139 154 170 184 174 187 205 166 175 170 110 139 150 143 153 159 97 92 158 158 146 155 138 107 102 113 116 141 73 131
147 153 165 195 196 175 265 147 126 131 174 134 167 143 129 144 123 127 119 142 137 144 149 153 117 179 182 143 178 153 158 135 152 159 161 159 156 135 141 157 155 162 163 145 153 143 133 82 103
160 217 278 285 226 221 179 160 154 146 148 74 131 133 132 140 119 117 101 100 119 150 155 162 204 189 186 175 146 151 153 169 145 156 145 148 145 106 156 157 131 141 141 147 153 153 145 137 88
271 269 284 259 175 163 164 144 164 157 134 140 146 141 123 141 126 129 95 99 115 166 164 162 176 172 198 81 142 109 186 176 168 158 129 169 150 153 163 150 141 155 132 151 143 128 99 150 140
267 174 191 160 154 152 114 140 134 131 138 131 122 121 137 130 118 132 139 136 150 166 173 169 212 185 180 183 182 169 148 130 146 179 84 138 127 163 163 153 160 138 144 144 155 156 79 76 148
258 153 137 150 143 144 152 140 138 142 137 137 127 140 120 134 146 135 132 164 150 162 170 189 174 165 196 190 174 167 149 154 132 164 107 169 159 163 163 151 135 145 158 136 100 156 142 161 136
164 151 154 137 138 148 138 132 170 272 182 159 175 146 144 158 151 147 141 144 171 171 165 178 176 171 183 177 182 195 135 178 140 147 161 169 173 152 109 141 123 186 146 104 128 140 166 141 149
189 183 189 191 368 375 142 222 326 331 313 208 181 174 167 166 164 150 155 180 178 171 165 177 186 180 162 189 159 178 141 130 171 139 167 147 143 157 96 145 169 149 102 166 173 154 177 174 170
201 195 285 505 439 371 362 335 333 329 331 334 370 344 300 224 217 207 210 196 154 165 178 171 181 153 182 185 177 155 159 148 166 156 127 154 154 170 124 150 157 135 181 108 150 169 161 154 172
241 385 395 246 377 221 346 327 321 324 325 347 355 313 274 224 214 201 185 225 190 199 186 168 168 172 174 176 200 189 178 179 162 155 153 184 157 158 183 137 165 152 153 164 168 155 167 172 137
374 373 363 318 328 320 313 314 301 301 320 343 303 295 274 214 206 215 217 209 206 192 180 210 177 193 181 182 191 168 151 171 150 153 171 150 148 151 158 156 164 138 170 135 174 179 151 166 177
326 341 342 313 293 305 294 297 296 290 332 308 295 285 255 226 208 200 219 193 180 180 205 196 185 178 179 181 193 175 187 161 191 131 194 143 194 174 149 162 159 167 168 132 163 151 191 150 191
323 310 305 290 286 295 298 283 287 301 326 287 290 263 234 231 213 200 208 198 179 197 200 200 215 180 174 162 169 164 173 180 195 199 131 162 188 139 179 178 161 176 175 156 186 177 156 126 150
296 296 284 288 283 290 286 280 289 293 275 302 278 225 214 219 224 207 229 231 235 225 206 188 203 217 174 186 175 189 177 180 161 178 158 175 162 182 188 173 165 166 175 182 157 179 150 175 182
284 288 284 272 282 291 278 273 280 272 286 289 274 225 216 215 205 215 216 212 209 222 218 215 208 197 185 198 174 179 168 188 168 181 172 143 161 173 171 191 189 180 172 167 165 159 180 169 193
284 291 284 293 283 284 275 266 276 265 272 307 238 244 213 210 210 214 201 223 203 206 198 197 190 194 215 209 171 190 180 182 167 173 173 166 176 183 192 168 176 153 179 161 159 167 161 189 195
275 280 272 279 274 280 265 260 259 271 299 276 238 236 219 215 227 214 223 195 193 191 203 219 218 200 198 190 186 175 191 180 183 187 167 169 171 195 155 185 198 165 175 166 180 157 174 180 176
283 282 268 280 276 297 272 268 272 275 308 275 250 215 224 221 212 222 212 211 216 222 213 219 210 201 199 188 200 191 192 179 175 177 176 178 173 190 178 175 167 178 186 180 161 185 166 181 184
277 285 278 277 262 251 265 260 273 264 282 298 251 231 229 229 220 214 207 221 212 207 223 227 227 202 200 228 192 187 182 177 192 181 187 180 166 166 194 177 168 174 175 177 191 175 176 164 180
299 278 289 275 268 268 267 273 278 269 275 289 240 291 232 234 223 223 219 215 214 200 206 202 203 214 217 225 225 208 189 182 181 178 175 180 179 173 170 205 199 209 172 164 165 186 193 193 185

GFSSGP_2pvu_pres_081.txt.gz
Presure
146 129 105 108 158 130 130 126 126 144 101 118 153 141 109 85 137 146 111 83 140 162 166 157 161 150 153 139 144 138 143 139 87 100 135 98 91 94 105 94 159 100 89 103 152 164 125 97 99
135 123 111 122 144 90 113 123 83 131 110 68 134 133 149 108 115 141 118 119 154 136 156 163 142 164 150 154 134 158 134 144 141 135 110 103 115 160 159 159 162 159 125 102 95 136 103 134 102
110 126 116 131 136 132 135 127 107 93 87 144 88 105 130 128 154 80 143 86 143 143 131 110 168 165 163 155 153 154 159 136 139 125 131 138 141 136 145 153 84 95 95 91 83 118 105 147 88
164 118 128 142 124 103 142 120 146 117 99 95 134 143 140 132 130 155 107 176 87 125 97 84 128 139 73 164 160 151 143 155 121 140 136 134 114 135 134 135 124 142 162 93 120 143 154 73 73
117 112 134 121 141 125 144 116 142 125 135 116 139 134 125 141 132 140 149 152 166 179 170 154 106 96 131 148 124 91 139 138 117 130 87 136 116 136 135 147 91 129 96 128 123 81 127 82 100
146 175 133 118 96 124 123 111 97 111 117 119 137 114 97 145 102 140 139 141 140 165 165 124 82 178 84 88 80 116 160 158 154 139 126 128 120 128 134 89 89 133 123 99 96 96 128 89 102
138 96 158 120 105 100 139 134 112 138 89 120 89 98 109 100 131 107 113 142 153 150 150 117 127 83 137 88 145 89 85 86 87 106 85 90 148 128 89 89 142 90 139 94 94 95 97 78 97
133 135 216 140 117 151 110 112 96 116 118 111 96 105 133 122 122 103 114 140 142 143 165 135 189 113 179 80 83 109 90 90 90 93 90 88 90 90 91 91 116 90 130 96 122 96 104 126 100
158 149 176 177 100 131 105 123 108 118 135 123 107 97 126 132 144 141 132 99 122 135 138 138 92 180 196 152 110 85 88 88 94 91 92 91 84 107 94 89 100 95 72 93 109 100 102 115 95
134 209 158 198 144 137 170 157 122 159 135 150 114 76 131 169 126 125 101 130 139 141 125 146 151 142 150 194 163 182 134 139 159 140 151 154 98 114 90 106 90 89 151 102 139 96 106 102 92
125 135 146 146 157 104 111 127 144 78 111 136 131 134 169 130 128 148 140 133 129 129 144 127 160 168 139 150 175 167 182 126 155 163 150 90 148 107 143 147 151 149 92 139 130 154 90 126 152
101 123 151 248 108 153 148 165 75 94 270 147 186 244 167 122 142 141 151 124 147 123 144 129 141 128 136 149 162 173 172 168 176 164 141 160 141 160 150 153 142 151 135 147 112 164 153 148 144
123 140 123 124 133 150 151 140 175 272 160 190 110 155 161 150 205 153 90 137 137 131 143 143 139 143 144 144 156 146 171 180 154 149 155 169 157 147 147 147 142 74 112 143 157 103 133 140 149
133 126 146 139 150 132 160 138 199 185 158 248 140 138 148 176 123 156 137 122 116 152 138 130 137 133 134 143 145 189 160 161 179 106 160 157 141 157 147 154 124 143 166 163 137 156 138 142 147
136 140 140 139 133 137 159 261 273 270 154 198 200 108 125 173 173 142 157 104 115 139 111 80 116 131 149 150 145 156 114 146 179 136 155 188 123 82 157 160 177 159 121 155 150 89 163 111 134
134 141 140 137 172 268 279 234 279 171 310 184 193 177 133 139 163 132 145 88 135 102 124 126 126 129 99 143 153 154 170 164 166 191 178 143 168 178 174 133 138 157 168 152 135 161 93 149 145
216 155 216 267 265 243 278 272 171 264 103 172 161 161 141 154 154 132 138 136 125 90 115 129 126 130 136 146 155 153 183 171 167 180 185 179 167 174 160 161 160 186 179 193 165 138 149 141 162
159 240 274 158 151 162 153 147 143 142 149 146 154 157 134 129 126 126 130 115 112 130 127 130 123 127 150 151 162 156 155 198 163 175 192 171 176 161 172 147 164 159 191 167 151 134 144 172 153
171 143 142 141 141 149 150 148 142 143 144 149 145 139 150 141 146 134 138 125 122 124 142 138 124 138 154 151 153 164 168 193 159 178 159 170 168 170 126 182 153 138 176 153 159 164 170 127 181
146 141 150 150 150 237 198 193 156 191 188 144 158 157 158 134 133 136 140 124 94 150 147 134 140 150 150 154 157 168 185 188 184 201 163 176 161 185 179 132 179 128 166 140 156 160 160 181 172
158 170 164 191 191 298 380 363 347 351 340 328 326 284 279 173 173 197 150 150 156 145 148 182 153 154 152 156 164 164 177 169 164 161 163 158 176 168 129 173 153 135 166 145 161 162 130 169 145
199 219 331 384 377 378 377 346 341 330 332 332 330 345 380 278 224 180 194 158 159 158 158 162 159 178 160 175 164 151 177 159 171 179 172 155 172 169 167 166 164 176 146 178 134 164 135 160 186
377 326 339 327 325 341 347 317 341 314 318 335 319 334 313 264 241 218 207 171 161 203 164 171 156 161 186 143 178 195 178 183 176 168 181 160 160 177 169 161 171 149 157 172 162 182 169 159 184
335 313 304 293 306 297 317 308 303 311 322 316 374 306 283 254 257 259 204 233 178 210 180 173 177 166 162 167 166 162 168 180 166 171 175 185 177 172 189 201 182 186 153 149 157 188 151 162 170
298 292 279 290 291 290 305 292 293 293 296 283 290 266 275 251 252 225 232 229 209 184 194 177 183 193 178 181 185 181 189 177 170 175 190 182 166 156 183 189 155 171 184 178 191 184 186 189 153
274 299 282 279 300 298 299 291 288 289 290 265 273 252 260 248 236 220 204 217 216 210 200 191 223 186 170 172 183 157 189 162 176 178 174 189 178 186 185 166 151 189 162 193 189 173 178 175 160
282 284 272 293 277 271 282 278 293 273 276 254 282 257 256 246 228 213 225 210 205 241 209 214 183 191 202 192 207 187 184 164 192 202 201 178 178 174 176 203 188 176 202 166 186 185 150 179 145
295 288 272 272 292 271 267 275 272 265 258 259 278 256 241 247 232 221 213 212 212 224 214 212 206 196 186 195 211 189 201 210 195 186 189 163 179 182 177 175 181 170 179 188 196 180 173 167 190
264 282 275 286 275 265 266 269 264 257 254 271 277 258 249 243 227 223 211 210 214 226 208 199 202 213 201 191 202 189 189 193 191 185 189 184 182 171 171 185 173 185 188 174 196 181 172 189 200
278 279 289 164 260 269 271 264 261 269 251 272 263 246 253 227 222 219 224 217 206 202 201 224 232 212 200 189 193 197 181 217 191 174 183 180 171 174 192 191 190 177 172 167 174 180 183 206 191

GFSSGP_2pvu_pres_084.txt.gz
Presure
104 187 114 135 99 143 114 121 140 133 143 146 149 141 114 126 125 122 94 94 95 179 155 169 164 146 147 154 143 137 110 114 134 108 92 96 94 111 89 95 91 98 119 165 109 90 143 104 108
129 108 126 131 141 131 128 98 108 117 144 143 148 132 135 125 148 111 88 159 93 122 104 149 147 151 160 153 154 153 147 152 137 145 136 140 127 143 94 149 168 162 87 161 113 91 126 103 101
107 132 127 178 127 128 145 152 96 140 117 138 117 134 115 160 155 117 160 105 117 157 126 135 93 155 175 179 162 165 157 142 149 135 148 82 130 138 143 133 143 138 158 147 153 161 96 88 138
199 136 141 104 150 137 137 151 158 94 118 118 99 92 142 139 154 131 153 139 83 124 116 162 204 87 128 150 172 165 85 156 144 161 136 100 146 87 136 139 139 136 134 124 122 145 151 97 131
163 134 138 185 105 142 132 125 146 114 113 146 135 109 132 108 132 138 141 97 155 128 158 154 121 122 86 159 129 104 125 154 143 153 141 86 135 134 144 88 123 98 89 105 104 137 106 95 95
149 159 122 133 120 160 131 146 95 122 94 134 141 139 127 117 134 116 132 125 144 162 172 130 153 74 98 133 99 122 75 113 126 162 156 155 156 157 126 127 130 127 90 99 137 136 145 85 96
190 149 131 127 148 145 129 118 156 167 138 109 123 113 108 130 114 102 139 100 124 138 129 119 142 178 169 148 180 166 79 81 136 81 100 82 90 111 152 89 148 99 90 95 87 124 147 89 124
140 159 151 139 141 149 131 101 107 107 116 95 103 107 117 99 104 107 115 100 112 102 111 121 136 145 138 144 167 169 186 179 143 132 84 87 93 87 93 92 91 90 95 93 95 96 91 143 134
122 132 149 193 153 164 168 175 128 113 142 195 148 125 102 188 112 121 115 119 142 132 133 115 137 160 148 133 144 94 153 162 171 127 85 86 87 92 91 87 92 89 122 97 90 89 88 104 77
160 143 137 169 146 163 112 87 130 147 116 125 68 151 111 155 123 115 110 118 125 137 101 125 127 135 131 144 124 113 174 152 169 175 153 131 155 142 91 103 97 149 94 118 136 160 114 96 165
111 135 141 152 145 132 155 142 148 124 130 137 149 152 162 124 130 95 101 133 131 133 136 115 141 129 140 125 144 149 139 149 142 167 174 174 146 124 157 149 115 149 97 148 138 158 163 118 139
88 213 140 139 142 152 140 183 144 103 93 247 127 127 211 147 112 149 149 146 133 144 153 141 127 145 128 125 128 130 151 139 154 165 149 165 180 167 159 163 141 152 130 148 148 161 78 166 123
184 150 213 168 98 111 138 103 174 218 146 86 81 156 151 156 168 141 163 281 234 161 158 141 138 134 107 137 133 142 136 136 138 135 162 141 164 177 167 158 157 151 151 143 157 147 161 155 163
153 154 133 141 136 135 98 125 146 117 121 132 155 131 140 280 69 114 125 168 95 203 87 120 115 138 134 132 105 140 138 121 131 144 136 178 117 169 162 121 166 153 159 148 141 115 150 168 110
156 218 182 111 132 127 275 143 129 132 163 158 150 147 318 233 141 167 138 149 152 130 131 119 127 115 131 138 106 132 140 127 126 134 141 148 185 159 169 156 170 162 88 155 148 165 149 145 125
139 134 153 110 167 135 133 134 133 153 139 135 152 157 206 152 171 236 178 125 129 141 142 189 124 131 74 145 139 122 151 122 123 132 134 144 153 146 188 185 170 189 158 150 119 168 147 136 148
153 134 124 161 126 138 142 142 144 157 133 140 141 149 210 231 284 292 184 149 163 143 118 173 159 139 155 131 139 137 136 135 125 125 150 148 160 150 180 160 152 177 151 176 146 176 146 146 164
136 135 149 146 152 144 129 134 142 150 219 157 266 260 286 293 298 343 264 225 115 161 170 183 126 132 140 139 137 117 129 130 131 136 131 166 150 164 162 168 160 179 186 172 179 163 136 169 161
131 149 126 141 135 138 149 151 153 299 272 249 242 283 211 276 176 202 202 199 238 162 142 175 199 133 127 145 139 138 125 129 136 132 136 166 154 171 159 181 159 178 163 147 189 184 173 147 180
253 153 152 170 152 151 192 168 237 138 145 320 363 162 283 149 143 156 226 161 241 124 144 126 128 152 161 142 132 124 130 144 128 145 135 167 153 161 157 167 176 178 183 185 167 160 170 180 149
154 158 140 142 153 230 149 147 150 147 143 142 146 145 141 142 134 142 132 154 155 150 129 132 138 139 139 139 141 139 128 166 147 165 157 153 169 161 144 179 159 175 162 154 174 161 166 180 152
141 186 370 376 206 150 150 139 148 146 160 147 153 143 146 148 142 137 135 137 133 120 134 145 136 135 139 132 149 130 136 139 152 148 156 164 156 174 151 184 158 179 166 194 186 173 154 188 169
144 150 149 141 148 143 159 161 178 318 191 193 180 172 157 153 149 144 145 150 144 139 134 136 135 142 145 144 148 147 168 107 162 153 162 161 186 143 174 189 173 202 193 172 179 185 170 186 171
152 157 210 209 324 316 331 343 336 345 347 340 330 339 314 282 199 201 158 161 154 148 145 148 152 156 174 158 172 157 161 169 153 153 164 198 189 188 183 148 180 189 176 176 183 168 170 156 172
301 299 296 238 296 298 307 326 322 320 321 321 324 331 291 265 252 258 251 254 174 167 168 163 199 166 163 200 175 189 176 182 182 178 166 163 156 172 148 167 185 181 167 166 188 167 165 175 161
302 298 289 293 302 293 305 315 314 312 307 303 314 305 256 248 245 237 255 263 245 210 202 179 219 205 181 194 178 175 186 165 173 169 149 162 170 172 170 180 180 171 185 180 154 170 170 159 165
147 282 297 293 296 296 285 295 300 287 285 295 316 254 249 244 238 242 252 231 238 204 202 188 187 188 190 196 190 163 174 161 200 175 177 188 177 186 171 181 172 172 194 177 177 169 171 171 181
220 294 300 235 291 281 283 283 272 268 273 278 273 250 237 238 245 225 242 250 223 212 203 195 190 205 194 170 180 174 189 192 177 188 185 201 180 167 180 169 172 188 187 179 193 173 171 175 181
274 296 178 218 173 275 276 279 262 272 271 261 266 255 250 257 234 230 245 242 250 216 209 201 199 181 188 198 196 182 178 174 188 179 189 190 191 192 184 184 181 190 183 179 184 181 193 180 198
254 277 279 273 266 270 282 270 261 264 260 261 256 273 243 236 245 227 227 245 223 230 224 201 219 187 188 207 215 210 200 183 198 183 188 185 177 181 200 185 182 194 167 179 202 179 187 199 200

GFSSGP_2pvu_pres_087.txt.gz
Presure
142 129 142 114 151 144 148 127 127 133 115 118 141 161 153 135 132 76 101 135 138 116 84 153 145 187 142 164 154 158 97 94 139 124 109 109 105 114 103 144 90 90 137 103 115 103 166 102 98
144 129 152 149 146 124 132 104 111 113 125 128 136 139 145 117 87 118 78 85 115 131 142 107 170 157 209 168 149 149 156 157 150 139 144 150 114 139 147 143 149 147 148 161 113 150 158 158 163
175 153 142 128 124 175 167 166 122 138 103 143 139 143 114 152 145 125 97 116 139 82 131 176 123 169 173 92 173 146 152 149 148 154 152 140 107 143 137 137 131 143 139 147 132 141 141 128 144
194 109 110 121 144 157 131 147 163 184 132 140 157 141 124 111 129 133 129 144 95 154 83 157 90 84 132 125 82 159 139 173 178 166 153 121 152 97 132 88 133 90 89 90 89 148 140 134 132
144 156 202 160 134 101 120 146 133 117 138 129 103 118 151 101 89 141 103 160 199 133 118 101 98 103 132 165 155 138 148 173 105 170 173 147 153 166 162 152 83 133 144 133 133 127 89 134 133
146 148 167 185 136 95 175 112 117 143 126 187 117 111 129 115 147 112 116 123 128 117 125 136 156 188 177 144 83 112 148 135 108 97 84 159 120 168 156 145 145 117 119 97 123 122 96 115 92
148 142 155 150 159 164 111 152 126 130 122 164 139 150 138 121 131 147 139 123 106 111 131 111 142 115 113 150 143 150 186 155 83 83 85 135 85 89 88 89 93 91 151 89 90 95 93 89 101
150 128 146 132 193 159 60 102 141 120 212 131 167 119 122 123 99 110 117 114 105 123 108 110 136 145 186 125 203 160 159 157 183 152 187 169 118 107 91 88 88 92 89 131 93 92 95 96 87
124 123 136 162 147 171 149 139 184 135 165 123 112 117 114 124 112 112 126 106 105 116 116 102 120 136 123 172 127 149 128 125 102 135 148 182 172 111 108 88 103 110 115 91 90 99 152 86 157
135 123 124 127 200 181 147 177 177 181 136 121 108 97 111 147 108 141 105 121 127 123 105 116 126 131 127 122 123 131 127 139 133 158 164 150 160 152 161 165 181 163 152 135 134 149 140 149 138
116 149 128 148 147 170 155 151 111 173 158 143 142 147 135 90 79 224 127 126 167 75 100 137 133 127 105 128 131 122 140 129 128 124 129 144 147 150 160 179 165 155 171 134 154 156 158 150 154
124 127 120 146 166 114 126 162 76 127 133 156 90 132 89 117 132 134 191 98 159 152 99 129 137 133 139 142 137 120 128 115 112 130 138 143 129 181 158 149 162 173 168 162 153 170 155 131 159
130 122 125 127 123 118 145 144 155 157 170 218 145 138 150 147 141 125 121 170 145 133 251 161 207 151 148 145 139 133 124 142 147 125 140 128 125 142 137 169 139 138 169 173 174 163 155 152 147
121 114 132 130 139 123 179 149 144 191 103 108 125 186 144 125 148 146 185 213 120 103 140 106 148 223 158 187 153 127 148 132 86 131 137 149 134 139 124 134 140 186 175 148 165 154 157 152 168
126 125 132 136 135 210 131 99 138 124 128 104 147 143 167 154 133 146 132 131 173 163 205 129 159 166 133 117 122 134 133 151 97 89 125 138 135 119 113 125 133 141 169 170 166 165 158 149 172
131 134 137 142 130 148 158 152 157 107 129 78 209 188 182 220 237 164 150 244 157 145 143 150 144 181 124 142 129 127 101 139 123 155 105 137 115 126 119 103 118 139 140 167 172 158 166 171 188
119 124 139 136 138 144 173 165 157 139 137 135 136 133 148 141 138 137 162 251 161 144 151 237 195 119 154 146 157 134 111 125 146 141 124 125 121 119 117 126 130 125 139 145 160 181 187 172 159
129 138 130 142 154 149 137 229 139 141 177 153 131 173 194 146 135 147 141 143 145 149 167 219 206 193 150 181 122 186 89 139 151 128 155 118 135 109 132 126 129 131 136 148 148 180 152 183 153
150 136 163 178 338 141 131 136 148 141 138 151 147 142 130 137 141 142 143 148 149 147 187 155 212 199 241 193 159 153 185 123 142 148 149 140 122 147 117 134 135 82 135 162 144 158 162 161 157
281 162 140 152 138 142 142 143 313 154 232 140 138 140 137 142 150 152 152 156 257 270 276 189 241 176 206 177 166 122 118 175 182 146 159 136 125 129 135 148 136 149 141 155 148 154 173 156 162
241 213 141 141 148 145 147 145 149 151 141 139 142 150 148 147 316 163 251 253 270 267 224 210 246 219 183 155 165 138 157 170 141 176 136 121 135 128 140 143 145 156 159 149 159 176 145 167 125
135 139 141 151 156 155 159 161 142 143 147 146 144 231 252 178 144 226 205 262 264 111 245 253 240 234 196 223 152 167 168 143 180 145 133 146 146 141 128 141 146 142 198 157 181 165 159 177 174
141 148 154 156 141 140 133 140 151 152 167 154 137 141 151 151 144 144 208 357 143 143 301 152 141 139 150 142 143 167 151 142 138 138 148 142 143 154 145 142 144 159 124 171 160 181 168 159 179
258 152 249 141 140 152 280 133 141 169 167 162 149 150 148 142 144 149 146 145 151 151 147 146 150 141 139 142 143 142 156 145 142 145 137 142 136 149 148 154 171 168 169 158 195 160 148 170 162
166 144 152 170 168 161 161 160 162 158 156 156 155 156 154 151 151 163 232 157 152 153 149 147 145 145 143 141 143 140 141 141 143 144 147 146 146 163 157 176 159 164 152 154 154 172 173 173 195
165 148 157 163 285 314 320 320 324 313 318 319 306 297 296 310 265 168 165 160 158 153 152 158 155 145 150 147 150 147 145 143 143 151 144 150 149 189 155 158 167 162 169 154 170 169 172 183 173
303 273 303 301 300 308 300 306 303 302 304 291 289 277 282 284 263 255 248 263 188 173 164 159 157 158 158 155 163 158 155 162 154 160 161 156 168 159 184 200 161 194 200 175 180 170 163 169 179
206 287 188 297 284 283 280 283 281 292 296 272 269 267 254 247 260 249 245 241 252 260 253 174 183 172 166 167 175 185 221 221 171 162 192 170 201 178 179 166 180 184 179 170 190 183 187 154 186
120 122 288 250 160 276 274 275 273 285 280 262 256 256 254 246 244 251 260 240 236 261 250 263 251 208 186 196 206 179 193 182 191 179 189 189 213 191 220 196 208 184 158 165 167 173 178 196 184
113 155 277 291 113 275 271 265 114 276 278 250 253 249 246 243 242 245 247 247 235 257 245 248 249 208 207 188 187 195 212 206 193 193 201 219 196 215 194 201 194 199 212 184 184 182 178 179 171

GFSSGP_2pvu_pres_090.txt.gz
Presure
124 114 141 156 134 71 132 143 101 153 152 162 88 108 129 146 143 152 132 138 150 144 126 133 165 131 170 182 203 170 155 140 131 106 95 140 138 119 148 153 129 153 150 166 164 164 156 133 156
141 130 142 126 137 139 135 145 152 147 127 127 129 136 135 140 170 123 104 130 117 129 130 106 98 146 163 158 158 153 159 162 155 158 155 141 137 149 118 149 137 145 143 150 147 157 153 114 150
121 132 137 131 145 147 144 161 160 134 135 103 128 134 143 130 146 106 89 76 81 112 85 99 160 154 124 162 128 187 149 151 154 146 145 160 152 145 149 128 140 141 141 101 98 104 142 95 133
191 121 113 107 178 121 81 158 207 148 133 96 94 82 136 145 135 118 135 146 95 142 76 153 142 90 103 173 126 162 133 92 179 171 151 150 149 158 150 156 141 151 84 106 133 139 132 131 126
134 148 101 147 136 156 152 140 130 205 160 170 145 148 126 119 115 134 142 150 135 139 126 106 134 125 123 135 81 103 144 135 141 142 128 115 107 83 172 162 146 160 152 146 126 101 86 89 121
142 137 155 146 135 155 128 129 103 137 88 155 111 134 98 125 115 132 101 107 109 176 128 157 143 125 120 147 141 105 140 84 146 139 111 123 123 113 85 83 122 159 125 90 109 118 88 107 89
168 125 181 148 139 190 139 174 113 159 151 133 154 122 189 181 148 142 107 112 98 208 138 113 108 133 119 131 116 123 157 150 119 189 137 84 84 153 140 89 89 88 87 88 89 90 96 118 91
154 204 171 143 163 145 140 184 150 152 195 114 109 118 127 129 111 129 152 111 139 147 131 122 147 110 130 109 120 108 156 131 150 156 129 138 184 89 141 150 85 121 91 88 92 132 98 89 135
133 138 164 162 112 199 173 150 158 184 152 153 144 133 138 104 154 136 115 125 131 119 110 118 101 117 106 131 113 125 150 142 165 121 139 162 168 142 185 167 173 163 169 156 162 167 167 164 120
131 124 146 141 137 150 133 148 146 143 134 185 121 101 124 130 124 118 139 128 117 123 113 105 110 131 104 121 134 114 133 121 130 117 129 178 135 117 155 159 165 168 147 155 162 163 175 153 127
197 194 136 137 123 146 131 136 136 173 177 154 152 135 139 125 171 116 137 153 105 91 161 226 99 104 132 124 129 131 118 121 126 131 138 118 135 151 122 143 137 163 153 161 167 171 170 159 151
130 137 132 138 129 144 121 147 133 82 135 155 199 136 133 158 135 117 126 152 208 135 125 109 97 150 138 115 115 170 146 134 127 129 127 134 118 140 124 130 148 135 168 165 157 134 135 165 173
101 139 130 131 113 136 134 135 140 137 169 146 185 166 151 149 190 119 140 138 95 156 140 155 102 101 121 148 153 152 121 145 138 141 128 135 126 138 129 131 136 126 137 130 126 124 177 170 145
118 127 130 134 129 121 131 131 118 148 190 153 151 145 129 150 114 123 119 94 135 135 158 144 149 146 240 166 166 187 189 140 149 137 144 121 136 100 169 147 120 139 119 133 121 126 120 152 172
141 138 130 133 131 135 123 131 145 159 134 159 72 138 202 116 114 128 228 133 158 129 178 123 101 186 90 171 162 130 118 216 133 143 148 136 132 86 154 149 147 137 128 115 114 124 133 125 134
133 139 139 136 136 131 132 138 133 140 134 148 135 108 124 150 132 142 160 155 219 160 145 156 165 141 199 166 167 169 147 137 232 157 84 133 152 117 138 116 115 120 120 134 140 117 122 131 141
139 134 126 126 131 133 115 107 140 120 112 118 217 150 146 165 157 133 213 155 158 136 159 174 133 135 149 142 159 171 141 124 147 189 164 150 129 143 117 144 144 124 132 127 130 130 123 127 134
137 133 134 138 129 124 118 139 129 134 139 130 151 141 209 149 133 144 137 220 163 141 143 145 158 154 151 161 155 150 164 105 202 161 191 164 117 145 122 150 112 147 139 138 129 132 125 134 149
166 134 133 133 117 117 126 133 137 131 136 132 123 136 177 143 213 141 141 140 152 142 147 141 120 144 152 131 97 158 216 247 153 126 166 164 201 132 160 149 146 139 138 137 122 133 129 132 138
155 155 141 139 129 131 130 144 128 133 141 134 140 142 159 129 138 142 208 178 194 206 141 144 150 146 143 131 134 145 201 230 218 181 170 147 114 143 148 161 155 154 138 132 134 127 135 139 143
144 156 155 137 156 156 141 282 133 224 147 142 253 141 165 151 201 165 177 139 140 130 143 141 121 133 145 145 148 203 197 236 198 194 208 139 143 161 149 149 183 158 128 149 143 132 140 133 138
140 132 143 233 156 147 179 144 155 144 148 137 140 137 147 142 140 129 135 139 142 143 147 146 143 140 155 238 240 227 226 261 152 210 207 202 191 163 149 182 170 142 132 160 149 159 140 138 141
149 143 137 146 171 144 146 148 152 154 157 152 141 142 142 137 310 140 140 139 142 144 142 154 136 270 230 234 259 254 217 153 223 141 205 145 142 193 143 148 157 128 133 139 129 158 141 149 145
209 146 219 171 154 141 143 145 148 148 139 142 147 151 149 146 137 163 151 141 171 208 255 137 132 207 152 237 149 241 152 156 150 182 155 199 163 143 140 160 172 136 141 156 138 148 173 160 141
149 150 156 153 152 147 149 147 150 153 153 141 142 236 145 143 161 292 209 150 186 148 151 149 147 149 256 189 241 243 166 153 147 139 140 146 150 151 144 148 141 142 146 147 162 155 144 142 157
143 144 153 156 308 172 148 150 156 182 185 184 180 190 164 154 153 174 151 152 154 153 154 152 154 163 183 230 212 152 206 158 158 150 144 143 145 144 151 147 145 153 155 151 177 169 153 156 165
157 161 161 167 172 131 157 176 184 207 185 185 185 183 285 188 187 198 177 195 168 175 276 268 173 217 194 166 155 155 174 158 154 151 154 156 162 150 152 152 155 166 154 156 151 161 164 164 196
158 144 149 234 180 288 297 296 287 285 289 289 286 279 267 256 277 269 260 261 208 178 216 229 270 218 204 161 198 240 227 180 161 219 208 204 198 216 209 158 183 180 153 186 172 208 211 188 202
136 184 211 243 168 197 229 118 110 279 275 167 275 265 259 254 258 271 251 256 249 250 232 210 236 182 193 165 197 180 188 166 183 175 207 214 221 191 199 170 209 180 194 213 175 189 183 171 171
127 126 123 230 109 113 275 155 265 223 276 269 289 264 253 259 248 246 252 257 250 245 245 262 256 242 199 178 255 238 220 197 223 199 217 225 216 225 213 191 192 215 203 183 171 191 187 196 187

GFSSGP_2pvu_pres_093.txt.gz
Presure
152 126 135 124 152 136 114 124 125 130 131 140 125 126 140 140 147 151 147 148 93 150 143 153 120 200 142 158 182 192 191 140 140 144 125 133 103 98 107 98 96 107 142 140 151 163 165 167 161
136 139 141 124 103 146 109 123 143 119 125 117 85 150 133 121 108 103 84 145 151 161 98 151 152 89 156 166 143 188 170 189 194 163 160 165 160 161 133 134 135 151 150 141 134 84 88 155 86
132 137 134 141 121 87 74 103 120 143 124 155 130 116 95 124 114 130 133 106 81 85 128 108 138 100 92 163 164 131 152 138 193 169 163 149 152 150 158 150 145 124 134 127 133 87 134 122 131
114 114 155 146 70 149 140 148 111 150 157 139 142 139 133 133 125 77 136 141 95 156 150 94 103 100 92 113 126 175 134 142 85 123 122 171 160 164 152 150 151 154 150 149 137 140 133 135 117
129 132 133 144 134 132 61 62 136 167 159 160 146 138 147 136 124 132 131 104 130 156 160 77 131 126 92 80 117 116 145 121 155 148 140 176 185 183 108 89 157 164 165 148 161 153 136 126 84
108 170 147 114 121 149 167 123 172 123 178 135 146 154 81 110 92 150 126 118 139 146 127 150 146 109 154 157 103 146 143 98 156 155 115 145 132 98 119 83 120 85 85 86 89 89 87 126 88
171 152 169 153 146 129 144 154 164 154 131 109 158 152 197 159 110 100 119 121 136 115 125 122 133 81 125 142 123 125 126 119 128 136 151 169 157 142 83 160 176 172 169 150 97 90 87 90 162
117 138 137 151 131 151 127 162 101 123 126 114 113 119 146 154 88 126 147 154 96 125 97 144 148 104 118 113 115 122 132 137 107 157 169 125 145 160 182 142 116 125 87 143 147 93 91 148 173
121 129 128 137 164 144 167 138 147 157 139 167 153 158 144 132 148 132 135 145 142 119 127 178 136 109 131 103 109 123 116 126 141 128 119 112 154 123 124 127 148 117 169 132 171 170 170 172 176
136 104 113 107 147 144 146 183 158 156 163 158 166 136 157 149 131 133 135 128 156 138 129 136 108 104 104 104 99 114 98 116 127 126 117 119 119 120 125 150 124 158 123 152 144 187 152 148 168
127 165 145 142 138 134 159 160 181 162 142 168 166 135 155 152 163 129 125 102 144 109 135 120 106 108 113 103 138 108 146 119 127 122 139 144 120 135 129 117 125 133 128 123 135 145 150 130 124
136 152 135 141 196 132 155 148 171 157 174 142 151 138 157 154 126 127 117 127 127 102 153 202 125 117 141 112 106 122 128 103 122 127 137 128 132 138 163 132 130 122 125 135 124 125 127 113 134
152 133 142 153 144 166 151 189 135 112 123 150 137 142 177 140 169 176 146 142 163 92 82 118 121 118 136 187 118 113 120 137 167 136 129 140 153 139 138 135 138 136 119 141 142 133 139 125 119
268 134 166 140 147 138 166 138 179 94 173 147 180 146 161 132 167 140 155 89 115 149 134 163 157 155 146 95 142 110 156 115 120 178 184 153 146 142 143 144 134 148 122 145 132 111 117 125 116
151 154 180 142 132 148 130 138 138 65 120 131 136 134 136 78 151 147 154 159 146 147 113 192 151 143 111 148 137 86 120 186 179 232 143 139 143 129 149 147 123 128 120 125 121 135 119 121 138
284 256 132 124 141 142 142 148 195 149 168 141 137 150 149 135 134 164 140 186 114 129 159 116 159 151 133 136 164 131 142 125 196 142 109 230 128 217 161 150 137 148 116 142 153 136 142 139 113
211 231 158 154 119 123 134 117 117 143 136 138 107 156 137 143 148 140 122 136 106 185 139 229 154 143 159 190 142 151 117 143 120 149 196 146 127 139 255 203 139 119 117 143 152 126 149 125 126
149 222 170 162 165 133 135 136 138 137 97 135 138 140 136 134 134 146 142 145 145 202 91 202 167 157 139 145 143 138 140 156 174 158 129 127 123 130 154 142 130 173 186 132 141 148 136 131 129
140 305 215 134 145 132 137 78 108 125 124 127 131 136 133 137 145 154 133 151 199 162 183 152 132 136 171 137 143 155 148 163 126 97 135 133 130 120 187 145 161 166 144 112 150 116 110 149 154
309 155 194 136 129 131 170 86 312 123 127 140 141 149 145 131 141 139 141 149 131 150 138 133 163 182 150 147 132 154 87 101 129 115 110 139 126 163 261 198 215 152 153 112 187 124 128 167 137
142 139 149 129 278 133 133 123 123 130 133 130 140 133 135 131 138 151 134 146 213 150 203 213 182 133 134 140 143 139 140 133 120 133 151 97 143 196 152 227 199 191 166 150 127 196 168 158 133
340 172 151 172 140 339 155 139 130 149 121 145 131 150 131 144 138 149 270 140 153 152 139 134 133 193 124 199 149 146 143 153 128 135 141 242 140 144 230 235 147 148 174 159 149 148 150 159 155
301 150 144 158 163 165 144 163 159 162 147 160 141 157 150 151 142 155 142 136 139 139 139 208 156 200 156 135 138 136 133 229 249 209 147 235 237 213 203 192 206 195 209 137 199 159 130 188 184
307 167 155 153 157 159 157 174 162 147 144 286 146 179 330 175 143 141 135 137 143 302 337 328 159 160 147 144 140 253 254 312 245 270 268 150 228 194 222 220 146 196 128 133 158 208 134 138 154
310 318 154 145 141 171 139 143 152 341 221 140 155 146 142 142 145 174 133 127 142 144 141 142 143 142 196 135 135 135 136 136 138 200 145 216 190 218 222 183 154 209 142 159 142 139 169 176 156
294 310 137 297 293 286 160 293 151 144 141 147 147 149 143 138 140 149 152 269 288 284 282 279 261 296 299 293 286 264 141 141 141 145 152 268 206 158 149 150 147 149 151 149 156 152 177 194 186
139 140 146 141 146 146 154 152 147 151 157 158 154 144 166 180 312 279 264 267 173 173 171 155 155 151 233 253 217 148 148 148 149 256 262 165 151 207 208 199 202 204 155 161 203 173 152 163 201
230 228 146 146 145 160 151 203 175 227 240 174 174 186 215 217 213 212 166 165 232 166 201 233 205 163 163 163 162 161 221 219 238 228 276 158 161 171 183 212 214 212 183 160 156 187 178 209 197
145 158 152 151 157 145 163 107 296 283 283 254 179 281 284 279 276 270 271 274 262 263 269 236 193 187 204 226 189 218 219 230 189 178 222 234 206 206 200 222 212 173 195 198 192 204 172 171 194
163 133 130 116 136 147 197 167 129 230 197 119 281 185 268 279 271 273 264 263 265 256 272 249 252 255 262 252 195 272 247 176 261 185 242 224 221 217 211 201 183 208 166 195 170 176 198 165 178

GFSSGP_2pvu_pres_096.txt.gz
Presure
119 149 144 111 117 136 145 146 97 119 117 121 127 126 107 83 112 132 127 98 142 121 158 97 171 160 183 185 184 178 182 186 97 156 89 138 159 128 143 150 150 150 133 134 143 151 139 138 131
133 137 127 138 139 133 145 129 143 130 115 123 100 112 117 123 147 138 144 142 155 152 157 158 153 161 149 153 163 151 165 145 163 185 174 153 164 142 166 167 157 140 137 141 160 113 130 113 107
179 138 134 129 146 132 140 131 117 156 95 132 124 131 126 124 147 157 117 89 121 116 149 142 100 134 83 147 129 140 136 140 156 127 128 187 168 157 161 145 160 159 151 147 145 152 137 136 142
127 156 120 143 151 136 145 145 84 123 148 138 148 116 122 152 129 123 133 130 105 142 85 84 161 156 90 86 118 125 142 157 169 133 142 149 152 193 183 177 143 150 149 140 146 147 99 144 148
149 130 156 151 141 134 138 140 129 116 70 113 146 140 148 137 155 80 144 125 142 79 93 154 120 128 133 148 94 152 156 129 124 141 160 179 147 132 143 149 117 92 165 171 162 163 143 90 90
140 120 136 116 157 126 159 94 116 127 154 136 137 142 136 139 150 143 150 140 127 153 110 135 77 126 125 117 153 99 118 128 107 194 170 90 170 166 130 86 137 87 85 158 131 90 124 89 109
138 138 130 118 160 150 134 137 129 129 166 120 161 134 133 142 117 91 119 149 129 101 102 140 86 104 140 118 129 123 136 134 120 118 126 117 115 179 151 170 167 137 176 141 110 83 150 170 167
140 117 132 118 135 117 129 156 124 172 148 155 117 138 156 133 86 136 143 106 150 130 103 128 121 115 114 81 137 111 115 104 125 132 119 110 110 119 120 127 116 127 123 117 120 122 168 129 126
145 136 119 133 119 138 151 137 161 128 164 156 160 197 141 119 130 153 126 92 157 163 107 116 134 137 127 140 132 110 117 111 123 117 132 118 148 134 110 117 124 118 131 135 116 181 157 164 185
120 153 142 144 119 116 147 144 147 136 151 143 139 157 125 133 113 179 163 104 135 122 130 142 127 132 127 110 118 157 106 133 105 107 108 123 120 129 125 123 121 133 120 132 131 122 121 124 119
135 123 162 118 140 123 121 136 123 152 143 185 184 156 143 150 162 131 156 204 169 157 136 131 116 143 156 145 129 102 101 102 115 110 158 136 184 128 140 140 103 130 120 143 146 114 123 140 179
126 135 117 143 165 122 140 142 132 157 147 155 166 155 113 188 164 175 159 189 136 158 125 160 143 151 131 108 104 109 103 108 109 114 94 97 119 115 129 129 140 140 144 125 129 146 121 147 128
122 135 126 132 126 152 128 113 134 132 176 150 195 173 184 155 199 155 172 151 152 168 124 135 141 127 116 107 107 104 163 112 99 114 109 143 110 130 114 148 134 152 134 133 161 134 171 126 124
143 142 122 149 125 143 126 168 146 151 143 147 164 164 150 139 136 153 184 162 151 177 155 126 137 115 121 213 115 125 95 91 127 126 153 129 108 163 189 126 167 150 142 151 151 144 122 129 143
154 125 180 144 154 147 140 149 150 140 201 139 152 148 135 144 179 137 152 145 149 162 144 223 169 163 107 144 194 172 126 143 122 143 110 154 131 187 141 121 200 166 125 126 127 150 129 147 158
249 137 132 171 149 149 169 147 177 152 148 145 131 170 140 154 120 127 160 145 88 118 168 158 145 107 157 85 143 143 154 140 172 141 106 118 116 113 134 213 111 135 138 159 143 122 184 120 109
251 240 174 150 199 215 172 151 183 148 116 135 147 141 130 145 132 98 145 171 146 98 121 157 133 145 151 119 147 198 122 135 132 149 132 174 123 185 133 146 175 131 135 140 103 181 142 172 123
232 241 243 220 256 174 154 156 131 163 145 151 101 161 174 135 131 135 138 136 137 136 148 205 98 164 146 130 132 148 151 165 114 171 171 131 140 164 147 156 140 123 125 133 153 135 160 195 140
230 272 140 144 147 152 73 107 70 115 99 137 145 132 140 134 132 133 127 129 127 135 133 203 148 133 142 140 156 151 123 158 169 225 211 136 204 109 126 97 129 130 133 125 137 140 163 172 210
249 280 253 270 142 150 158 193 161 156 138 96 134 138 135 142 134 136 129 118 131 134 134 147 134 149 141 152 144 155 154 193 174 157 146 127 138 144 104 143 160 138 147 118 140 134 171 159 151
242 276 293 318 334 260 148 180 106 71 80 135 149 136 138 138 137 129 126 132 139 121 134 141 142 154 200 151 145 157 149 159 136 141 129 152 129 162 145 148 109 143 137 118 133 160 157 188 145
284 319 329 333 380 185 150 162 401 140 145 134 125 134 130 134 134 128 141 118 134 140 129 143 149 137 136 136 137 135 135 148 139 169 134 128 178 170 105 155 196 129 138 177 239 224 217 208 184
325 335 374 352 337 378 166 379 138 151 150 143 135 127 147 168 129 148 143 138 137 142 141 132 129 127 128 90 158 183 134 138 142 143 128 134 142 217 137 153 180 123 150 190 239 230 225 182 192
359 332 355 355 298 143 381 179 394 163 161 133 161 159 159 159 137 151 151 148 169 170 139 141 140 135 137 143 144 185 178 139 137 137 131 134 137 138 128 129 189 196 260 145 176 205 216 135 132
329 275 321 331 336 288 155 232 141 165 188 147 151 150 158 147 140 136 261 142 140 135 136 137 140 131 127 134 139 143 141 148 139 136 134 130 127 138 139 135 135 246 201 220 173 231 172 189 196
294 296 214 301 299 150 241 132 160 148 148 148 147 146 170 158 160 229 140 144 138 136 132 128 127 133 140 153 156 142 158 153 146 322 317 365 309 300 301 299 140 143 155 163 209 169 220 139 135
275 293 275 276 272 165 149 157 154 265 299 158 158 180 146 145 141 143 146 147 142 142 167 290 169 295 199 212 202 254 325 187 294 278 165 288 277 162 163 143 144 142 154 191 208 208 159 153 191
291 126 280 279 287 212 236 169 146 144 147 149 146 148 184 282 306 296 294 245 311 302 300 291 302 290 287 203 281 283 271 277 278 278 279 261 256 261 208 230 205 212 225 201 183 174 176 196 212
245 277 275 150 143 145 150 153 148 156 156 206 292 288 116 285 280 275 262 179 214 215 211 240 275 242 276 272 254 232 263 271 197 238 268 249 234 217 220 215 214 182 165 174 177 178 209 199 203
142 143 143 157 148 156 144 137 139 111 123 144 256 119 111 151 135 273 285 279 268 269 260 263 262 193 114 258 182 207 206 218 181 181 175 181 200 220 259 182 205 196 204 218 210 195 212 201 206

GFSSGP_2pvu_pres_099.txt.gz
Presure
100 121 121 111 131 122 131 115 137 103 92 133 136 145 147 150 156 95 99 133 135 145 112 186 184 145 186 188 192 145 182 152 167 170 101 175 165 130 108 155 154 164 156 155 144 133 141 146 137
118 124 123 119 162 114 119 131 130 158 113 114 115 126 126 152 126 83 96 81 115 153 152 141 153 153 139 179 131 137 136 136 126 163 149 159 119 145 173 168 120 140 142 162 157 152 111 146 138
143 155 135 134 128 152 153 132 138 126 132 111 110 120 121 119 81 127 147 151 151 139 134 138 153 152 111 152 139 165 136 128 144 157 137 132 144 126 190 175 172 180 168 153 153 142 131 134 149
137 200 139 168 124 143 131 136 147 145 136 116 141 146 141 130 114 126 135 84 89 93 124 130 87 88 98 151 143 161 168 128 119 133 145 171 161 133 148 136 143 150 171 183 159 160 91 116 155
131 124 161 168 158 138 139 133 148 153 139 135 148 106 166 142 138 125 130 111 124 126 118 129 82 82 159 165 149 89 134 125 157 161 120 140 125 98 124 154 158 99 130 99 83 161 149 155 119
140 127 123 130 134 152 126 106 95 175 64 94 141 138 130 148 144 147 110 118 127 134 141 114 84 103 146 92 166 152 111 136 148 100 119 133 110 128 143 141 135 154 118 196 89 106 159 83 121
133 145 164 124 155 145 137 148 146 134 151 141 155 146 136 139 141 148 138 144 139 81 83 96 111 100 121 81 103 132 143 130 133 123 133 122 127 139 117 153 123 165 130 141 127 147 185 177 133
127 161 123 140 120 150 141 131 150 170 165 125 87 115 160 134 167 143 152 151 141 82 159 129 186 100 140 185 138 104 140 163 134 144 126 190 129 127 122 114 117 119 116 121 121 128 116 120 125
133 133 127 124 129 149 116 141 118 130 139 157 146 151 171 133 152 132 146 150 109 132 139 192 127 107 156 77 136 103 118 137 109 120 132 127 129 154 121 116 128 125 117 119 123 119 112 131 116
126 126 138 142 173 138 147 116 123 114 114 156 121 183 130 142 124 120 126 136 124 146 123 167 166 136 148 122 159 106 133 127 107 116 113 111 102 140 101 130 132 119 136 128 154 126 130 153 119
169 160 173 175 119 160 129 139 127 145 145 136 151 134 137 158 151 133 156 123 134 112 166 150 132 113 118 136 122 103 130 124 157 114 107 89 113 110 96 100 147 120 156 127 130 142 136 130 130
168 177 162 134 147 132 135 131 136 118 138 138 149 141 171 130 127 177 162 132 113 153 172 93 128 139 121 145 117 163 132 116 115 108 106 102 108 95 104 147 121 120 141 138 153 139 144 126 138
157 164 172 182 174 124 129 171 150 112 102 141 142 141 201 153 154 194 147 137 154 146 139 115 160 173 169 103 112 152 134 111 109 108 103 108 105 106 122 124 136 122 137 106 152 170 149 154 149
164 173 149 155 127 156 135 147 124 148 124 109 139 139 179 149 160 150 168 162 149 170 176 196 148 157 136 96 127 115 125 125 113 123 150 166 93 97 125 144 130 116 118 133 141 152 239 143 127
244 247 169 175 257 168 174 120 150 155 126 132 111 175 144 146 197 152 153 156 176 195 159 174 166 164 115 122 154 183 181 116 107 99 150 124 175 148 124 136 146 153 207 140 137 147 132 158 135
237 228 237 241 269 122 134 180 126 119 130 123 119 157 99 183 152 206 143 154 140 145 150 148 141 154 144 216 139 135 103 103 142 140 112 98 129 205 139 147 122 146 161 128 126 141 152 105 132
230 231 237 229 252 204 136 157 146 141 103 156 144 141 154 143 144 186 142 157 145 147 148 133 145 145 150 143 117 195 145 157 121 141 165 123 146 179 125 137 142 116 124 192 142 162 115 132 129
228 212 227 226 238 222 232 206 145 145 242 149 147 144 154 168 147 142 121 137 93 88 134 135 125 145 140 158 135 149 136 136 142 153 178 178 133 124 200 126 191 131 123 138 144 132 123 121 145
225 225 238 256 252 243 254 136 253 152 205 268 156 158 152 132 134 150 119 156 124 120 139 143 142 136 183 143 133 122 114 146 122 123 134 153 141 125 157 192 137 115 139 136 116 124 185 128 136
229 216 237 240 236 257 254 254 286 69 250 161 149 208 147 123 101 135 112 124 141 103 134 141 136 139 138 138 123 139 141 141 140 182 126 130 139 160 133 128 120 133 128 120 128 131 133 134 120
243 238 233 244 266 260 241 232 273 91 136 96 114 130 139 141 128 160 136 148 129 128 138 139 137 139 138 145 126 139 132 139 156 143 124 115 138 133 130 132 188 159 130 132 152 174 125 152 148
251 252 250 263 257 277 225 316 336 145 259 372 136 245 284 92 147 145 133 133 99 132 132 134 138 130 151 133 146 131 129 133 135 134 138 131 136 124 110 127 128 219 147 129 170 164 109 164 152
258 262 270 275 290 316 417 422 148 409 423 137 82 91 146 150 119 124 132 135 131 132 134 141 141 135 153 138 138 130 132 131 139 157 129 140 141 198 143 203 127 122 133 129 142 144 151 118 185
278 274 262 334 369 331 339 339 195 257 281 187 300 135 142 127 129 133 182 365 203 152 141 136 140 141 140 145 152 149 272 132 131 136 133 134 134 133 128 132 181 174 137 182 134 153 126 198 137
328 362 349 331 327 325 322 301 318 346 255 175 131 352 260 169 130 168 162 146 140 152 142 137 133 138 141 137 136 137 139 141 173 126 129 134 177 188 163 155 129 129 134 170 133 130 129 159 191
340 322 308 311 308 300 304 303 139 295 322 308 310 281 133 158 155 152 158 144 140 135 269 343 215 145 132 132 135 133 131 132 133 141 142 161 187 188 198 145 194 204 203 203 209 209 211 282 282
301 300 298 303 295 294 293 303 152 163 147 156 149 150 150 148 144 147 146 144 145 144 141 140 140 140 141 142 141 166 170 327 171 154 145 243 265 262 203 201 208 209 161 313 279 285 269 251 239
279 275 291 206 281 289 224 142 146 145 153 148 157 291 240 239 148 144 145 146 147 148 192 152 200 265 293 305 302 312 305 290 298 288 289 256 268 230 304 278 256 281 281 271 251 262 251 243 236
184 275 289 231 142 291 284 260 283 129 146 151 151 149 155 235 283 283 246 179 287 289 243 194 293 298 294 313 267 268 276 152 267 284 280 277 293 276 268 265 263 260 256 257 260 242 237 209 220
140 142 138 130 146 147 144 150 153 153 146 147 149 161 264 295 280 126 279 144 147 272 273 263 278 279 113 270 235 277 118 245 106 94 279 272 265 267 250 242 248 259 250 252 238 177 167 163 162

GFSSGP_2pvu_pres_102.txt.gz
Presure
90 117 114 124 126 127 142 151 97 80 90 94 92 81 94 96 96 95 103 164 151 160 143 152 156 131 166 120 186 190 185 190 146 144 177 132 154 162 111 171 171 143 137 141 138 157 161 147 143
93 103 111 114 99 109 119 115 104 145 121 139 113 93 94 139 117 146 150 107 150 142 152 138 133 154 127 118 139 156 122 186 126 134 124 134 162 96 101 124 135 174 160 133 142 157 149 153 134
128 159 115 96 103 110 114 143 143 115 150 130 114 125 122 132 132 134 131 135 84 115 149 136 150 129 144 136 135 150 137 162 128 139 170 145 156 188 129 175 180 112 189 183 191 154 150 149 151
136 127 126 104 102 160 131 178 110 115 121 128 139 141 107 127 123 135 76 114 106 155 151 147 155 138 145 126 108 92 147 171 129 128 148 125 140 122 173 125 164 150 157 135 149 136 90 85 148
126 118 157 145 132 129 127 145 127 155 119 130 89 123 131 109 133 91 118 147 119 142 106 157 138 146 106 88 141 96 156 119 148 171 104 108 165 130 131 154 142 164 173 151 120 134 103 139 111
149 136 182 128 177 143 150 132 100 100 127 136 124 117 109 80 146 148 123 110 137 144 110 133 145 124 141 144 133 150 132 160 161 127 135 167 81 150 107 142 88 138 154 137 159 153 152 140 162
143 142 133 129 140 158 146 106 65 160 132 71 76 138 118 116 131 103 135 151 123 110 142 142 115 81 84 86 106 158 105 155 140 128 151 143 124 115 125 147 124 124 117 131 130 127 121 136 118
127 130 139 131 126 190 126 167 135 146 131 133 162 161 140 117 132 141 133 141 148 76 112 98 83 83 78 129 117 119 92 132 135 129 139 111 134 115 164 111 123 148 119 115 117 123 120 119 122
135 149 125 137 142 160 124 125 132 87 118 143 125 142 123 160 192 148 121 140 150 143 150 148 99 152 156 136 142 104 144 135 120 142 134 141 138 122 133 103 135 94 123 119 127 112 119 119 122
162 151 146 133 136 144 151 130 123 162 141 146 177 133 163 119 165 112 182 168 167 162 150 85 170 143 155 189 123 120 138 134 132 132 139 118 115 113 102 117 114 118 114 105 111 126 161 130 139
163 174 161 153 137 131 136 122 137 129 133 137 131 119 124 145 122 147 144 131 196 143 136 109 99 149 176 192 179 199 133 126 174 104 117 125 83 116 113 112 115 97 129 98 135 106 129 126 137
157 167 146 152 182 130 140 128 123 127 132 131 118 126 124 133 120 139 144 125 121 132 135 124 130 136 147 168 130 148 125 126 128 111 125 131 150 117 111 109 90 114 137 114 130 136 135 118 143
151 158 161 164 177 141 132 123 139 149 149 147 123 115 119 146 119 189 132 143 183 158 127 186 128 131 152 136 125 110 124 103 133 149 110 151 105 117 109 105 107 115 110 138 164 127 92 140 144
151 156 158 158 156 162 174 132 167 129 157 135 136 137 132 149 155 145 155 145 132 146 198 191 128 116 117 152 146 159 128 157 117 161 133 150 142 111 124 109 121 168 115 122 162 129 124 132 162
151 151 156 148 155 121 144 170 140 157 137 135 130 113 111 136 140 127 142 149 140 157 164 210 124 170 190 118 186 113 131 152 134 140 136 133 108 111 110 112 121 134 147 118 139 156 143 106 107
211 234 233 158 228 158 158 164 166 173 125 129 140 133 112 106 136 119 183 177 155 160 173 166 207 154 188 181 191 191 145 116 125 161 94 130 187 110 145 146 161 119 156 132 107 134 131 92 154
217 230 229 212 190 239 197 258 170 131 147 178 148 125 132 139 126 125 122 134 144 165 175 188 179 161 151 153 150 147 178 116 146 137 149 107 131 109 102 132 153 126 220 140 162 178 125 134 157
216 216 217 223 238 238 236 235 228 219 174 135 122 132 137 118 130 110 130 132 133 165 140 144 151 137 149 146 141 130 149 166 145 152 133 131 194 165 132 157 155 146 136 201 133 120 163 195 123
220 214 221 231 224 234 235 238 250 201 256 265 170 172 122 142 123 161 132 144 144 136 152 140 146 147 127 156 168 145 135 143 137 143 132 153 141 134 216 152 114 143 126 148 201 114 134 138 120
219 215 197 226 222 224 218 237 237 248 251 161 266 135 142 149 161 147 155 142 135 144 148 140 165 119 134 130 141 138 142 132 147 136 119 144 138 143 153 144 100 122 154 121 123 137 122 172 125
226 232 234 236 233 241 244 248 254 259 267 271 193 202 129 171 101 239 140 135 129 148 185 179 124 136 139 151 148 136 132 140 145 119 136 123 117 151 130 161 127 102 140 122 140 135 146 198 126
242 240 238 238 243 250 261 261 268 272 280 159 88 382 246 132 428 259 137 146 141 78 135 127 110 138 125 145 130 142 147 145 144 136 138 138 148 135 133 129 185 125 127 133 130 139 203 205 149
249 251 258 264 262 253 256 266 274 279 192 351 401 390 429 410 391 132 215 91 137 141 141 138 133 138 131 140 149 139 151 138 141 148 120 129 131 131 132 167 128 127 133 133 127 134 124 140 137
277 271 265 268 273 269 265 278 281 295 286 424 426 136 127 88 89 260 304 126 136 127 128 119 131 135 133 135 155 143 142 150 136 166 149 150 135 184 134 129 128 122 122 123 135 173 139 134 135
254 209 271 286 303 320 328 311 325 320 331 330 285 417 360 326 146 143 141 121 143 130 123 130 128 277 149 141 151 152 148 144 147 147 143 142 136 134 135 162 174 128 131 155 131 197 185 208 149
306 314 342 332 325 317 326 314 310 308 300 145 317 319 165 164 132 135 158 132 133 130 133 154 158 148 148 138 136 135 148 150 149 135 137 135 133 132 134 134 156 144 135 136 136 136 177 143 142
318 303 313 309 301 300 295 295 298 312 305 306 277 327 345 174 135 160 300 278 188 164 159 159 155 137 161 336 315 149 137 137 141 142 140 146 174 181 183 158 235 318 165 295 189 178 179 179 180
289 294 285 288 283 290 281 288 288 281 285 143 284 296 195 159 238 155 213 139 152 148 146 148 148 145 143 140 140 142 143 225 323 321 306 208 294 317 311 302 283 275 275 283 267 266 266 263 261
280 277 277 298 265 281 282 276 267 276 276 281 283 140 153 155 199 250 298 299 298 154 151 149 164 201 203 153 248 282 288 289 282 283 274 242 293 260 292 107 181 296 277 204 205 265 206 274 248
274 267 144 275 240 274 249 156 275 152 243 239 152 150 152 268 256 162 152 264 278 276 276 276 125 211 284 271 294 264 267 266 226 271 262 266 269 110 128 285 272 277 263 179 257 256 260 253 259

GFSSGP_2pvu_pres_105.txt.gz
Presure
91 85 87 87 84 96 105 94 97 108 91 86 93 96 96 75 143 95 96 97 165 92 160 162 153 170 168 110 179 97 168 178 167 174 99 141 88 137 105 158 94 177 176 136 136 148 145 146 148
108 95 91 101 92 88 127 138 103 106 119 89 87 91 92 92 95 93 97 95 144 134 148 154 145 121 145 123 145 159 147 180 167 165 149 147 131 137 184 144 175 153 150 156 193 172 153 146 152
134 149 94 92 95 96 96 129 125 129 140 133 121 96 95 94 124 87 110 146 134 137 149 139 160 150 99 124 124 125 124 137 127 159 129 161 175 168 163 176 135 180 153 127 158 174 180 167 166
113 132 120 145 103 96 118 112 115 118 116 114 143 138 136 129 95 113 138 137 142 123 80 87 150 136 147 145 172 136 122 151 96 132 150 91 118 157 165 126 146 107 182 168 168 153 150 144 83
139 154 153 147 168 147 119 98 100 104 119 121 123 151 139 117 136 127 115 130 126 107 140 124 142 151 138 156 141 160 135 103 89 137 168 85 172 153 156 143 143 151 102 125 136 141 142 149 156
135 127 129 126 119 135 128 130 125 102 107 110 114 114 130 137 113 111 125 148 82 120 137 132 140 146 117 113 133 102 148 164 151 109 125 170 101 85 123 120 139 147 130 152 164 147 146 116 124
145 135 140 135 117 129 153 118 128 115 112 151 141 134 124 156 141 136 105 117 122 121 125 118 149 145 142 90 115 96 151 139 132 147 136 161 127 145 122 137 113 145 110 132 125 116 130 122 124
124 136 140 134 140 129 131 132 144 142 135 142 138 126 139 146 123 124 130 141 150 101 153 147 138 98 118 150 80 132 126 127 166 148 109 137 114 144 104 132 108 121 119 150 122 121 118 116 114
163 140 129 193 139 141 125 157 126 153 110 111 109 158 101 135 153 151 123 112 146 144 134 147 75 172 110 153 80 92 124 90 153 154 138 138 108 132 111 126 126 145 122 98 122 100 102 130 123
158 163 174 131 134 138 140 128 130 137 140 153 140 89 155 130 146 130 149 105 132 139 136 143 116 131 146 139 124 119 133 186 126 150 82 136 164 146 143 129 131 103 114 115 108 98 123 125 105
161 156 180 174 121 132 140 148 136 126 158 120 128 125 129 186 139 163 103 101 149 146 125 151 141 165 146 149 119 124 146 154 130 128 98 142 125 136 105 137 145 125 116 103 102 101 99 89 101
155 156 157 164 168 140 133 125 138 141 128 128 114 135 138 128 148 147 154 158 139 147 179 164 135 159 138 135 129 133 167 106 132 201 178 131 150 148 135 143 130 97 139 95 102 109 111 135 120
142 151 158 166 160 167 151 133 140 138 138 174 130 121 180 149 139 126 122 128 147 118 139 165 122 111 141 127 113 130 142 183 120 151 138 116 173 118 126 110 141 130 116 104 107 126 127 108 115
151 147 150 149 157 163 168 149 126 132 133 135 119 134 131 131 139 121 125 119 141 124 131 179 128 131 174 134 176 125 147 133 163 114 128 124 105 118 140 104 132 132 195 120 124 119 173 133 149
165 148 151 149 158 152 162 165 168 139 144 166 139 125 132 138 127 114 95 124 141 126 177 148 135 167 166 137 151 181 115 129 128 154 138 132 154 134 123 127 144 140 121 120 104 126 121 137 97
219 235 234 152 151 158 159 164 169 167 161 139 159 134 133 168 143 143 131 140 183 159 146 150 143 173 148 188 181 133 148 196 84 143 167 137 142 141 159 127 123 147 139 114 123 162 135 98 168
215 213 216 209 217 216 179 157 164 167 123 129 130 135 156 139 160 133 128 116 125 133 133 134 193 157 148 192 157 181 180 197 168 179 121 168 154 115 142 159 127 150 106 141 132 131 131 148 131
209 214 212 210 208 225 217 157 225 159 161 164 161 162 127 166 153 139 114 103 128 129 137 125 130 131 149 150 162 192 158 110 154 155 145 148 136 167 137 140 105 164 142 141 154 136 121 152 130
214 210 209 216 214 222 224 233 231 237 134 240 167 118 139 179 128 130 162 128 130 133 133 131 159 137 132 141 155 190 210 148 149 150 141 139 141 153 153 138 152 127 151 192 134 156 133 125 141
214 220 221 214 213 215 221 224 228 238 232 226 241 247 142 184 148 124 189 151 131 126 124 127 133 168 166 156 171 154 159 146 137 142 157 143 145 128 148 127 145 142 126 140 150 140 139 130 110
210 213 218 220 223 231 233 232 232 227 232 242 247 253 215 250 210 238 162 141 126 124 129 142 142 271 142 145 184 200 150 151 131 161 145 146 135 146 127 132 143 123 141 153 134 142 137 136 150
226 223 224 226 228 237 241 241 236 240 242 244 246 261 267 285 182 327 240 472 104 133 143 148 149 90 147 147 141 123 149 120 127 136 147 130 126 132 142 135 129 142 125 124 141 141 126 193 126
235 234 237 241 244 243 250 251 244 248 256 267 275 170 306 80 451 451 152 151 142 366 150 360 136 119 145 133 168 154 140 137 135 152 135 135 118 140 133 135 138 136 132 129 129 126 206 132 129
276 275 270 268 258 251 254 257 265 280 298 285 297 347 446 442 335 278 310 354 249 297 285 313 234 136 141 139 142 135 135 128 135 138 125 120 153 146 140 137 186 134 124 129 135 135 135 130 131
277 276 277 283 289 276 277 265 274 341 329 327 349 364 319 316 325 93 160 82 91 103 125 132 133 144 145 142 139 127 127 135 125 138 135 144 133 148 146 138 143 135 130 137 144 135 134 145 156
243 239 240 237 255 282 336 320 302 319 316 343 351 301 194 302 307 310 172 173 321 148 150 159 163 140 139 169 132 132 131 132 132 143 140 162 155 146 145 148 135 134 133 132 130 133 137 173 178
253 322 354 340 311 295 301 297 292 287 282 291 296 302 300 310 274 304 289 301 301 227 145 141 144 146 135 128 126 125 131 153 152 155 147 140 164 273 251 141 141 141 140 142 151 137 143 161 161
326 294 297 290 287 283 272 275 264 270 274 275 268 268 270 222 288 237 230 286 220 134 135 241 136 129 127 130 152 280 153 218 206 140 158 149 141 144 143 162 181 178 179 177 177 181 188 305 285
283 297 272 282 267 271 265 262 252 253 269 259 252 255 269 260 267 261 266 272 133 144 191 203 264 128 141 155 155 171 146 145 144 137 225 262 198 198 287 295 290 290 298 289 278 171 178 274 282
271 267 259 250 256 260 264 237 235 261 243 251 255 270 194 150 159 256 166 159 155 152 269 277 271 247 259 277 160 153 153 153 197 267 280 270 265 271 276 272 149 277 288 286 271 280 278 177 263

GFSSGP_2pvu_pres_108.txt.gz
Presure
94 84 83 79 87 88 77 115 91 94 116 95 84 87 92 103 81 88 92 100 96 90 101 97 127 159 167 89 124 170 166 113 105 104 173 182 103 90 104 108 90 167 116 182 183 189 138 150 150
96 91 93 85 83 133 82 83 88 98 141 92 99 134 89 95 93 78 98 95 93 81 147 120 122 144 141 171 162 182 167 181 181 144 174 174 177 171 150 160 174 166 183 153 144 159 145 171 192
91 94 94 90 84 86 79 77 104 90 111 113 103 124 101 82 90 77 96 83 98 97 146 134 152 153 140 151 134 136 136 144 175 174 151 160 133 173 141 178 161 170 173 181 182 138 184 163 182
139 112 148 116 89 96 89 91 97 97 132 130 124 138 137 135 141 86 99 99 88 100 149 149 145 142 135 157 150 149 136 136 127 147 146 143 166 110 147 167 156 164 127 170 95 103 178 150 145
129 147 127 116 124 133 93 87 87 94 93 112 125 140 123 127 155 137 143 166 104 112 138 143 159 135 139 145 152 144 139 153 119 140 93 129 84 89 139 103 156 94 151 162 155 135 152 178 181
141 161 151 133 113 119 130 111 97 100 129 87 110 102 108 127 133 136 124 140 139 127 134 133 119 137 127 128 157 150 161 113 147 110 144 112 119 151 170 172 102 193 127 151 105 129 108 129 129
151 135 136 174 131 110 93 127 113 133 136 101 101 105 90 109 139 140 137 141 121 127 132 77 132 134 125 141 134 90 151 104 146 123 104 173 131 133 169 134 155 118 132 128 133 147 126 130 131
121 122 143 138 131 133 134 149 113 149 134 178 145 95 107 110 110 112 129 146 121 122 120 129 131 122 130 139 143 142 122 86 149 148 90 99 149 138 162 145 126 134 129 127 134 124 132 124 127
172 167 116 147 139 140 139 129 128 127 116 133 129 110 148 118 126 94 86 124 148 124 106 109 118 121 130 141 145 120 116 109 122 163 81 148 156 151 120 135 104 146 116 125 113 125 109 96 98
164 142 166 128 141 149 140 132 134 124 125 135 121 134 129 132 142 140 95 88 143 131 135 131 142 137 138 120 128 140 129 119 80 150 131 150 154 125 139 162 138 130 123 142 107 120 105 110 104
161 176 133 167 159 121 130 144 166 138 143 132 141 111 126 195 130 129 159 154 137 149 130 150 156 139 138 132 126 140 111 153 108 128 161 145 135 158 98 142 142 145 139 136 154 110 115 108 106
150 153 171 138 160 172 129 126 130 151 146 137 137 151 139 139 91 133 166 184 133 133 195 156 116 145 144 152 124 146 158 134 152 121 145 150 171 137 207 141 124 110 129 104 117 144 120 136 111
147 153 163 162 182 157 160 169 179 148 141 149 142 138 132 139 133 150 137 131 146 155 145 191 162 160 118 200 154 134 166 143 126 155 156 152 137 154 162 122 124 110 118 118 113 131 210 122 113
140 143 148 151 148 171 174 187 162 169 126 137 157 161 159 130 136 128 135 139 128 139 148 128 146 166 123 135 140 119 116 176 128 183 128 161 140 169 135 147 129 127 133 124 144 112 143 128 128
185 153 137 160 155 154 153 160 179 160 167 130 134 126 140 141 140 137 129 133 187 178 145 133 126 134 142 128 134 133 142 145 141 133 122 127 191 204 163 131 129 95 131 136 130 187 196 155 110
228 222 157 141 153 144 153 154 117 158 165 169 178 133 130 138 144 149 152 129 134 146 138 117 136 131 149 132 162 148 145 162 177 143 153 125 123 132 153 127 151 207 136 152 175 144 131 130 112
201 225 227 240 165 143 148 148 150 158 160 161 169 185 159 131 136 140 142 132 132 135 120 105 130 151 151 143 165 153 146 165 159 168 158 166 138 140 194 137 157 154 129 149 159 128 159 136 156
212 218 213 204 220 233 232 213 234 153 157 156 159 161 167 159 142 137 162 132 131 138 141 147 139 124 119 142 136 131 133 149 148 166 165 187 186 162 153 162 134 152 149 125 126 125 152 159 153
213 208 197 213 210 214 225 222 235 231 231 230 161 159 165 164 172 159 136 136 142 135 172 148 133 126 127 118 124 127 135 140 181 152 149 167 186 173 157 194 144 149 147 158 146 147 120 144 152
196 219 193 223 220 216 216 216 219 224 231 221 232 215 162 181 165 123 142 142 137 135 142 135 144 125 130 148 143 136 136 152 143 193 193 163 208 200 142 146 142 153 140 145 149 143 149 159 152
214 211 213 215 222 220 224 229 214 219 226 238 237 232 243 187 250 257 227 183 228 113 133 132 135 123 142 173 137 138 143 132 155 202 215 155 192 154 133 132 134 140 144 151 142 140 141 148 139
218 217 221 227 228 223 225 217 223 228 226 236 239 238 244 252 264 114 142 117 309 341 333 381 145 129 140 133 129 143 132 140 145 216 167 259 180 176 130 143 135 143 131 135 124 137 129 143 124
233 231 232 232 231 231 234 232 235 236 240 240 245 254 265 261 99 197 204 372 369 263 369 140 300 386 149 364 307 155 150 143 307 149 128 139 128 139 149 139 144 127 124 118 133 124 138 135 142
260 258 259 260 256 253 245 247 245 247 250 259 278 295 306 345 361 252 260 351 327 290 297 383 197 235 154 151 229 150 133 435 267 131 140 199 212 138 142 133 141 133 142 128 131 132 128 142 128
225 269 264 261 261 264 293 289 283 278 285 281 325 355 368 321 307 318 316 321 329 161 159 81 345 151 356 288 157 197 249 158 212 141 141 140 150 135 128 138 131 140 130 119 133 134 133 163 140
231 237 244 246 265 265 270 266 259 255 308 306 308 310 297 286 278 280 277 281 318 327 130 138 334 338 322 321 301 127 131 353 129 150 136 316 127 132 130 124 133 130 125 142 128 145 146 136 149
245 252 254 252 251 249 292 311 302 290 283 270 282 287 287 288 293 287 262 274 298 290 299 293 288 271 304 310 310 320 146 160 136 128 151 129 127 126 135 135 148 157 152 183 128 128 146 150 136
241 243 242 308 300 297 289 281 278 270 276 272 271 270 270 271 269 269 263 262 263 270 280 279 294 292 297 156 299 303 156 167 140 143 143 137 134 135 136 156 151 153 137 141 267 150 140 142 144
313 301 296 295 282 279 269 264 272 259 254 261 255 261 260 269 270 268 257 177 242 266 246 173 272 198 276 134 134 135 231 272 182 132 130 141 145 154 236 153 244 145 134 145 150 186 281 298 172
284 297 275 261 272 272 254 249 254 227 261 250 272 249 259 260 245 263 238 256 257 147 258 270 266 272 266 259 273 152 266 266 267 194 149 149 151 140 112 106 124 111 107 101 104 118 141 229 270

GFSSGP_2pvu_pres_111.txt.gz
Presure
86 84 89 86 79 83 85 79 136 90 90 88 100 135 82 149 102 83 90 86 95 98 149 92 114 99 102 167 172 100 147 92 143 117 155 192 139 170 104 91 105 103 187 153 171 184 185 180 189
90 90 83 86 79 78 86 92 89 76 108 94 93 98 102 120 111 96 88 93 97 94 92 87 127 166 101 145 134 137 169 140 127 172 154 159 152 181 158 163 182 180 189 181 160 178 147 164 160
94 100 91 88 87 76 78 80 85 88 84 85 90 141 116 96 103 94 93 83 94 93 93 92 99 150 157 152 153 155 149 136 140 147 181 179 174 173 137 144 141 185 145 143 155 130 177 134 180
92 96 96 90 96 94 92 90 73 83 82 89 135 123 147 131 93 157 148 148 97 98 99 85 102 132 123 125 139 149 130 137 131 158 135 124 94 146 178 157 139 140 160 146 161 166 170 164 177
147 125 134 112 90 95 90 77 89 85 86 92 93 105 134 127 124 135 140 154 140 131 150 136 133 153 140 152 148 155 138 124 137 187 106 141 121 117 129 119 138 92 85 111 131 151 150 114 117
184 166 137 120 118 124 100 100 92 94 104 89 89 95 100 114 138 132 137 130 144 136 142 141 145 140 144 150 132 134 121 167 149 102 146 114 147 142 90 149 137 136 153 141 175 101 117 151 123
149 155 146 183 146 118 125 86 116 114 132 99 99 94 104 104 102 100 109 130 144 133 141 139 130 118 142 141 141 144 118 155 163 153 142 146 93 168 172 130 109 176 138 137 140 124 133 106 133
148 152 152 133 130 144 94 146 104 126 122 113 108 95 113 108 101 122 103 110 154 130 116 140 114 122 133 118 117 111 141 145 151 136 88 185 147 128 84 156 149 165 97 135 135 108 144 123 123
144 172 175 144 105 159 144 138 158 116 131 111 130 136 138 136 107 114 73 110 115 116 146 143 120 122 110 109 118 124 119 130 144 149 143 136 100 141 126 136 128 157 151 131 136 121 133 118 122
152 162 162 175 147 177 164 141 137 154 145 144 145 105 129 124 132 144 139 144 124 161 115 118 143 131 120 142 134 127 126 146 163 98 112 107 97 128 135 143 170 151 125 136 142 139 140 131 135
172 133 160 126 170 172 134 128 143 142 139 135 138 150 120 119 117 152 131 138 124 125 103 120 155 126 138 121 155 156 151 144 132 149 163 146 175 127 151 137 171 132 101 138 160 116 119 131 141
158 164 167 175 163 169 171 157 124 128 149 143 143 148 124 119 121 130 114 145 137 87 131 129 151 142 148 147 154 151 148 135 146 150 142 149 126 186 125 122 128 138 134 140 148 109 131 116 117
150 150 152 168 168 166 173 149 169 174 124 124 178 172 140 141 134 143 121 74 132 177 132 198 159 140 144 133 157 125 141 167 126 143 140 153 155 150 155 140 158 128 133 125 168 115 124 126 129
167 160 150 150 149 154 159 127 178 140 170 167 128 140 156 150 166 141 142 146 147 149 156 139 133 180 134 128 166 155 150 134 171 179 165 169 164 133 149 141 173 124 158 134 147 141 131 117 121
170 168 140 145 155 157 154 157 165 172 139 143 175 142 135 133 140 175 142 144 135 139 127 150 135 136 135 146 147 135 167 156 132 140 149 126 196 185 123 123 127 188 146 158 119 130 127 127 154
226 233 179 137 144 146 154 155 151 135 133 173 168 180 171 169 176 131 142 184 185 157 130 132 133 135 142 150 144 148 131 134 137 136 149 154 160 181 185 128 177 133 120 147 185 159 141 128 128
204 220 231 204 178 139 149 144 149 157 156 141 144 167 191 191 168 176 135 139 135 143 141 147 148 131 139 152 138 118 128 134 137 155 136 144 148 150 139 168 151 153 180 149 170 163 141 133 147
219 203 206 228 236 188 215 138 187 144 150 156 160 156 163 156 162 168 173 178 137 137 138 141 138 151 135 133 125 136 126 122 138 122 142 160 146 148 159 152 154 155 181 161 171 140 161 156 150
213 211 210 210 212 219 220 232 235 226 192 145 143 148 155 164 166 163 168 168 169 171 145 136 143 140 132 133 142 141 145 110 112 140 126 142 143 141 149 186 188 157 150 150 162 162 188 176 184
216 222 220 207 204 204 212 211 215 213 219 224 219 221 201 232 104 153 155 159 161 183 171 172 151 142 142 152 105 148 151 135 139 84 132 141 138 140 144 161 156 192 192 178 174 160 176 151 148
229 216 218 216 222 225 219 218 218 206 217 220 224 217 192 230 236 241 192 240 246 211 246 151 133 201 145 143 139 142 144 122 130 136 149 124 134 142 145 148 155 160 151 182 184 137 147 135 142
239 227 226 222 220 215 221 218 228 231 224 223 228 232 234 236 246 248 247 239 239 264 267 364 208 412 399 136 148 138 120 125 143 140 133 366 237 147 136 140 151 155 161 236 142 150 141 140 176
249 242 230 230 228 225 225 225 189 223 234 235 245 248 254 263 124 278 286 274 349 233 118 360 355 120 390 144 133 272 186 401 386 447 144 147 152 130 187 108 127 128 135 158 158 142 124 150 135
231 248 252 246 244 243 243 241 238 239 242 249 263 285 297 311 310 308 206 308 331 94 151 110 336 340 344 369 381 369 185 137 422 412 152 113 147 143 175 138 139 152 141 167 141 136 145 132 139
219 265 262 259 258 258 265 269 275 267 274 276 280 284 284 305 302 305 264 301 288 282 305 316 326 326 185 103 225 364 398 371 389 206 407 147 144 287 373 138 248 139 133 127 149 132 125 135 135
237 241 235 234 238 232 236 247 256 261 271 267 259 306 299 300 298 286 276 277 286 267 263 283 282 315 313 314 305 321 329 338 146 337 133 158 133 124 150 151 374 128 155 127 140 132 130 133 133
222 231 237 241 242 244 255 269 260 256 309 292 287 287 287 282 279 279 268 263 275 274 274 274 276 285 306 280 304 208 296 293 299 295 300 302 151 175 160 133 134 141 143 154 142 130 133 134 138
235 244 244 246 247 251 250 273 301 292 282 277 278 275 271 270 266 274 271 272 268 266 260 266 258 264 269 277 283 284 282 286 290 295 297 296 266 300 131 136 134 211 133 135 144 115 137 139 143
238 242 246 249 290 306 295 290 280 268 268 267 267 268 250 271 265 255 265 255 257 255 258 250 254 258 259 271 268 268 278 271 266 155 133 134 141 273 229 227 233 238 243 131 135 146 107 104 103
299 303 302 290 290 281 275 245 264 260 255 241 266 272 257 254 267 271 288 239 238 238 249 238 236 234 241 241 252 257 159 154 257 264 262 256 267 256 281 257 271 263 161 149 126 152 150 149 122

GFSSGP_2pvu_pres_114.txt.gz
Presure
97 83 81 76 73 77 88 88 143 136 73 128 84 91 120 147 141 127 154 106 104 141 134 104 143 90 99 96 94 175 178 170 127 165 134 111 191 141 181 180 96 90 177 150 170 190 152 157 175
83 84 72 82 82 87 82 81 84 130 89 115 90 93 90 100 82 131 96 85 84 84 95 94 85 89 121 120 133 106 154 127 179 165 154 142 139 153 147 159 194 186 182 175 188 191 168 185 162
74 88 87 79 86 86 87 81 84 88 78 89 90 89 88 96 95 105 131 133 94 88 93 92 89 96 99 99 151 153 160 159 150 156 171 172 170 155 170 174 181 138 173 192 189 165 157 134 152
92 90 86 90 88 108 85 89 83 79 88 82 83 80 86 92 143 77 98 102 101 87 90 92 94 91 138 104 169 145 159 101 156 142 168 143 140 124 97 92 122 167 128 140 126 109 164 173 157
150 103 93 90 82 92 92 89 89 92 93 85 102 82 88 95 97 144 134 112 143 162 164 151 162 159 154 145 152 159 147 144 138 119 150 139 150 141 100 122 160 101 141 101 84 91 149 129 158
145 172 146 93 93 95 99 88 74 94 89 87 78 87 94 88 90 96 145 126 128 139 146 148 134 130 138 127 149 126 158 158 137 119 142 99 136 93 149 149 114 89 105 117 148 129 130 183 151
157 157 164 182 107 130 96 96 94 84 104 93 94 96 92 89 94 95 100 109 98 133 134 135 141 143 127 144 131 123 155 137 145 128 158 170 129 93 104 96 104 145 137 147 142 158 193 133 114
159 180 102 117 154 132 143 125 107 124 113 99 103 110 103 110 99 102 98 104 103 110 106 109 141 132 141 123 134 124 145 91 145 117 152 165 103 115 117 151 150 82 163 116 145 162 95 134 140
172 172 150 153 151 153 160 161 155 116 121 118 112 117 121 134 134 134 106 141 110 129 110 110 127 140 117 131 140 121 115 122 120 131 128 113 101 99 80 81 113 145 153 151 142 144 160 149 120
132 171 172 170 112 144 160 110 147 150 141 151 126 124 125 126 128 112 116 111 117 85 128 114 118 124 128 152 142 134 126 119 131 124 134 140 146 120 105 105 121 140 144 139 153 175 124 134 142
148 140 119 118 172 169 177 174 146 134 138 139 144 134 154 110 111 121 132 137 135 143 135 129 126 127 135 128 122 140 139 140 142 156 161 114 144 170 138 152 137 152 133 133 127 153 154 133 170
149 152 134 181 143 157 166 135 180 175 152 176 175 146 141 165 138 170 125 120 124 121 127 192 131 109 120 126 188 124 151 128 129 128 128 142 141 120 137 153 142 168 146 165 116 133 145 141 134
140 147 149 142 150 148 159 158 148 162 176 160 165 161 163 142 140 138 139 134 125 121 114 144 111 143 134 139 135 126 136 146 149 135 153 130 136 140 151 149 145 149 160 139 140 142 133 135 139
164 151 139 142 153 144 151 165 131 174 156 173 170 167 125 127 140 154 145 143 133 116 130 125 130 134 134 158 131 139 136 147 138 139 155 152 150 154 138 151 149 196 187 132 158 173 154 170 135
186 165 180 159 141 142 171 152 172 138 131 157 147 174 171 186 159 122 125 128 149 143 152 147 150 128 144 150 151 160 150 155 134 140 149 169 160 131 136 152 194 135 159 120 123 128 120 126 181
220 185 189 195 166 145 142 159 157 153 164 172 160 163 132 130 175 141 179 169 175 133 135 141 161 157 139 142 133 147 149 133 132 131 143 127 144 132 134 154 137 153 140 155 184 165 180 148 126
219 222 198 165 166 164 167 163 149 146 149 153 153 160 151 177 132 131 136 142 184 196 188 183 135 146 171 189 134 129 128 131 133 144 152 124 128 136 142 135 142 153 150 183 151 128 163 116 139
212 204 211 221 218 210 199 166 170 170 171 150 158 165 158 160 156 152 182 133 129 171 170 186 199 146 135 142 145 147 151 133 139 139 146 144 127 133 138 123 143 152 136 154 150 144 150 156 168
209 212 219 197 203 212 211 206 218 238 239 136 140 143 149 155 155 163 160 145 136 123 138 168 174 170 177 154 139 139 144 136 136 151 138 141 127 135 120 130 136 130 150 132 151 137 149 153 152
223 223 220 212 200 209 221 212 204 207 217 221 230 241 167 137 158 192 144 153 153 155 155 181 208 162 189 231 178 152 150 144 139 99 129 143 148 110 171 126 124 149 130 136 134 145 146 146 150
229 219 216 219 215 222 222 216 213 214 211 210 220 220 218 217 225 228 226 229 186 165 196 232 232 160 226 218 209 177 209 262 160 147 165 208 149 140 113 145 135 135 147 131 136 132 143 150 151
189 236 240 236 223 211 210 203 209 219 227 229 220 216 230 223 232 234 245 212 245 256 219 249 321 343 356 375 376 383 413 341 137 372 133 134 138 149 176 124 137 132 141 221 152 140 140 245 147
191 192 196 207 245 235 234 231 226 229 192 184 225 233 239 241 246 257 265 206 301 316 339 358 367 100 331 359 348 358 410 395 127 301 127 191 465 213 135 126 140 144 139 147 132 145 154 156 185
209 205 198 242 265 262 258 245 241 237 227 231 239 247 257 267 277 304 304 284 325 319 302 168 184 271 311 316 325 323 136 280 368 425 422 227 123 144 219 141 410 370 419 135 138 151 247 147 150
198 203 206 214 231 238 270 254 252 255 255 263 269 269 262 262 271 278 295 316 297 295 283 290 280 271 280 295 298 312 195 200 322 249 192 197 383 387 348 338 347 339 353 138 306 402 166 151 158
201 202 208 219 214 220 226 260 244 244 239 231 234 248 265 264 299 300 287 281 277 283 268 283 276 276 271 281 281 279 258 279 281 306 305 305 316 313 338 344 346 279 326 207 121 138 143 387 367
203 204 207 213 216 219 224 232 239 243 248 258 258 264 302 287 288 278 278 275 276 267 266 272 264 264 252 258 264 273 272 283 280 267 270 273 277 165 291 297 301 298 299 310 150 174 310 158 145
210 207 207 218 229 237 242 243 246 252 279 306 295 294 288 262 283 265 257 266 262 263 252 272 252 253 240 238 240 241 254 258 264 268 268 269 266 271 274 276 277 230 135 165 136 135 288 138 144
214 223 237 240 238 246 254 297 309 297 290 258 255 269 272 257 260 262 247 239 227 228 228 228 231 226 226 233 233 241 242 242 249 242 246 250 215 260 263 269 269 226 152 231 236 236 153 152 152
232 240 243 295 318 309 286 290 258 268 270 252 239 235 234 234 227 225 225 226 221 226 231 232 227 229 229 228 232 232 236 234 234 229 229 245 246 242 241 181 243 160 153 159 159 158 172 264 273

GFSSGP_2pvu_pres_117.txt.gz
Presure
83 134 108 112 130 80 80 90 94 79 93 77 83 94 143 82 92 94 149 112 149 114 153 154 98 136 88 92 97 93 95 110 168 176 103 105 165 172 153 145 182 183 106 179 173 182 176 186 185
80 88 91 89 127 85 93 84 85 87 87 87 128 90 90 90 126 95 128 91 135 84 88 90 94 93 86 88 91 133 126 109 142 174 174 172 173 160 143 170 142 143 170 195 192 168 189 185 197
96 82 89 84 80 83 80 86 87 86 86 82 139 88 87 87 88 142 87 84 86 146 104 87 96 92 88 92 102 95 104 167 117 135 155 154 129 149 154 154 148 182 159 149 161 169 174 182 171
86 88 86 78 86 85 82 71 78 79 82 66 84 81 86 82 83 93 97 101 85 133 114 89 87 92 91 96 90 141 129 153 141 155 145 157 159 146 149 161 126 88 144 160 134 126 81 145 141
88 93 82 83 88 81 88 85 88 81 79 87 88 83 79 88 84 84 129 141 108 131 104 134 145 154 115 114 141 178 155 156 165 157 151 153 144 131 95 146 143 126 137 90 161 152 103 107 175
94 140 89 90 98 95 90 88 86 91 92 90 90 89 86 89 93 95 87 93 100 128 136 115 140 146 162 152 122 153 139 162 152 141 160 152 127 132 88 124 140 147 150 139 167 165 119 166 173
93 94 93 92 94 94 96 92 87 87 84 93 78 80 77 91 90 97 85 93 91 96 138 129 131 132 127 144 143 140 127 144 144 153 163 125 111 147 94 112 110 128 82 105 104 143 155 178 123
165 137 172 173 127 98 92 90 90 92 91 91 91 90 89 90 94 96 94 99 103 97 95 102 106 107 112 113 130 131 129 128 114 124 113 114 125 94 88 100 83 152 145 78 152 131 172 136 145
188 166 167 177 97 138 177 145 123 114 103 95 97 100 109 107 106 103 110 110 110 108 107 101 105 110 110 111 115 132 140 119 130 140 118 124 132 127 124 93 120 93 75 126 134 136 153 158 153
149 190 148 169 131 145 143 164 149 154 174 137 144 116 114 119 101 120 117 119 141 143 143 133 114 127 120 115 115 122 129 120 126 128 144 146 122 125 123 139 150 138 143 140 137 163 143 147 139
149 149 152 182 182 110 160 146 105 105 157 146 166 175 119 111 113 117 121 128 122 135 77 121 117 127 125 112 113 117 126 126 134 132 117 139 127 146 132 126 160 145 166 140 137 162 168 106 129
139 148 150 131 176 173 176 173 161 161 119 76 156 148 151 175 147 175 127 139 120 130 112 128 93 138 141 147 145 139 141 123 123 130 147 120 147 144 137 140 162 165 124 135 150 141 166 157 138
152 139 145 151 146 149 143 179 185 176 161 165 168 175 140 147 139 141 144 104 142 159 150 136 127 133 124 122 129 136 121 147 130 133 153 147 149 145 153 149 151 127 151 144 152 144 147 140 155
154 153 150 143 152 153 147 137 130 118 143 185 161 153 143 172 177 170 181 178 183 143 138 139 147 135 126 119 120 130 126 130 125 132 153 128 140 158 139 135 146 141 159 124 156 163 161 152 108
174 199 156 156 144 144 149 151 152 150 159 166 141 156 167 168 139 179 183 176 128 125 138 142 149 148 73 134 135 132 139 119 133 133 144 150 174 167 168 157 138 147 136 149 128 128 164 132 164
222 205 197 177 198 157 139 140 146 150 149 145 144 151 173 169 125 177 119 176 182 184 159 134 134 125 133 154 145 147 145 149 140 143 138 135 147 147 144 131 138 134 139 152 137 146 175 154 154
215 220 226 201 194 172 164 157 147 136 139 138 149 151 155 156 161 152 127 152 171 160 131 187 148 143 181 188 149 134 140 149 160 153 204 128 135 133 135 101 137 149 126 138 142 123 138 149 137
221 214 211 218 225 215 196 195 210 164 155 139 137 139 144 148 162 152 155 160 165 140 156 162 165 129 136 139 164 202 192 190 171 156 180 151 146 133 95 130 133 129 148 142 136 132 125 148 150
224 201 198 214 211 200 211 217 212 217 224 194 185 170 170 172 171 166 147 152 154 158 167 128 120 162 168 170 174 209 180 179 235 264 180 143 143 145 146 149 178 125 104 136 115 139 136 140 136
225 216 211 205 207 204 202 211 208 209 209 211 218 217 182 210 215 220 229 239 217 228 173 174 153 154 158 163 159 159 185 184 148 168 168 176 187 116 148 130 138 136 110 121 126 141 134 150 153
250 231 215 208 206 209 219 227 226 207 206 202 202 217 217 217 217 211 211 214 220 222 186 187 144 149 237 194 244 249 202 316 279 324 356 454 245 335 183 183 136 142 144 160 135 135 149 145 141
261 243 233 229 234 233 219 221 217 219 220 217 217 198 192 221 227 213 220 223 234 231 220 240 269 287 367 312 189 231 145 149 349 263 329 365 481 431 429 224 418 146 137 160 170 135 149 126 147
186 245 185 222 231 228 215 230 221 235 239 238 235 235 221 226 223 219 253 256 207 249 290 290 289 305 300 300 317 307 318 309 308 306 335 357 397 399 430 441 420 407 161 384 136 118 123 128 180
189 188 184 190 193 190 191 196 195 200 222 263 265 263 264 264 260 257 268 279 278 261 310 311 307 297 292 298 281 288 284 279 290 290 293 302 322 340 127 116 379 374 136 424 132 200 320 320 160
187 190 192 199 193 202 196 216 197 214 230 239 255 254 255 260 261 263 258 249 278 298 296 286 283 280 215 205 162 239 203 274 273 281 282 286 282 295 234 95 98 327 347 360 369 386 363 348 334
192 200 186 194 193 211 202 202 209 244 217 219 236 233 233 234 238 247 285 305 288 277 279 265 267 261 272 272 268 260 254 250 252 257 265 121 280 278 276 278 283 294 294 296 306 313 322 268 151
209 192 204 197 214 196 203 203 207 212 221 225 229 235 243 259 299 293 293 280 261 252 262 265 252 254 252 247 244 234 246 248 251 251 256 262 257 255 256 266 272 273 274 277 286 282 282 290 301
197 203 212 200 199 197 201 205 216 237 244 241 281 302 288 283 269 256 259 265 254 244 219 236 245 242 247 248 245 253 253 247 250 256 252 263 254 243 262 258 256 257 259 258 262 262 267 269 274
219 225 219 203 203 205 205 240 240 298 301 287 268 273 269 252 252 240 241 248 235 235 224 227 231 253 259 260 262 269 282 292 298 259 287 284 258 273 275 288 295 291 282 230 248 256 258 260 262
220 204 204 201 240 234 306 296 286 280 263 252 243 234 231 226 226 232 244 245 248 247 243 240 254 257 249 310 289 272 263 251 266 247 247 242 253 151 254 159 159 157 158 160 152 154 179 235 153

GFSSGP_2pvu_pres_120.txt.gz
Presure
84 95 126 94 80 93 127 109 134 86 77 83 93 90 146 82 84 85 85 94 144 139 132 147 149 100 151 146 91 93 99 100 155 97 186 156 173 173 170 170 175 142 193 186 185 177 146 189 182
82 141 109 154 156 113 86 107 113 85 90 151 75 86 95 98 137 111 147 97 135 107 121 87 85 94 94 90 88 90 94 96 131 125 158 169 159 176 183 172 148 169 159 146 145 185 184 201 199
99 81 106 132 128 136 72 123 82 85 83 81 78 89 80 84 83 86 89 96 138 84 87 129 95 89 93 91 89 99 97 92 117 154 157 139 134 133 115 141 176 180 157 148 168 177 146 111 174
89 88 87 84 84 85 82 78 82 84 128 81 89 81 81 85 84 85 83 89 98 96 98 138 133 101 84 87 92 85 90 173 164 159 159 147 146 161 153 153 130 147 162 91 133 92 131 171 156
88 85 87 106 90 87 82 84 82 84 81 86 71 88 88 78 76 84 89 87 93 87 96 98 101 104 104 142 150 113 148 174 138 179 146 165 104 133 154 124 126 138 137 97 130 145 110 133 138
107 122 86 84 87 85 97 111 89 89 86 83 106 91 88 86 88 89 86 89 86 85 84 90 114 140 102 133 140 142 152 156 134 155 134 122 136 139 170 150 117 131 87 128 103 110 158 132 172
91 120 138 91 93 89 83 128 88 105 102 89 89 89 90 89 86 83 87 120 93 93 91 95 95 99 135 129 106 131 121 130 137 135 135 127 144 127 115 115 125 113 93 156 108 80 75 154 116
103 157 88 170 100 92 95 88 88 76 89 95 80 91 87 82 79 91 84 89 101 96 113 103 102 110 101 102 130 112 111 141 134 121 145 130 104 138 111 130 105 125 98 82 78 78 81 159 141
146 150 154 139 102 140 99 90 90 89 90 92 91 76 92 91 93 90 93 96 97 104 101 109 109 109 107 106 106 109 105 109 115 117 116 126 142 115 141 118 120 145 121 131 132 103 149 129 151
189 169 146 115 152 151 97 96 96 95 95 92 89 91 94 94 97 68 97 107 120 111 140 113 111 115 114 113 114 132 121 113 119 119 121 129 133 129 124 125 144 136 152 135 139 136 142 152 142
140 147 163 171 151 169 183 123 185 171 107 166 159 163 162 178 172 133 125 127 118 121 125 121 119 125 138 111 111 120 126 126 128 129 130 128 131 125 131 170 126 121 143 101 136 136 126 127 150
141 141 142 151 155 155 166 182 181 133 127 105 104 168 167 167 150 176 143 132 122 129 117 118 120 143 115 122 116 132 139 142 139 127 138 131 132 134 132 130 133 149 147 157 156 143 152 161 134
143 140 141 140 146 145 151 153 173 172 180 116 86 170 113 104 180 161 139 163 153 164 173 149 161 144 128 146 124 127 126 123 123 124 150 119 125 128 134 135 140 141 160 142 152 154 159 135 144
194 151 139 140 139 141 146 153 148 149 164 176 177 163 144 171 181 170 171 174 114 129 135 137 84 143 148 148 147 150 151 136 129 114 123 128 127 138 127 128 136 143 154 134 144 158 139 147 119
201 201 157 158 138 134 135 138 145 146 114 146 153 123 195 195 181 126 182 195 185 173 161 177 179 185 162 161 178 184 148 149 150 135 134 134 130 122 132 148 136 147 152 148 154 142 182 149 134
201 215 210 218 155 155 147 138 137 136 142 148 150 148 151 154 119 131 170 134 117 138 172 145 141 173 175 187 193 126 123 130 127 144 175 163 152 160 147 147 139 140 137 148 150 136 140 139 138
209 205 180 198 203 196 168 158 154 150 147 139 141 146 146 153 153 157 149 149 153 156 159 121 156 178 182 178 159 174 186 180 167 170 212 184 159 136 163 155 197 142 164 140 139 134 142 139 118
207 204 200 207 212 187 191 217 204 169 158 152 153 151 141 142 143 143 141 142 147 154 163 160 161 160 165 158 135 128 132 132 137 148 179 175 156 165 224 214 184 222 242 151 136 133 139 129 140
211 205 208 209 218 216 207 213 217 221 217 186 196 190 176 153 154 161 176 157 169 175 144 179 148 170 181 153 155 141 125 127 139 167 164 159 159 181 268 264 257 178 244 233 149 147 148 120 144
212 213 214 209 208 208 216 216 208 208 209 209 222 218 212 213 216 219 218 212 227 217 218 216 219 221 223 221 221 228 181 207 179 163 217 168 171 171 170 170 170 169 183 179 182 149 145 134 134
211 214 213 213 217 172 214 209 216 201 199 209 202 193 195 220 228 216 218 219 219 217 227 230 228 229 228 227 231 231 223 152 216 147 249 143 278 148 236 147 153 156 163 323 168 293 273 174 137
265 268 261 227 243 237 218 224 221 183 209 204 201 224 216 207 214 221 232 237 240 245 248 211 221 266 281 288 289 277 274 311 308 288 299 297 286 304 303 327 376 408 398 416 423 191 428 376 170
283 277 271 265 261 256 231 223 217 222 221 225 234 217 227 236 234 240 241 277 283 282 279 279 278 276 268 275 296 295 297 287 291 293 285 282 292 291 291 294 303 318 336 345 388 438 136 406 384
229 257 263 269 268 259 251 249 228 234 244 229 217 201 200 203 204 223 237 250 261 264 264 261 254 272 283 291 285 284 268 279 262 258 268 266 267 254 270 278 283 292 292 305 318 336 519 379 365
166 168 175 182 187 205 201 187 208 187 190 189 199 222 208 213 243 245 240 245 245 246 255 302 287 280 270 276 271 270 263 259 258 261 248 219 250 258 263 263 266 272 278 282 252 227 233 279 200
169 177 177 181 185 191 192 189 199 213 213 204 206 208 213 217 225 241 241 247 257 302 282 280 266 261 244 246 249 248 255 250 258 234 277 312 302 302 301 298 300 309 303 290 276 275 280 282 283
186 186 188 192 198 187 190 211 211 200 204 201 209 210 215 223 239 263 311 289 270 268 266 260 248 245 232 232 237 106 282 304 252 291 268 260 265 263 265 261 256 285 277 283 292 299 294 283 270
178 181 182 201 208 212 216 213 199 197 204 208 210 220 273 304 293 270 268 256 252 240 235 234 225 235 218 250 287 250 268 264 261 255 255 255 265 265 251 248 252 261 255 255 257 253 256 265 282
192 203 205 210 217 211 194 209 205 208 211 272 302 283 270 262 252 239 232 243 247 258 252 251 236 271 289 271 259 255 240 252 246 248 250 239 246 261 260 247 255 238 264 265 267 264 269 273 273
212 210 216 234 227 226 222 208 226 304 287 270 256 241 229 245 291 280 276 272 268 264 264 254 253 272 247 249 250 239 235 244 241 241 251 238 214 214 242 263 264 263 255 246 247 260 259 228 241

GFSSGP_2pvu_pres_123.txt.gz
Presure
88 82 83 91 90 142 113 132 96 96 93 68 95 106 96 97 107 99 79 84 148 151 143 142 142 142 144 145 147 90 90 92 95 144 152 113 122 187 167 183 148 155 155 160 164 171 192 191 182
78 82 88 112 121 136 93 94 84 121 83 84 90 81 99 92 89 91 143 143 96 146 83 119 128 88 109 95 95 91 90 93 100 95 143 151 153 150 125 131 172 185 142 146 168 143 161 158 166
83 81 82 114 87 86 95 84 103 131 140 99 94 81 79 84 81 84 86 89 105 140 138 135 128 133 95 88 85 92 93 91 91 96 165 140 150 152 151 158 149 152 126 156 181 131 135 168 155
85 88 101 84 83 87 100 68 166 135 139 90 80 77 83 91 88 121 86 79 88 86 88 83 136 135 124 103 115 140 101 91 94 92 139 144 157 155 160 141 158 165 135 134 134 88 101 92 150
82 106 88 80 107 85 85 79 131 83 83 82 78 87 82 82 82 81 82 89 87 90 87 128 85 89 93 94 97 118 139 144 146 164 151 159 113 167 172 156 143 158 131 136 148 89 84 147 130
107 87 92 92 94 86 85 86 75 84 85 88 82 83 78 85 87 77 89 92 88 88 82 86 116 90 98 89 115 139 133 132 126 141 143 137 138 121 141 123 121 115 183 126 128 125 160 78 120
149 90 91 154 93 81 88 115 83 87 95 88 90 78 78 88 87 88 88 82 86 91 84 95 94 135 95 130 141 94 122 107 117 115 126 122 138 148 120 120 144 109 126 123 90 91 132 90 74
94 105 92 97 103 93 93 82 83 83 76 87 89 94 93 96 90 89 86 81 94 85 87 95 95 98 137 101 114 134 134 132 101 110 105 112 117 123 137 112 113 113 134 122 108 143 76 79 148
103 156 113 95 94 100 96 94 95 88 89 86 121 129 98 88 97 82 85 93 93 95 95 97 116 109 122 106 109 112 109 108 110 106 105 106 113 116 122 125 116 113 117 148 143 136 121 130 142
150 103 101 134 121 159 89 114 93 94 93 95 89 90 84 90 77 85 90 90 95 95 96 98 108 114 110 114 116 113 115 112 121 120 113 129 117 118 119 120 128 129 132 131 124 137 137 98 124
135 149 148 162 144 101 163 189 101 122 169 100 95 97 92 94 95 94 95 97 102 106 110 110 126 121 114 140 118 111 114 138 126 111 121 125 132 132 137 140 140 143 110 146 135 118 153 131 147
143 139 144 151 167 140 165 150 152 133 138 71 96 95 96 129 125 167 166 149 155 166 175 138 139 119 119 120 116 116 112 78 122 120 119 130 138 139 174 129 137 131 143 155 131 160 130 134 150
144 138 140 139 143 159 181 185 160 149 160 170 182 156 171 185 188 98 102 141 179 169 148 165 164 156 157 157 149 137 171 152 137 128 149 124 147 129 129 119 141 127 127 130 141 132 155 153 147
185 154 147 142 141 142 144 148 158 173 165 150 158 124 145 185 165 128 145 185 74 148 173 161 173 140 135 170 134 147 143 145 146 149 175 149 146 138 134 130 127 125 130 128 128 135 133 141 144
162 151 153 155 135 136 141 140 142 145 149 151 152 154 152 154 155 164 109 124 171 185 138 196 173 204 185 181 189 186 169 166 186 190 186 192 188 171 149 149 141 138 140 142 137 137 131 137 147
216 216 214 144 149 152 143 137 136 141 142 141 141 143 149 154 154 150 150 128 123 123 154 166 126 127 174 111 179 176 174 155 186 195 204 188 163 139 135 126 133 175 144 149 150 166 178 153 146
196 203 209 211 187 178 151 152 152 143 139 133 134 138 139 142 142 144 149 152 155 154 152 157 121 160 159 155 153 153 157 130 160 159 162 170 177 177 178 181 200 176 228 223 180 137 146 187 169
195 199 201 209 210 193 193 184 203 200 194 163 150 185 164 148 150 155 152 143 145 149 148 150 151 152 153 149 148 148 151 153 160 179 174 181 135 135 132 127 130 136 141 198 153 157 165 221 205
198 209 201 194 192 199 196 197 198 210 195 203 208 151 194 215 170 163 163 213 165 221 161 160 153 145 227 230 224 225 228 232 235 242 236 236 235 183 239 184 169 172 256 170 171 505 179 179 177
170 177 179 171 192 194 211 205 192 197 200 206 212 210 209 213 201 207 210 210 216 218 220 220 229 234 231 230 232 237 235 227 264 220 226 236 185 228 192 186 142 142 150 152 153 231 162 166 171
186 184 190 193 196 199 177 171 203 200 203 208 206 212 213 210 216 208 206 208 215 212 211 211 230 249 256 281 293 294 292 282 278 278 295 301 291 304 295 298 295 299 300 277 321 233 358 154 315
213 213 208 197 204 205 199 203 201 204 209 208 209 213 206 210 205 198 204 215 219 237 237 241 228 223 236 255 270 266 265 261 270 291 282 277 283 293 287 278 279 281 283 290 294 307 313 333 487
198 201 207 207 208 210 206 200 200 211 214 218 217 230 219 218 215 216 225 242 241 221 212 211 228 247 241 246 252 293 292 289 290 280 280 273 273 273 266 266 239 260 312 305 281 288 295 307 321
175 219 221 218 212 202 206 214 228 254 256 250 243 243 228 232 246 246 236 196 193 208 216 224 234 252 259 296 294 282 277 275 269 262 258 240 244 238 308 299 296 289 282 286 299 306 307 293 296
301 287 218 272 289 280 278 273 259 253 255 255 255 262 239 187 192 193 202 210 212 216 223 239 295 300 296 277 266 257 253 247 239 235 250 318 284 255 263 267 266 266 269 283 261 263 273 289 302
156 261 212 169 162 238 245 221 234 235 234 203 191 188 202 207 203 209 210 214 222 256 312 299 287 274 261 251 234 239 218 294 316 272 266 133 260 269 250 253 265 271 272 263 268 275 274 276 256
169 161 235 182 165 169 185 185 187 192 185 191 207 203 201 210 203 211 219 314 296 278 259 248 230 230 229 249 247 293 268 255 241 246 241 260 264 270 254 241 247 250 249 245 269 270 255 253 261
183 169 196 185 183 181 190 195 196 210 195 200 204 213 208 212 261 293 270 256 250 255 262 268 265 278 297 279 254 249 258 258 240 233 237 242 234 243 238 241 240 243 242 241 242 240 244 250 249
158 173 182 164 184 186 208 176 188 193 225 229 226 270 284 262 248 242 259 265 280 263 242 250 257 248 245 244 239 238 231 229 222 225 227 233 233 236 235 229 227 228 227 229 230 232 238 237 233
215 158 201 191 198 203 214 202 236 226 220 273 258 254 247 276 268 267 270 255 226 234 232 216 223 225 226 222 217 216 218 225 223 221 221 219 222 223 218 220 221 227 227 227 228 230 227 232 238